<?xml version="1.0" encoding="UTF-8" standalone="no" ?>
<gpx xmlns="http://www.topografix.com/GPX/1/1" xmlns:xsi="http://www.w3.org/2001/XMLSchema-instance" xsi:schemaLocation="http://www.topografix.com/GPX/1/1 http://www.topografix.com/GPX/1/1/gpx.xsd" version="1.1" creator="VisuGPX - https://www.visugpx.com">
  <metadata>
    <name>Racines-Land, Mirkwood, Amanite </name>
    <desc><![CDATA[Départ du parking Mirkwood. Enchaînement de trois descentes : Racines-Land (noire) Mirkwood (rouge) et Amanite (bleue au début rouge à la fin).
Deux montées au Col de la Courade, une fois par la piste, une fois par la route. Le parcours repasse au parking Mirkwood entre les deux.]]></desc>
  </metadata>
  <trk>
    <name><![CDATA[Sortie à VTT]]></name>
    <trkseg>
      <trkpt lat="43.01233" lon="0.15164">
        <ele>819.070645</ele>
        <time>2026-03-22T08:01:11.799Z</time>
      </trkpt>
      <trkpt lat="43.01245" lon="0.15197">
        <ele>819.070645</ele>
        <time>2026-03-22T08:07:13.174Z</time>
      </trkpt>
      <trkpt lat="43.01249" lon="0.15209">
        <ele>819.070645</ele>
        <time>2026-03-22T08:07:17.142Z</time>
      </trkpt>
      <trkpt lat="43.01249" lon="0.15222">
        <ele>819.070645</ele>
        <time>2026-03-22T08:07:22.154Z</time>
      </trkpt>
      <trkpt lat="43.01252" lon="0.15235">
        <ele>819.070645</ele>
        <time>2026-03-22T08:07:27.141Z</time>
      </trkpt>
      <trkpt lat="43.01256" lon="0.15248">
        <ele>819.070645</ele>
        <time>2026-03-22T08:07:33.144Z</time>
      </trkpt>
      <trkpt lat="43.01259" lon="0.15263">
        <ele>819.070645</ele>
        <time>2026-03-22T08:07:38.140Z</time>
      </trkpt>
      <trkpt lat="43.0126" lon="0.15276">
        <ele>819.070645</ele>
        <time>2026-03-22T08:07:42.141Z</time>
      </trkpt>
      <trkpt lat="43.0126" lon="0.15289">
        <ele>819.515215</ele>
        <time>2026-03-22T08:07:46.147Z</time>
      </trkpt>
      <trkpt lat="43.01263" lon="0.15301">
        <ele>820.195566</ele>
        <time>2026-03-22T08:07:51.173Z</time>
      </trkpt>
      <trkpt lat="43.01265" lon="0.15313">
        <ele>820.845832</ele>
        <time>2026-03-22T08:07:57.141Z</time>
      </trkpt>
      <trkpt lat="43.01269" lon="0.15326">
        <ele>821.548785</ele>
        <time>2026-03-22T08:08:03.170Z</time>
      </trkpt>
      <trkpt lat="43.01276" lon="0.15335">
        <ele>822.207409</ele>
        <time>2026-03-22T08:08:09.141Z</time>
      </trkpt>
      <trkpt lat="43.01279" lon="0.15348">
        <ele>822.931434</ele>
        <time>2026-03-22T08:08:16.162Z</time>
      </trkpt>
      <trkpt lat="43.01282" lon="0.1536">
        <ele>823.589264</ele>
        <time>2026-03-22T08:08:23.153Z</time>
      </trkpt>
      <trkpt lat="43.01284" lon="0.15373">
        <ele>824.271872</ele>
        <time>2026-03-22T08:08:30.145Z</time>
      </trkpt>
      <trkpt lat="43.01288" lon="0.15385">
        <ele>824.949659</ele>
        <time>2026-03-22T08:08:36.147Z</time>
      </trkpt>
      <trkpt lat="43.0129" lon="0.15398">
        <ele>825.656914</ele>
        <time>2026-03-22T08:08:42.146Z</time>
      </trkpt>
      <trkpt lat="43.01294" lon="0.15412">
        <ele>826.412044</ele>
        <time>2026-03-22T08:08:47.150Z</time>
      </trkpt>
      <trkpt lat="43.01297" lon="0.15425">
        <ele>827.147972</ele>
        <time>2026-03-22T08:08:53.139Z</time>
      </trkpt>
      <trkpt lat="43.01299" lon="0.1544">
        <ele>827.927356</ele>
        <time>2026-03-22T08:09:01.166Z</time>
      </trkpt>
      <trkpt lat="43.01303" lon="0.15454">
        <ele>828.692184</ele>
        <time>2026-03-22T08:09:06.143Z</time>
      </trkpt>
      <trkpt lat="43.01308" lon="0.15465">
        <ele>829.399546</ele>
        <time>2026-03-22T08:09:12.189Z</time>
      </trkpt>
      <trkpt lat="43.0131" lon="0.1548">
        <ele>830.181487</ele>
        <time>2026-03-22T08:09:17.143Z</time>
      </trkpt>
      <trkpt lat="43.0131" lon="0.15493">
        <ele>830.860935</ele>
        <time>2026-03-22T08:09:23.148Z</time>
      </trkpt>
      <trkpt lat="43.01314" lon="0.15505">
        <ele>831.503105</ele>
        <time>2026-03-22T08:09:29.142Z</time>
      </trkpt>
      <trkpt lat="43.01319" lon="0.15516">
        <ele>832.363685</ele>
        <time>2026-03-22T08:09:37.149Z</time>
      </trkpt>
      <trkpt lat="43.01321" lon="0.15529">
        <ele>833.319475</ele>
        <time>2026-03-22T08:09:44.141Z</time>
      </trkpt>
      <trkpt lat="43.01324" lon="0.1554">
        <ele>834.269054</ele>
        <time>2026-03-22T08:09:50.141Z</time>
      </trkpt>
      <trkpt lat="43.01326" lon="0.15554">
        <ele>835.35051</ele>
        <time>2026-03-22T08:09:57.141Z</time>
      </trkpt>
      <trkpt lat="43.01329" lon="0.15567">
        <ele>836.348488</ele>
        <time>2026-03-22T08:10:03.158Z</time>
      </trkpt>
      <trkpt lat="43.01332" lon="0.15579">
        <ele>837.337001</ele>
        <time>2026-03-22T08:10:09.144Z</time>
      </trkpt>
      <trkpt lat="43.01336" lon="0.15592">
        <ele>838.420881</ele>
        <time>2026-03-22T08:10:16.168Z</time>
      </trkpt>
      <trkpt lat="43.0134" lon="0.15604">
        <ele>839.40717</ele>
        <time>2026-03-22T08:10:22.142Z</time>
      </trkpt>
      <trkpt lat="43.01343" lon="0.15617">
        <ele>840.439941</ele>
        <time>2026-03-22T08:10:29.143Z</time>
      </trkpt>
      <trkpt lat="43.01347" lon="0.15629">
        <ele>841.399196</ele>
        <time>2026-03-22T08:10:36.155Z</time>
      </trkpt>
      <trkpt lat="43.0135" lon="0.1564">
        <ele>842.334028</ele>
        <time>2026-03-22T08:10:43.150Z</time>
      </trkpt>
      <trkpt lat="43.01354" lon="0.15653">
        <ele>843.337481</ele>
        <time>2026-03-22T08:10:51.149Z</time>
      </trkpt>
      <trkpt lat="43.01357" lon="0.15665">
        <ele>844.343458</ele>
        <time>2026-03-22T08:10:58.141Z</time>
      </trkpt>
      <trkpt lat="43.01359" lon="0.15677">
        <ele>845.294923</ele>
        <time>2026-03-22T08:11:04.159Z</time>
      </trkpt>
      <trkpt lat="43.01361" lon="0.15691">
        <ele>846.338972</ele>
        <time>2026-03-22T08:11:11.142Z</time>
      </trkpt>
      <trkpt lat="43.01366" lon="0.15703">
        <ele>847.354154</ele>
        <time>2026-03-22T08:11:18.150Z</time>
      </trkpt>
      <trkpt lat="43.01368" lon="0.15716">
        <ele>848.420177</ele>
        <time>2026-03-22T08:11:25.143Z</time>
      </trkpt>
      <trkpt lat="43.01371" lon="0.1573">
        <ele>849.479253</ele>
        <time>2026-03-22T08:11:32.149Z</time>
      </trkpt>
      <trkpt lat="43.01372" lon="0.15743">
        <ele>850.469833</ele>
        <time>2026-03-22T08:11:40.827Z</time>
      </trkpt>
      <trkpt lat="43.01373" lon="0.15756">
        <ele>851.038489</ele>
        <time>2026-03-22T08:11:48.850Z</time>
      </trkpt>
      <trkpt lat="43.0137" lon="0.15769">
        <ele>851.653632</ele>
        <time>2026-03-22T08:11:57.844Z</time>
      </trkpt>
      <trkpt lat="43.01367" lon="0.15781">
        <ele>852.24804</ele>
        <time>2026-03-22T08:12:05.849Z</time>
      </trkpt>
      <trkpt lat="43.01363" lon="0.15794">
        <ele>852.879263</ele>
        <time>2026-03-22T08:12:13.839Z</time>
      </trkpt>
      <trkpt lat="43.01358" lon="0.15806">
        <ele>853.469627</ele>
        <time>2026-03-22T08:12:22.851Z</time>
      </trkpt>
      <trkpt lat="43.01353" lon="0.15816">
        <ele>854.034496</ele>
        <time>2026-03-22T08:12:29.852Z</time>
      </trkpt>
      <trkpt lat="43.01347" lon="0.15826">
        <ele>854.621519</ele>
        <time>2026-03-22T08:12:36.856Z</time>
      </trkpt>
      <trkpt lat="43.01342" lon="0.15837">
        <ele>855.201924</ele>
        <time>2026-03-22T08:12:43.846Z</time>
      </trkpt>
      <trkpt lat="43.01334" lon="0.15846">
        <ele>855.84071</ele>
        <time>2026-03-22T08:12:51.858Z</time>
      </trkpt>
      <trkpt lat="43.01328" lon="0.15856">
        <ele>856.42373</ele>
        <time>2026-03-22T08:12:58.858Z</time>
      </trkpt>
      <trkpt lat="43.01319" lon="0.15863">
        <ele>857.013347</ele>
        <time>2026-03-22T08:13:06.855Z</time>
      </trkpt>
      <trkpt lat="43.01311" lon="0.15868">
        <ele>857.589612</ele>
        <time>2026-03-22T08:13:13.850Z</time>
      </trkpt>
      <trkpt lat="43.01301" lon="0.15872">
        <ele>858.221003</ele>
        <time>2026-03-22T08:13:21.854Z</time>
      </trkpt>
      <trkpt lat="43.01292" lon="0.15878">
        <ele>858.844071</ele>
        <time>2026-03-22T08:13:28.848Z</time>
      </trkpt>
      <trkpt lat="43.01283" lon="0.15885">
        <ele>859.457405</ele>
        <time>2026-03-22T08:13:35.848Z</time>
      </trkpt>
      <trkpt lat="43.01277" lon="0.15894">
        <ele>860.021369</ele>
        <time>2026-03-22T08:13:40.855Z</time>
      </trkpt>
      <trkpt lat="43.01269" lon="0.15905">
        <ele>860.688978</ele>
        <time>2026-03-22T08:13:45.847Z</time>
      </trkpt>
      <trkpt lat="43.01262" lon="0.15913">
        <ele>861.280252</ele>
        <time>2026-03-22T08:13:50.819Z</time>
      </trkpt>
      <trkpt lat="43.01255" lon="0.15923">
        <ele>861.755208</ele>
        <time>2026-03-22T08:13:56.847Z</time>
      </trkpt>
      <trkpt lat="43.01245" lon="0.15932">
        <ele>862.249701</ele>
        <time>2026-03-22T08:14:01.837Z</time>
      </trkpt>
      <trkpt lat="43.01235" lon="0.15938">
        <ele>862.735321</ele>
        <time>2026-03-22T08:14:05.874Z</time>
      </trkpt>
      <trkpt lat="43.01224" lon="0.15944">
        <ele>863.234925</ele>
        <time>2026-03-22T08:14:10.856Z</time>
      </trkpt>
      <trkpt lat="43.01215" lon="0.1595">
        <ele>863.6608</ele>
        <time>2026-03-22T08:14:14.850Z</time>
      </trkpt>
      <trkpt lat="43.01207" lon="0.15956">
        <ele>864.065786</ele>
        <time>2026-03-22T08:14:18.848Z</time>
      </trkpt>
      <trkpt lat="43.012" lon="0.15964">
        <ele>864.458899</ele>
        <time>2026-03-22T08:14:21.850Z</time>
      </trkpt>
      <trkpt lat="43.01194" lon="0.15973">
        <ele>864.850265</ele>
        <time>2026-03-22T08:14:24.853Z</time>
      </trkpt>
      <trkpt lat="43.01186" lon="0.15982">
        <ele>865.292129</ele>
        <time>2026-03-22T08:14:28.838Z</time>
      </trkpt>
      <trkpt lat="43.01177" lon="0.15991">
        <ele>865.758494</ele>
        <time>2026-03-22T08:14:32.840Z</time>
      </trkpt>
      <trkpt lat="43.01169" lon="0.16">
        <ele>866.188567</ele>
        <time>2026-03-22T08:14:36.872Z</time>
      </trkpt>
      <trkpt lat="43.01162" lon="0.16009">
        <ele>866.599977</ele>
        <time>2026-03-22T08:14:39.850Z</time>
      </trkpt>
      <trkpt lat="43.01153" lon="0.1602">
        <ele>867.123941</ele>
        <time>2026-03-22T08:14:43.870Z</time>
      </trkpt>
      <trkpt lat="43.01145" lon="0.16028">
        <ele>867.541434</ele>
        <time>2026-03-22T08:14:46.831Z</time>
      </trkpt>
      <trkpt lat="43.01137" lon="0.16035">
        <ele>867.968883</ele>
        <time>2026-03-22T08:14:50.829Z</time>
      </trkpt>
      <trkpt lat="43.01127" lon="0.16039">
        <ele>868.403804</ele>
        <time>2026-03-22T08:14:55.837Z</time>
      </trkpt>
      <trkpt lat="43.01116" lon="0.16042">
        <ele>868.870446</ele>
        <time>2026-03-22T08:15:00.876Z</time>
      </trkpt>
      <trkpt lat="43.01106" lon="0.16042">
        <ele>869.323671</ele>
        <time>2026-03-22T08:15:05.844Z</time>
      </trkpt>
      <trkpt lat="43.01096" lon="0.16043">
        <ele>869.772281</ele>
        <time>2026-03-22T08:15:09.853Z</time>
      </trkpt>
      <trkpt lat="43.01087" lon="0.16042">
        <ele>870.2024</ele>
        <time>2026-03-22T08:15:13.848Z</time>
      </trkpt>
      <trkpt lat="43.01076" lon="0.16042">
        <ele>870.711182</ele>
        <time>2026-03-22T08:15:19.821Z</time>
      </trkpt>
      <trkpt lat="43.01067" lon="0.16039">
        <ele>871.152219</ele>
        <time>2026-03-22T08:15:23.845Z</time>
      </trkpt>
      <trkpt lat="43.01057" lon="0.16037">
        <ele>871.600714</ele>
        <time>2026-03-22T08:15:27.867Z</time>
      </trkpt>
      <trkpt lat="43.01047" lon="0.16036">
        <ele>872.041831</ele>
        <time>2026-03-22T08:15:31.853Z</time>
      </trkpt>
      <trkpt lat="43.01037" lon="0.16037">
        <ele>872.542329</ele>
        <time>2026-03-22T08:15:36.862Z</time>
      </trkpt>
      <trkpt lat="43.01026" lon="0.16037">
        <ele>873.051212</ele>
        <time>2026-03-22T08:15:41.865Z</time>
      </trkpt>
      <trkpt lat="43.01016" lon="0.16037">
        <ele>873.518202</ele>
        <time>2026-03-22T08:15:45.856Z</time>
      </trkpt>
      <trkpt lat="43.01004" lon="0.16044">
        <ele>874.084792</ele>
        <time>2026-03-22T08:15:49.827Z</time>
      </trkpt>
      <trkpt lat="43.00994" lon="0.16048">
        <ele>874.598767</ele>
        <time>2026-03-22T08:15:53.874Z</time>
      </trkpt>
      <trkpt lat="43.00983" lon="0.16049">
        <ele>875.071155</ele>
        <time>2026-03-22T08:15:57.857Z</time>
      </trkpt>
      <trkpt lat="43.00972" lon="0.16051">
        <ele>875.586733</ele>
        <time>2026-03-22T08:16:02.071Z</time>
      </trkpt>
      <trkpt lat="43.00963" lon="0.16054">
        <ele>876.043599</ele>
        <time>2026-03-22T08:16:05.844Z</time>
      </trkpt>
      <trkpt lat="43.00954" lon="0.16059">
        <ele>876.479192</ele>
        <time>2026-03-22T08:16:09.843Z</time>
      </trkpt>
      <trkpt lat="43.00944" lon="0.16062">
        <ele>876.932388</ele>
        <time>2026-03-22T08:16:14.845Z</time>
      </trkpt>
      <trkpt lat="43.00935" lon="0.16064">
        <ele>877.381902</ele>
        <time>2026-03-22T08:16:19.880Z</time>
      </trkpt>
      <trkpt lat="43.00926" lon="0.16069">
        <ele>878.586532</ele>
        <time>2026-03-22T08:16:23.828Z</time>
      </trkpt>
      <trkpt lat="43.00916" lon="0.16074">
        <ele>880.150956</ele>
        <time>2026-03-22T08:16:28.822Z</time>
      </trkpt>
      <trkpt lat="43.00906" lon="0.1608">
        <ele>881.701945</ele>
        <time>2026-03-22T08:16:33.827Z</time>
      </trkpt>
      <trkpt lat="43.00898" lon="0.16087">
        <ele>883.088815</ele>
        <time>2026-03-22T08:16:39.863Z</time>
      </trkpt>
      <trkpt lat="43.0089" lon="0.16094">
        <ele>884.479609</ele>
        <time>2026-03-22T08:16:48.842Z</time>
      </trkpt>
      <trkpt lat="43.00884" lon="0.16105">
        <ele>885.971083</ele>
        <time>2026-03-22T08:16:56.851Z</time>
      </trkpt>
      <trkpt lat="43.00877" lon="0.16116">
        <ele>887.481719</ele>
        <time>2026-03-22T08:17:02.852Z</time>
      </trkpt>
      <trkpt lat="43.00871" lon="0.16124">
        <ele>888.818967</ele>
        <time>2026-03-22T08:17:09.854Z</time>
      </trkpt>
      <trkpt lat="43.00879" lon="0.16129">
        <ele>890.193373</ele>
        <time>2026-03-22T08:17:27.859Z</time>
      </trkpt>
      <trkpt lat="43.00889" lon="0.16133">
        <ele>891.694795</ele>
        <time>2026-03-22T08:17:36.852Z</time>
      </trkpt>
      <trkpt lat="43.00898" lon="0.16138">
        <ele>893.081545</ele>
        <time>2026-03-22T08:17:41.850Z</time>
      </trkpt>
      <trkpt lat="43.00907" lon="0.16144">
        <ele>894.580679</ele>
        <time>2026-03-22T08:17:46.842Z</time>
      </trkpt>
      <trkpt lat="43.00916" lon="0.1615">
        <ele>896.076829</ele>
        <time>2026-03-22T08:17:52.839Z</time>
      </trkpt>
      <trkpt lat="43.00924" lon="0.16157">
        <ele>897.493007</ele>
        <time>2026-03-22T08:17:59.845Z</time>
      </trkpt>
      <trkpt lat="43.00933" lon="0.16164">
        <ele>899.015202</ele>
        <time>2026-03-22T08:18:07.847Z</time>
      </trkpt>
      <trkpt lat="43.00942" lon="0.16172">
        <ele>900.497156</ele>
        <time>2026-03-22T08:18:15.841Z</time>
      </trkpt>
      <trkpt lat="43.0095" lon="0.16179">
        <ele>901.864713</ele>
        <time>2026-03-22T08:18:22.860Z</time>
      </trkpt>
      <trkpt lat="43.00956" lon="0.1619">
        <ele>903.390176</ele>
        <time>2026-03-22T08:18:28.845Z</time>
      </trkpt>
      <trkpt lat="43.00963" lon="0.162">
        <ele>904.592913</ele>
        <time>2026-03-22T08:18:36.850Z</time>
      </trkpt>
      <trkpt lat="43.00971" lon="0.16209">
        <ele>905.766548</ele>
        <time>2026-03-22T08:18:42.850Z</time>
      </trkpt>
      <trkpt lat="43.00977" lon="0.16218">
        <ele>906.798787</ele>
        <time>2026-03-22T08:18:48.847Z</time>
      </trkpt>
      <trkpt lat="43.00983" lon="0.16229">
        <ele>907.867575</ele>
        <time>2026-03-22T08:18:55.847Z</time>
      </trkpt>
      <trkpt lat="43.0099" lon="0.16238">
        <ele>908.980364</ele>
        <time>2026-03-22T08:19:04.840Z</time>
      </trkpt>
      <trkpt lat="43.00999" lon="0.16246">
        <ele>910.172375</ele>
        <time>2026-03-22T08:19:11.857Z</time>
      </trkpt>
      <trkpt lat="43.01007" lon="0.16253">
        <ele>911.277687</ele>
        <time>2026-03-22T08:19:17.850Z</time>
      </trkpt>
      <trkpt lat="43.01017" lon="0.16257">
        <ele>912.400442</ele>
        <time>2026-03-22T08:19:24.871Z</time>
      </trkpt>
      <trkpt lat="43.01024" lon="0.16265">
        <ele>913.494175</ele>
        <time>2026-03-22T08:19:32.845Z</time>
      </trkpt>
      <trkpt lat="43.01032" lon="0.16275">
        <ele>914.660379</ele>
        <time>2026-03-22T08:19:38.864Z</time>
      </trkpt>
      <trkpt lat="43.0104" lon="0.16283">
        <ele>915.783969</ele>
        <time>2026-03-22T08:19:44.858Z</time>
      </trkpt>
      <trkpt lat="43.01048" lon="0.16291">
        <ele>916.8706</ele>
        <time>2026-03-22T08:19:50.849Z</time>
      </trkpt>
      <trkpt lat="43.01057" lon="0.16295">
        <ele>917.939992</ele>
        <time>2026-03-22T08:19:56.838Z</time>
      </trkpt>
      <trkpt lat="43.01066" lon="0.16301">
        <ele>919.084547</ele>
        <time>2026-03-22T08:20:03.840Z</time>
      </trkpt>
      <trkpt lat="43.01075" lon="0.16306">
        <ele>920.180082</ele>
        <time>2026-03-22T08:20:11.853Z</time>
      </trkpt>
      <trkpt lat="43.01084" lon="0.16314">
        <ele>921.340998</ele>
        <time>2026-03-22T08:20:17.842Z</time>
      </trkpt>
      <trkpt lat="43.01093" lon="0.16318">
        <ele>922.4317</ele>
        <time>2026-03-22T08:20:23.846Z</time>
      </trkpt>
      <trkpt lat="43.01101" lon="0.16326">
        <ele>923.545903</ele>
        <time>2026-03-22T08:20:29.869Z</time>
      </trkpt>
      <trkpt lat="43.01109" lon="0.16333">
        <ele>924.465415</ele>
        <time>2026-03-22T08:20:36.855Z</time>
      </trkpt>
      <trkpt lat="43.01118" lon="0.16337">
        <ele>925.187991</ele>
        <time>2026-03-22T08:20:42.839Z</time>
      </trkpt>
      <trkpt lat="43.01127" lon="0.16339">
        <ele>925.87415</ele>
        <time>2026-03-22T08:20:47.867Z</time>
      </trkpt>
      <trkpt lat="43.01136" lon="0.16342">
        <ele>926.598983</ele>
        <time>2026-03-22T08:20:54.854Z</time>
      </trkpt>
      <trkpt lat="43.01147" lon="0.16345">
        <ele>927.418023</ele>
        <time>2026-03-22T08:21:00.827Z</time>
      </trkpt>
      <trkpt lat="43.01158" lon="0.16349">
        <ele>928.289074</ele>
        <time>2026-03-22T08:21:06.844Z</time>
      </trkpt>
      <trkpt lat="43.01168" lon="0.16352">
        <ele>929.115615</ele>
        <time>2026-03-22T08:21:11.839Z</time>
      </trkpt>
      <trkpt lat="43.01178" lon="0.16353">
        <ele>929.880474</ele>
        <time>2026-03-22T08:21:16.843Z</time>
      </trkpt>
      <trkpt lat="43.01188" lon="0.16358">
        <ele>930.682572</ele>
        <time>2026-03-22T08:21:22.833Z</time>
      </trkpt>
      <trkpt lat="43.01197" lon="0.16364">
        <ele>931.45203</ele>
        <time>2026-03-22T08:21:29.818Z</time>
      </trkpt>
      <trkpt lat="43.01206" lon="0.16368">
        <ele>932.173379</ele>
        <time>2026-03-22T08:21:36.864Z</time>
      </trkpt>
      <trkpt lat="43.01215" lon="0.16375">
        <ele>932.936025</ele>
        <time>2026-03-22T08:21:48.850Z</time>
      </trkpt>
      <trkpt lat="43.01223" lon="0.16382">
        <ele>933.657824</ele>
        <time>2026-03-22T08:21:54.846Z</time>
      </trkpt>
      <trkpt lat="43.01232" lon="0.16387">
        <ele>934.398931</ele>
        <time>2026-03-22T08:22:02.845Z</time>
      </trkpt>
      <trkpt lat="43.01241" lon="0.16392">
        <ele>935.183299</ele>
        <time>2026-03-22T08:22:08.838Z</time>
      </trkpt>
      <trkpt lat="43.0125" lon="0.16396">
        <ele>935.896893</ele>
        <time>2026-03-22T08:22:14.670Z</time>
      </trkpt>
      <trkpt lat="43.0126" lon="0.164">
        <ele>936.646935</ele>
        <time>2026-03-22T08:22:20.637Z</time>
      </trkpt>
      <trkpt lat="43.01268" lon="0.16404">
        <ele>937.344282</ele>
        <time>2026-03-22T08:22:26.635Z</time>
      </trkpt>
      <trkpt lat="43.01277" lon="0.16408">
        <ele>938.113444</ele>
        <time>2026-03-22T08:22:32.654Z</time>
      </trkpt>
      <trkpt lat="43.01285" lon="0.16415">
        <ele>939.050599</ele>
        <time>2026-03-22T08:22:38.634Z</time>
      </trkpt>
      <trkpt lat="43.01293" lon="0.16424">
        <ele>939.952498</ele>
        <time>2026-03-22T08:22:44.637Z</time>
      </trkpt>
      <trkpt lat="43.01294" lon="0.16436">
        <ele>940.813628</ele>
        <time>2026-03-22T08:22:52.682Z</time>
      </trkpt>
      <trkpt lat="43.01294" lon="0.16449">
        <ele>941.678812</ele>
        <time>2026-03-22T08:23:00.649Z</time>
      </trkpt>
      <trkpt lat="43.01282" lon="0.16474">
        <ele>943.736619</ele>
        <time>2026-03-22T08:24:05.638Z</time>
      </trkpt>
      <trkpt lat="43.01279" lon="0.16488">
        <ele>944.701661</ele>
        <time>2026-03-22T08:24:12.704Z</time>
      </trkpt>
      <trkpt lat="43.01275" lon="0.165">
        <ele>945.619011</ele>
        <time>2026-03-22T08:24:20.673Z</time>
      </trkpt>
      <trkpt lat="43.01273" lon="0.16512">
        <ele>946.519738</ele>
        <time>2026-03-22T08:24:26.684Z</time>
      </trkpt>
      <trkpt lat="43.0127" lon="0.16526">
        <ele>947.504442</ele>
        <time>2026-03-22T08:24:33.665Z</time>
      </trkpt>
      <trkpt lat="43.01266" lon="0.16539">
        <ele>948.49656</ele>
        <time>2026-03-22T08:24:40.660Z</time>
      </trkpt>
      <trkpt lat="43.01262" lon="0.16551">
        <ele>949.375875</ele>
        <time>2026-03-22T08:24:46.664Z</time>
      </trkpt>
      <trkpt lat="43.01257" lon="0.16563">
        <ele>950.335943</ele>
        <time>2026-03-22T08:24:53.712Z</time>
      </trkpt>
      <trkpt lat="43.01254" lon="0.16574">
        <ele>951.191268</ele>
        <time>2026-03-22T08:25:00.655Z</time>
      </trkpt>
      <trkpt lat="43.01248" lon="0.16585">
        <ele>952.079169</ele>
        <time>2026-03-22T08:25:10.666Z</time>
      </trkpt>
      <trkpt lat="43.01244" lon="0.16597">
        <ele>953.008013</ele>
        <time>2026-03-22T08:25:19.668Z</time>
      </trkpt>
      <trkpt lat="43.01241" lon="0.1661">
        <ele>953.930736</ele>
        <time>2026-03-22T08:25:27.644Z</time>
      </trkpt>
      <trkpt lat="43.01238" lon="0.16623">
        <ele>954.933684</ele>
        <time>2026-03-22T08:25:35.657Z</time>
      </trkpt>
      <trkpt lat="43.01236" lon="0.16636">
        <ele>956.508015</ele>
        <time>2026-03-22T08:25:42.658Z</time>
      </trkpt>
      <trkpt lat="43.01233" lon="0.1665">
        <ele>958.164485</ele>
        <time>2026-03-22T08:25:49.659Z</time>
      </trkpt>
      <trkpt lat="43.0123" lon="0.16663">
        <ele>959.762539</ele>
        <time>2026-03-22T08:25:57.688Z</time>
      </trkpt>
      <trkpt lat="43.01227" lon="0.16675">
        <ele>961.19145</ele>
        <time>2026-03-22T08:26:05.672Z</time>
      </trkpt>
      <trkpt lat="43.01219" lon="0.16669">
        <ele>962.688797</ele>
        <time>2026-03-22T08:26:30.667Z</time>
      </trkpt>
      <trkpt lat="43.01215" lon="0.16656">
        <ele>964.252351</ele>
        <time>2026-03-22T08:26:40.640Z</time>
      </trkpt>
      <trkpt lat="43.01215" lon="0.16643">
        <ele>965.817603</ele>
        <time>2026-03-22T08:26:47.666Z</time>
      </trkpt>
      <trkpt lat="43.01212" lon="0.1663">
        <ele>967.38037</ele>
        <time>2026-03-22T08:26:54.668Z</time>
      </trkpt>
      <trkpt lat="43.0121" lon="0.16616">
        <ele>969.002955</ele>
        <time>2026-03-22T08:27:00.666Z</time>
      </trkpt>
      <trkpt lat="43.01206" lon="0.16605">
        <ele>970.469655</ele>
        <time>2026-03-22T08:27:07.656Z</time>
      </trkpt>
      <trkpt lat="43.012" lon="0.16595">
        <ele>971.995302</ele>
        <time>2026-03-22T08:27:14.667Z</time>
      </trkpt>
      <trkpt lat="43.01193" lon="0.16585">
        <ele>973.589474</ele>
        <time>2026-03-22T08:27:25.658Z</time>
      </trkpt>
      <trkpt lat="43.01169" lon="0.16567">
        <ele>977.928114</ele>
        <time>2026-03-22T08:27:54.693Z</time>
      </trkpt>
      <trkpt lat="43.01159" lon="0.16563">
        <ele>979.595429</ele>
        <time>2026-03-22T08:27:59.664Z</time>
      </trkpt>
      <trkpt lat="43.0115" lon="0.16563">
        <ele>981.03954</ele>
        <time>2026-03-22T08:28:05.663Z</time>
      </trkpt>
      <trkpt lat="43.01139" lon="0.16563">
        <ele>982.689641</ele>
        <time>2026-03-22T08:28:16.645Z</time>
      </trkpt>
      <trkpt lat="43.01129" lon="0.16564">
        <ele>984.127825</ele>
        <time>2026-03-22T08:28:24.650Z</time>
      </trkpt>
      <trkpt lat="43.0112" lon="0.16564">
        <ele>985.42294</ele>
        <time>2026-03-22T08:28:36.663Z</time>
      </trkpt>
      <trkpt lat="43.01111" lon="0.16565">
        <ele>986.664761</ele>
        <time>2026-03-22T08:28:46.666Z</time>
      </trkpt>
      <trkpt lat="43.01093" lon="0.16565">
        <ele>989.075196</ele>
        <time>2026-03-22T08:29:06.674Z</time>
      </trkpt>
      <trkpt lat="43.01079" lon="0.16563">
        <ele>990.970935</ele>
        <time>2026-03-22T08:29:24.666Z</time>
      </trkpt>
      <trkpt lat="43.01069" lon="0.16562">
        <ele>992.416669</ele>
        <time>2026-03-22T08:29:39.665Z</time>
      </trkpt>
      <trkpt lat="43.01059" lon="0.16559">
        <ele>993.730522</ele>
        <time>2026-03-22T08:29:44.657Z</time>
      </trkpt>
      <trkpt lat="43.01049" lon="0.16557">
        <ele>995.121774</ele>
        <time>2026-03-22T08:29:49.644Z</time>
      </trkpt>
      <trkpt lat="43.01033" lon="0.16557">
        <ele>997.368812</ele>
        <time>2026-03-22T08:31:05.684Z</time>
      </trkpt>
      <trkpt lat="43.01022" lon="0.16557">
        <ele>998.758447</ele>
        <time>2026-03-22T08:31:12.664Z</time>
      </trkpt>
      <trkpt lat="43.01013" lon="0.16555">
        <ele>1000.112549</ele>
        <time>2026-03-22T08:31:19.666Z</time>
      </trkpt>
      <trkpt lat="43.01002" lon="0.16554">
        <ele>1001.4903</ele>
        <time>2026-03-22T08:31:27.656Z</time>
      </trkpt>
      <trkpt lat="43.00993" lon="0.16552">
        <ele>1002.779103</ele>
        <time>2026-03-22T08:31:36.669Z</time>
      </trkpt>
      <trkpt lat="43.00984" lon="0.1655">
        <ele>1004.037582</ele>
        <time>2026-03-22T08:31:44.672Z</time>
      </trkpt>
      <trkpt lat="43.00975" lon="0.16548">
        <ele>1005.287046</ele>
        <time>2026-03-22T08:31:50.687Z</time>
      </trkpt>
      <trkpt lat="43.00965" lon="0.16546">
        <ele>1006.597575</ele>
        <time>2026-03-22T08:31:57.669Z</time>
      </trkpt>
      <trkpt lat="43.00955" lon="0.16545">
        <ele>1007.981578</ele>
        <time>2026-03-22T08:32:04.668Z</time>
      </trkpt>
      <trkpt lat="43.00945" lon="0.16542">
        <ele>1009.4582</ele>
        <time>2026-03-22T08:32:11.676Z</time>
      </trkpt>
      <trkpt lat="43.00935" lon="0.1654">
        <ele>1010.806944</ele>
        <time>2026-03-22T08:32:18.637Z</time>
      </trkpt>
      <trkpt lat="43.00926" lon="0.16539">
        <ele>1012.180061</ele>
        <time>2026-03-22T08:32:26.682Z</time>
      </trkpt>
      <trkpt lat="43.00916" lon="0.16535">
        <ele>1013.623113</ele>
        <time>2026-03-22T08:32:34.660Z</time>
      </trkpt>
      <trkpt lat="43.00907" lon="0.16533">
        <ele>1014.913271</ele>
        <time>2026-03-22T08:32:41.664Z</time>
      </trkpt>
      <trkpt lat="43.00897" lon="0.16532">
        <ele>1016.313652</ele>
        <time>2026-03-22T08:32:51.646Z</time>
      </trkpt>
      <trkpt lat="43.00888" lon="0.16528">
        <ele>1017.623535</ele>
        <time>2026-03-22T08:32:58.673Z</time>
      </trkpt>
      <trkpt lat="43.00879" lon="0.16524">
        <ele>1018.936447</ele>
        <time>2026-03-22T08:33:06.664Z</time>
      </trkpt>
      <trkpt lat="43.00869" lon="0.16521">
        <ele>1020.324527</ele>
        <time>2026-03-22T08:33:15.667Z</time>
      </trkpt>
      <trkpt lat="43.0086" lon="0.16517">
        <ele>1021.637439</ele>
        <time>2026-03-22T08:33:25.665Z</time>
      </trkpt>
      <trkpt lat="43.00851" lon="0.16512">
        <ele>1022.981697</ele>
        <time>2026-03-22T08:33:35.659Z</time>
      </trkpt>
      <trkpt lat="43.00843" lon="0.16506">
        <ele>1024.296249</ele>
        <time>2026-03-22T08:33:43.669Z</time>
      </trkpt>
      <trkpt lat="43.00834" lon="0.16501">
        <ele>1025.666142</ele>
        <time>2026-03-22T08:33:50.674Z</time>
      </trkpt>
      <trkpt lat="43.00825" lon="0.16496">
        <ele>1026.972566</ele>
        <time>2026-03-22T08:33:57.687Z</time>
      </trkpt>
      <trkpt lat="43.0083" lon="0.16507">
        <ele>1028.250216</ele>
        <time>2026-03-22T08:34:12.669Z</time>
      </trkpt>
      <trkpt lat="43.00837" lon="0.16515">
        <ele>1029.586661</ele>
        <time>2026-03-22T08:34:20.652Z</time>
      </trkpt>
      <trkpt lat="43.00843" lon="0.16526">
        <ele>1030.931732</ele>
        <time>2026-03-22T08:34:29.651Z</time>
      </trkpt>
      <trkpt lat="43.00847" lon="0.16536">
        <ele>1032.205088</ele>
        <time>2026-03-22T08:34:36.641Z</time>
      </trkpt>
      <trkpt lat="43.00852" lon="0.16547">
        <ele>1033.458311</ele>
        <time>2026-03-22T08:34:44.658Z</time>
      </trkpt>
      <trkpt lat="43.00859" lon="0.16556">
        <ele>1034.674575</ele>
        <time>2026-03-22T08:34:52.688Z</time>
      </trkpt>
      <trkpt lat="43.00865" lon="0.16565">
        <ele>1035.881123</ele>
        <time>2026-03-22T08:34:59.667Z</time>
      </trkpt>
      <trkpt lat="43.00871" lon="0.16574">
        <ele>1037.105402</ele>
        <time>2026-03-22T08:35:07.670Z</time>
      </trkpt>
      <trkpt lat="43.00876" lon="0.16585">
        <ele>1038.39724</ele>
        <time>2026-03-22T08:35:17.681Z</time>
      </trkpt>
      <trkpt lat="43.00882" lon="0.16596">
        <ele>1039.767123</ele>
        <time>2026-03-22T08:35:24.704Z</time>
      </trkpt>
      <trkpt lat="43.00889" lon="0.16605">
        <ele>1041.032604</ele>
        <time>2026-03-22T08:35:31.669Z</time>
      </trkpt>
      <trkpt lat="43.00895" lon="0.16616">
        <ele>1042.378145</ele>
        <time>2026-03-22T08:35:39.666Z</time>
      </trkpt>
      <trkpt lat="43.00903" lon="0.16626">
        <ele>1043.781902</ele>
        <time>2026-03-22T08:35:48.670Z</time>
      </trkpt>
      <trkpt lat="43.00909" lon="0.16637">
        <ele>1045.095156</ele>
        <time>2026-03-22T08:35:55.667Z</time>
      </trkpt>
      <trkpt lat="43.00915" lon="0.16648">
        <ele>1046.473466</ele>
        <time>2026-03-22T08:36:02.663Z</time>
      </trkpt>
      <trkpt lat="43.00922" lon="0.16658">
        <ele>1047.849592</ele>
        <time>2026-03-22T08:36:09.657Z</time>
      </trkpt>
      <trkpt lat="43.00927" lon="0.16668">
        <ele>1049.067791</ele>
        <time>2026-03-22T08:36:16.672Z</time>
      </trkpt>
      <trkpt lat="43.00935" lon="0.16675">
        <ele>1050.334651</ele>
        <time>2026-03-22T08:36:24.673Z</time>
      </trkpt>
      <trkpt lat="43.00926" lon="0.16681">
        <ele>1051.643992</ele>
        <time>2026-03-22T08:36:41.646Z</time>
      </trkpt>
      <trkpt lat="43.00917" lon="0.16677">
        <ele>1052.996198</ele>
        <time>2026-03-22T08:36:50.664Z</time>
      </trkpt>
      <trkpt lat="43.00908" lon="0.16672">
        <ele>1054.217683</ele>
        <time>2026-03-22T08:36:59.671Z</time>
      </trkpt>
      <trkpt lat="43.00899" lon="0.16667">
        <ele>1055.571229</ele>
        <time>2026-03-22T08:37:08.667Z</time>
      </trkpt>
      <trkpt lat="43.0089" lon="0.16662">
        <ele>1056.787512</ele>
        <time>2026-03-22T08:37:17.654Z</time>
      </trkpt>
      <trkpt lat="43.00881" lon="0.16658">
        <ele>1058.28129</ele>
        <time>2026-03-22T08:37:27.660Z</time>
      </trkpt>
      <trkpt lat="43.00872" lon="0.16654">
        <ele>1059.864938</ele>
        <time>2026-03-22T08:37:35.667Z</time>
      </trkpt>
      <trkpt lat="43.00862" lon="0.1665">
        <ele>1061.499986</ele>
        <time>2026-03-22T08:37:43.661Z</time>
      </trkpt>
      <trkpt lat="43.00853" lon="0.16646">
        <ele>1063.03505</ele>
        <time>2026-03-22T08:37:52.657Z</time>
      </trkpt>
      <trkpt lat="43.00844" lon="0.16641">
        <ele>1064.482253</ele>
        <time>2026-03-22T08:38:01.644Z</time>
      </trkpt>
      <trkpt lat="43.00835" lon="0.16637">
        <ele>1066.089934</ele>
        <time>2026-03-22T08:38:11.667Z</time>
      </trkpt>
      <trkpt lat="43.00825" lon="0.16634">
        <ele>1067.602898</ele>
        <time>2026-03-22T08:38:20.665Z</time>
      </trkpt>
      <trkpt lat="43.00816" lon="0.16629">
        <ele>1069.168659</ele>
        <time>2026-03-22T08:38:27.663Z</time>
      </trkpt>
      <trkpt lat="43.00807" lon="0.16626">
        <ele>1070.644461</ele>
        <time>2026-03-22T08:38:34.683Z</time>
      </trkpt>
      <trkpt lat="43.00797" lon="0.16623">
        <ele>1072.274921</ele>
        <time>2026-03-22T08:38:41.663Z</time>
      </trkpt>
      <trkpt lat="43.00788" lon="0.16619">
        <ele>1073.827139</ele>
        <time>2026-03-22T08:38:50.718Z</time>
      </trkpt>
      <trkpt lat="43.00779" lon="0.16615">
        <ele>1075.339278</ele>
        <time>2026-03-22T08:38:59.667Z</time>
      </trkpt>
      <trkpt lat="43.0077" lon="0.16611">
        <ele>1076.827124</ele>
        <time>2026-03-22T08:39:07.663Z</time>
      </trkpt>
      <trkpt lat="43.00761" lon="0.16609">
        <ele>1078.285184</ele>
        <time>2026-03-22T08:39:16.661Z</time>
      </trkpt>
      <trkpt lat="43.00751" lon="0.16606">
        <ele>1079.854751</ele>
        <time>2026-03-22T08:39:26.674Z</time>
      </trkpt>
      <trkpt lat="43.00742" lon="0.16602">
        <ele>1081.434598</ele>
        <time>2026-03-22T08:39:35.660Z</time>
      </trkpt>
      <trkpt lat="43.00732" lon="0.166">
        <ele>1082.989625</ele>
        <time>2026-03-22T08:39:43.661Z</time>
      </trkpt>
      <trkpt lat="43.00722" lon="0.16601">
        <ele>1084.568128</ele>
        <time>2026-03-22T08:39:51.657Z</time>
      </trkpt>
      <trkpt lat="43.00713" lon="0.16603">
        <ele>1085.959309</ele>
        <time>2026-03-22T08:39:59.690Z</time>
      </trkpt>
      <trkpt lat="43.00704" lon="0.16605">
        <ele>1087.174121</ele>
        <time>2026-03-22T08:40:07.538Z</time>
      </trkpt>
      <trkpt lat="43.00693" lon="0.16607">
        <ele>1088.491492</ele>
        <time>2026-03-22T08:40:15.544Z</time>
      </trkpt>
      <trkpt lat="43.00684" lon="0.16609">
        <ele>1089.707707</ele>
        <time>2026-03-22T08:40:22.530Z</time>
      </trkpt>
      <trkpt lat="43.00675" lon="0.16612">
        <ele>1090.950138</ele>
        <time>2026-03-22T08:40:30.542Z</time>
      </trkpt>
      <trkpt lat="43.00681" lon="0.16621">
        <ele>1092.184051</ele>
        <time>2026-03-22T08:40:48.550Z</time>
      </trkpt>
      <trkpt lat="43.0069" lon="0.16625">
        <ele>1093.400487</ele>
        <time>2026-03-22T08:40:55.547Z</time>
      </trkpt>
      <trkpt lat="43.00699" lon="0.16632">
        <ele>1094.650143</ele>
        <time>2026-03-22T08:41:02.552Z</time>
      </trkpt>
      <trkpt lat="43.00707" lon="0.16638">
        <ele>1095.830383</ele>
        <time>2026-03-22T08:41:09.554Z</time>
      </trkpt>
      <trkpt lat="43.00715" lon="0.16645">
        <ele>1097.065486</ele>
        <time>2026-03-22T08:41:18.546Z</time>
      </trkpt>
      <trkpt lat="43.00722" lon="0.16655">
        <ele>1098.315003</ele>
        <time>2026-03-22T08:41:25.572Z</time>
      </trkpt>
      <trkpt lat="43.0073" lon="0.16663">
        <ele>1099.592406</ele>
        <time>2026-03-22T08:41:33.555Z</time>
      </trkpt>
      <trkpt lat="43.00737" lon="0.16672">
        <ele>1100.815337</ele>
        <time>2026-03-22T08:41:40.551Z</time>
      </trkpt>
      <trkpt lat="43.00743" lon="0.16682">
        <ele>1102.046462</ele>
        <time>2026-03-22T08:41:47.551Z</time>
      </trkpt>
      <trkpt lat="43.00748" lon="0.16692">
        <ele>1103.223758</ele>
        <time>2026-03-22T08:41:55.543Z</time>
      </trkpt>
      <trkpt lat="43.00754" lon="0.16703">
        <ele>1104.491588</ele>
        <time>2026-03-22T08:42:03.539Z</time>
      </trkpt>
      <trkpt lat="43.00745" lon="0.16706">
        <ele>1105.662125</ele>
        <time>2026-03-22T08:42:19.575Z</time>
      </trkpt>
      <trkpt lat="43.00736" lon="0.16701">
        <ele>1106.862786</ele>
        <time>2026-03-22T08:42:27.541Z</time>
      </trkpt>
      <trkpt lat="43.00727" lon="0.16702">
        <ele>1108.039121</ele>
        <time>2026-03-22T08:42:35.558Z</time>
      </trkpt>
      <trkpt lat="43.00717" lon="0.16705">
        <ele>1109.626379</ele>
        <time>2026-03-22T08:42:44.522Z</time>
      </trkpt>
      <trkpt lat="43.00708" lon="0.16708">
        <ele>1111.380353</ele>
        <time>2026-03-22T08:42:52.548Z</time>
      </trkpt>
      <trkpt lat="43.00692" lon="0.16719">
        <ele>1114.426769</ele>
        <time>2026-03-22T08:44:31.553Z</time>
      </trkpt>
      <trkpt lat="43.00683" lon="0.16724">
        <ele>1116.275944</ele>
        <time>2026-03-22T08:44:37.541Z</time>
      </trkpt>
      <trkpt lat="43.00674" lon="0.1673">
        <ele>1118.007135</ele>
        <time>2026-03-22T08:44:43.532Z</time>
      </trkpt>
      <trkpt lat="43.00665" lon="0.16737">
        <ele>1119.841652</ele>
        <time>2026-03-22T08:44:50.576Z</time>
      </trkpt>
      <trkpt lat="43.00657" lon="0.16746">
        <ele>1121.656609</ele>
        <time>2026-03-22T08:44:57.549Z</time>
      </trkpt>
      <trkpt lat="43.00649" lon="0.16752">
        <ele>1123.308442</ele>
        <time>2026-03-22T08:45:04.552Z</time>
      </trkpt>
      <trkpt lat="43.00639" lon="0.16752">
        <ele>1125.155408</ele>
        <time>2026-03-22T08:45:11.524Z</time>
      </trkpt>
      <trkpt lat="43.0063" lon="0.16747">
        <ele>1126.816088</ele>
        <time>2026-03-22T08:45:16.532Z</time>
      </trkpt>
      <trkpt lat="43.00622" lon="0.16743">
        <ele>1128.45779</ele>
        <time>2026-03-22T08:45:22.552Z</time>
      </trkpt>
      <trkpt lat="43.00612" lon="0.16743">
        <ele>1130.17939</ele>
        <time>2026-03-22T08:45:30.543Z</time>
      </trkpt>
      <trkpt lat="43.00604" lon="0.1675">
        <ele>1131.955657</ele>
        <time>2026-03-22T08:45:38.553Z</time>
      </trkpt>
      <trkpt lat="43.00595" lon="0.16756">
        <ele>1133.6709</ele>
        <time>2026-03-22T08:45:54.544Z</time>
      </trkpt>
      <trkpt lat="43.00587" lon="0.16763">
        <ele>1135.313338</ele>
        <time>2026-03-22T08:46:08.544Z</time>
      </trkpt>
      <trkpt lat="43.00578" lon="0.16765">
        <ele>1137.000578</ele>
        <time>2026-03-22T08:46:18.595Z</time>
      </trkpt>
      <trkpt lat="43.0057" lon="0.16771">
        <ele>1138.652415</ele>
        <time>2026-03-22T08:46:30.557Z</time>
      </trkpt>
      <trkpt lat="43.00562" lon="0.16777">
        <ele>1140.284397</ele>
        <time>2026-03-22T08:46:41.538Z</time>
      </trkpt>
      <trkpt lat="43.00553" lon="0.16782">
        <ele>1142.285906</ele>
        <time>2026-03-22T08:46:51.546Z</time>
      </trkpt>
      <trkpt lat="43.00545" lon="0.16788">
        <ele>1144.534588</ele>
        <time>2026-03-22T08:47:02.564Z</time>
      </trkpt>
      <trkpt lat="43.00537" lon="0.16794">
        <ele>1146.804511</ele>
        <time>2026-03-22T08:47:15.552Z</time>
      </trkpt>
      <trkpt lat="43.00527" lon="0.16796">
        <ele>1149.138728</ele>
        <time>2026-03-22T08:47:28.553Z</time>
      </trkpt>
      <trkpt lat="43.00518" lon="0.16799">
        <ele>1151.349844</ele>
        <time>2026-03-22T08:47:39.556Z</time>
      </trkpt>
      <trkpt lat="43.00509" lon="0.16802">
        <ele>1153.557484</ele>
        <time>2026-03-22T08:47:49.545Z</time>
      </trkpt>
      <trkpt lat="43.005" lon="0.16807">
        <ele>1155.963309</ele>
        <time>2026-03-22T08:48:02.556Z</time>
      </trkpt>
      <trkpt lat="43.00491" lon="0.16813">
        <ele>1158.270769</ele>
        <time>2026-03-22T08:48:14.560Z</time>
      </trkpt>
      <trkpt lat="43.00485" lon="0.16821">
        <ele>1160.444836</ele>
        <time>2026-03-22T08:48:25.529Z</time>
      </trkpt>
      <trkpt lat="43.00478" lon="0.16829">
        <ele>1162.669428</ele>
        <time>2026-03-22T08:48:35.528Z</time>
      </trkpt>
      <trkpt lat="43.00469" lon="0.16834">
        <ele>1164.995857</ele>
        <time>2026-03-22T08:48:48.545Z</time>
      </trkpt>
      <trkpt lat="43.0046" lon="0.16837">
        <ele>1167.184664</ele>
        <time>2026-03-22T08:48:58.551Z</time>
      </trkpt>
      <trkpt lat="43.00451" lon="0.1684">
        <ele>1169.373471</ele>
        <time>2026-03-22T08:49:09.543Z</time>
      </trkpt>
      <trkpt lat="43.00442" lon="0.16843">
        <ele>1171.618472</ele>
        <time>2026-03-22T08:49:21.543Z</time>
      </trkpt>
      <trkpt lat="43.00433" lon="0.16846">
        <ele>1173.802828</ele>
        <time>2026-03-22T08:49:34.546Z</time>
      </trkpt>
      <trkpt lat="43.00424" lon="0.16849">
        <ele>1176.126153</ele>
        <time>2026-03-22T08:49:50.554Z</time>
      </trkpt>
      <trkpt lat="43.00415" lon="0.16853">
        <ele>1178.309681</ele>
        <time>2026-03-22T08:50:03.534Z</time>
      </trkpt>
      <trkpt lat="43.00406" lon="0.16858">
        <ele>1180.61923</ele>
        <time>2026-03-22T08:50:16.548Z</time>
      </trkpt>
      <trkpt lat="43.00398" lon="0.16863">
        <ele>1182.807584</ele>
        <time>2026-03-22T08:50:29.552Z</time>
      </trkpt>
      <trkpt lat="43.0039" lon="0.16869">
        <ele>1184.869384</ele>
        <time>2026-03-22T08:50:41.552Z</time>
      </trkpt>
      <trkpt lat="43.00382" lon="0.16876">
        <ele>1186.793933</ele>
        <time>2026-03-22T08:50:54.566Z</time>
      </trkpt>
      <trkpt lat="43.00372" lon="0.16878">
        <ele>1188.899816</ele>
        <time>2026-03-22T08:51:09.536Z</time>
      </trkpt>
      <trkpt lat="43.00364" lon="0.16883">
        <ele>1190.875357</ele>
        <time>2026-03-22T08:51:20.565Z</time>
      </trkpt>
      <trkpt lat="43.00355" lon="0.16888">
        <ele>1192.912376</ele>
        <time>2026-03-22T08:51:38.533Z</time>
      </trkpt>
      <trkpt lat="43.00346" lon="0.16894">
        <ele>1194.857854</ele>
        <time>2026-03-22T08:51:49.550Z</time>
      </trkpt>
      <trkpt lat="43.00337" lon="0.16895">
        <ele>1196.790644</ele>
        <time>2026-03-22T08:52:00.568Z</time>
      </trkpt>
      <trkpt lat="43.00328" lon="0.16899">
        <ele>1198.902601</ele>
        <time>2026-03-22T08:52:09.542Z</time>
      </trkpt>
      <trkpt lat="43.0032" lon="0.16907">
        <ele>1200.909235</ele>
        <time>2026-03-22T08:52:22.552Z</time>
      </trkpt>
      <trkpt lat="43.00291" lon="0.16908">
        <ele>1206.919143</ele>
        <time>2026-03-22T08:53:27.500Z</time>
      </trkpt>
      <trkpt lat="43.00282" lon="0.16908">
        <ele>1208.892776</ele>
        <time>2026-03-22T08:53:30.474Z</time>
      </trkpt>
      <trkpt lat="43.00273" lon="0.16907">
        <ele>1210.812285</ele>
        <time>2026-03-22T08:53:34.482Z</time>
      </trkpt>
      <trkpt lat="43.00257" lon="0.16905">
        <ele>1214.244589</ele>
        <time>2026-03-22T08:53:57.493Z</time>
      </trkpt>
      <trkpt lat="43.00248" lon="0.16906">
        <ele>1216.137293</ele>
        <time>2026-03-22T08:54:10.481Z</time>
      </trkpt>
      <trkpt lat="43.00239" lon="0.16907">
        <ele>1218.056802</ele>
        <time>2026-03-22T08:54:17.475Z</time>
      </trkpt>
      <trkpt lat="43.00229" lon="0.16909">
        <ele>1220.051881</ele>
        <time>2026-03-22T08:54:25.483Z</time>
      </trkpt>
      <trkpt lat="43.0022" lon="0.16911">
        <ele>1221.96436</ele>
        <time>2026-03-22T08:54:40.494Z</time>
      </trkpt>
      <trkpt lat="43.00211" lon="0.16913">
        <ele>1222.93691</ele>
        <time>2026-03-22T08:54:54.484Z</time>
      </trkpt>
      <trkpt lat="43.00202" lon="0.16914">
        <ele>1223.918555</ele>
        <time>2026-03-22T08:55:03.485Z</time>
      </trkpt>
      <trkpt lat="43.00193" lon="0.16916">
        <ele>1224.882802</ele>
        <time>2026-03-22T08:55:14.484Z</time>
      </trkpt>
      <trkpt lat="43.00184" lon="0.16918">
        <ele>1225.86509</ele>
        <time>2026-03-22T08:55:26.484Z</time>
      </trkpt>
      <trkpt lat="43.00174" lon="0.16919">
        <ele>1226.87788</ele>
        <time>2026-03-22T08:55:43.485Z</time>
      </trkpt>
      <trkpt lat="43.00164" lon="0.16921">
        <ele>1227.937526</ele>
        <time>2026-03-22T08:55:52.484Z</time>
      </trkpt>
      <trkpt lat="43.00155" lon="0.16919">
        <ele>1228.903266</ele>
        <time>2026-03-22T08:56:02.517Z</time>
      </trkpt>
      <trkpt lat="43.00146" lon="0.16918">
        <ele>1229.894862</ele>
        <time>2026-03-22T08:56:13.509Z</time>
      </trkpt>
      <trkpt lat="43.00139" lon="0.16945">
        <ele>1232.08516</ele>
        <time>2026-03-22T08:57:05.481Z</time>
      </trkpt>
      <trkpt lat="43.00131" lon="0.16953">
        <ele>1233.086765</ele>
        <time>2026-03-22T08:57:12.491Z</time>
      </trkpt>
      <trkpt lat="43.00111" lon="0.16967">
        <ele>1235.508211</ele>
        <time>2026-03-22T09:02:14.488Z</time>
      </trkpt>
      <trkpt lat="43.00101" lon="0.16968">
        <ele>1236.552799</ele>
        <time>2026-03-22T09:02:17.485Z</time>
      </trkpt>
      <trkpt lat="43.00091" lon="0.16969">
        <ele>1237.674191</ele>
        <time>2026-03-22T09:02:22.475Z</time>
      </trkpt>
      <trkpt lat="43.00081" lon="0.16969">
        <ele>1238.758846</ele>
        <time>2026-03-22T09:02:27.483Z</time>
      </trkpt>
      <trkpt lat="43.00071" lon="0.16967">
        <ele>1239.832009</ele>
        <time>2026-03-22T09:02:31.484Z</time>
      </trkpt>
      <trkpt lat="43.00061" lon="0.16967">
        <ele>1240.863188</ele>
        <time>2026-03-22T09:02:36.493Z</time>
      </trkpt>
      <trkpt lat="43.00045" lon="0.16985">
        <ele>1241.815613</ele>
        <time>2026-03-22T09:04:02.252Z</time>
      </trkpt>
      <trkpt lat="43.00041" lon="0.16999">
        <ele>1242.242206</ele>
        <time>2026-03-22T09:04:07.237Z</time>
      </trkpt>
      <trkpt lat="43.00039" lon="0.17011">
        <ele>1242.612146</ele>
        <time>2026-03-22T09:04:12.225Z</time>
      </trkpt>
      <trkpt lat="43.00036" lon="0.17022">
        <ele>1242.974794</ele>
        <time>2026-03-22T09:04:17.244Z</time>
      </trkpt>
      <trkpt lat="43.00032" lon="0.17034">
        <ele>1243.352292</ele>
        <time>2026-03-22T09:04:22.228Z</time>
      </trkpt>
      <trkpt lat="43.00027" lon="0.17044">
        <ele>1243.720186</ele>
        <time>2026-03-22T09:04:28.245Z</time>
      </trkpt>
      <trkpt lat="43.0002" lon="0.17054">
        <ele>1244.126636</ele>
        <time>2026-03-22T09:04:34.222Z</time>
      </trkpt>
      <trkpt lat="43.00017" lon="0.17067">
        <ele>1244.518475</ele>
        <time>2026-03-22T09:04:39.228Z</time>
      </trkpt>
      <trkpt lat="43.00013" lon="0.17079">
        <ele>1244.924903</ele>
        <time>2026-03-22T09:04:43.232Z</time>
      </trkpt>
      <trkpt lat="43.00008" lon="0.1709">
        <ele>1245.292685</ele>
        <time>2026-03-22T09:04:46.255Z</time>
      </trkpt>
      <trkpt lat="43.00005" lon="0.17104">
        <ele>1245.728998</ele>
        <time>2026-03-22T09:04:50.225Z</time>
      </trkpt>
      <trkpt lat="43" lon="0.17117">
        <ele>1246.14751</ele>
        <time>2026-03-22T09:04:54.263Z</time>
      </trkpt>
      <trkpt lat="42.99995" lon="0.17128">
        <ele>1246.539298</ele>
        <time>2026-03-22T09:04:58.242Z</time>
      </trkpt>
      <trkpt lat="42.99989" lon="0.1714">
        <ele>1246.976404</ele>
        <time>2026-03-22T09:05:03.227Z</time>
      </trkpt>
      <trkpt lat="42.99983" lon="0.17153">
        <ele>1247.423769</ele>
        <time>2026-03-22T09:05:08.246Z</time>
      </trkpt>
      <trkpt lat="42.99976" lon="0.17162">
        <ele>1247.793084</ele>
        <time>2026-03-22T09:05:12.251Z</time>
      </trkpt>
      <trkpt lat="42.99972" lon="0.17173">
        <ele>1248.18685</ele>
        <time>2026-03-22T09:05:16.225Z</time>
      </trkpt>
      <trkpt lat="42.99967" lon="0.17184">
        <ele>1248.73735</ele>
        <time>2026-03-22T09:05:20.230Z</time>
      </trkpt>
      <trkpt lat="42.99961" lon="0.17196">
        <ele>1249.42185</ele>
        <time>2026-03-22T09:05:24.226Z</time>
      </trkpt>
      <trkpt lat="42.99953" lon="0.17207">
        <ele>1250.162634</ele>
        <time>2026-03-22T09:05:28.226Z</time>
      </trkpt>
      <trkpt lat="42.99943" lon="0.17216">
        <ele>1250.886947</ele>
        <time>2026-03-22T09:05:32.259Z</time>
      </trkpt>
      <trkpt lat="42.99935" lon="0.17223">
        <ele>1251.547221</ele>
        <time>2026-03-22T09:05:36.223Z</time>
      </trkpt>
      <trkpt lat="42.99926" lon="0.1723">
        <ele>1252.205764</ele>
        <time>2026-03-22T09:05:40.230Z</time>
      </trkpt>
      <trkpt lat="42.99915" lon="0.17228">
        <ele>1252.916554</ele>
        <time>2026-03-22T09:05:45.256Z</time>
      </trkpt>
      <trkpt lat="42.99907" lon="0.17224">
        <ele>1253.506874</ele>
        <time>2026-03-22T09:05:50.225Z</time>
      </trkpt>
      <trkpt lat="42.99897" lon="0.1722">
        <ele>1254.157424</ele>
        <time>2026-03-22T09:05:55.250Z</time>
      </trkpt>
      <trkpt lat="42.99888" lon="0.17216">
        <ele>1254.791035</ele>
        <time>2026-03-22T09:06:00.224Z</time>
      </trkpt>
      <trkpt lat="42.9988" lon="0.17208">
        <ele>1255.442499</ele>
        <time>2026-03-22T09:06:06.239Z</time>
      </trkpt>
      <trkpt lat="42.99873" lon="0.172">
        <ele>1256.052079</ele>
        <time>2026-03-22T09:06:12.226Z</time>
      </trkpt>
      <trkpt lat="42.99867" lon="0.17189">
        <ele>1256.678385</ele>
        <time>2026-03-22T09:06:19.237Z</time>
      </trkpt>
      <trkpt lat="42.99861" lon="0.17179">
        <ele>1257.28152</ele>
        <time>2026-03-22T09:06:26.276Z</time>
      </trkpt>
      <trkpt lat="42.99856" lon="0.17168">
        <ele>1257.91962</ele>
        <time>2026-03-22T09:06:33.291Z</time>
      </trkpt>
      <trkpt lat="42.99851" lon="0.17156">
        <ele>1258.561153</ele>
        <time>2026-03-22T09:06:41.225Z</time>
      </trkpt>
      <trkpt lat="42.99845" lon="0.17145">
        <ele>1259.222131</ele>
        <time>2026-03-22T09:06:49.235Z</time>
      </trkpt>
      <trkpt lat="42.99839" lon="0.17136">
        <ele>1259.83544</ele>
        <time>2026-03-22T09:06:56.225Z</time>
      </trkpt>
      <trkpt lat="42.99833" lon="0.17126">
        <ele>1260.796764</ele>
        <time>2026-03-22T09:07:03.261Z</time>
      </trkpt>
      <trkpt lat="42.99826" lon="0.17119">
        <ele>1262.109357</ele>
        <time>2026-03-22T09:07:10.224Z</time>
      </trkpt>
      <trkpt lat="42.99817" lon="0.17117">
        <ele>1263.393222</ele>
        <time>2026-03-22T09:07:17.252Z</time>
      </trkpt>
      <trkpt lat="42.99807" lon="0.17113">
        <ele>1264.837389</ele>
        <time>2026-03-22T09:07:24.258Z</time>
      </trkpt>
      <trkpt lat="42.99798" lon="0.17112">
        <ele>1266.090613</ele>
        <time>2026-03-22T09:07:32.245Z</time>
      </trkpt>
      <trkpt lat="42.99788" lon="0.17109">
        <ele>1267.430708</ele>
        <time>2026-03-22T09:07:40.224Z</time>
      </trkpt>
      <trkpt lat="42.99779" lon="0.17106">
        <ele>1268.819365</ele>
        <time>2026-03-22T09:07:47.230Z</time>
      </trkpt>
      <trkpt lat="42.99769" lon="0.17104">
        <ele>1270.22571</ele>
        <time>2026-03-22T09:07:53.225Z</time>
      </trkpt>
      <trkpt lat="42.99759" lon="0.17104">
        <ele>1271.606095</ele>
        <time>2026-03-22T09:08:00.231Z</time>
      </trkpt>
      <trkpt lat="42.99749" lon="0.17101">
        <ele>1272.993685</ele>
        <time>2026-03-22T09:08:08.245Z</time>
      </trkpt>
      <trkpt lat="42.99741" lon="0.17095">
        <ele>1274.306283</ele>
        <time>2026-03-22T09:08:16.223Z</time>
      </trkpt>
      <trkpt lat="42.99732" lon="0.1709">
        <ele>1275.609326</ele>
        <time>2026-03-22T09:08:24.250Z</time>
      </trkpt>
      <trkpt lat="42.99724" lon="0.17083">
        <ele>1276.995766</ele>
        <time>2026-03-22T09:08:33.257Z</time>
      </trkpt>
      <trkpt lat="42.99716" lon="0.17075">
        <ele>1278.387648</ele>
        <time>2026-03-22T09:08:42.226Z</time>
      </trkpt>
      <trkpt lat="42.99709" lon="0.17065">
        <ele>1279.677218</ele>
        <time>2026-03-22T09:08:50.254Z</time>
      </trkpt>
      <trkpt lat="42.99704" lon="0.17053">
        <ele>1281.082392</ele>
        <time>2026-03-22T09:09:00.250Z</time>
      </trkpt>
      <trkpt lat="42.99701" lon="0.17042">
        <ele>1282.359946</ele>
        <time>2026-03-22T09:09:09.227Z</time>
      </trkpt>
      <trkpt lat="42.99697" lon="0.17029">
        <ele>1283.773254</ele>
        <time>2026-03-22T09:09:18.226Z</time>
      </trkpt>
      <trkpt lat="42.99692" lon="0.17018">
        <ele>1285.017085</ele>
        <time>2026-03-22T09:09:27.245Z</time>
      </trkpt>
      <trkpt lat="42.99687" lon="0.17008">
        <ele>1286.463544</ele>
        <time>2026-03-22T09:09:37.268Z</time>
      </trkpt>
      <trkpt lat="42.99678" lon="0.17004">
        <ele>1288.005414</ele>
        <time>2026-03-22T09:09:46.224Z</time>
      </trkpt>
      <trkpt lat="42.99669" lon="0.17001">
        <ele>1289.450379</ele>
        <time>2026-03-22T09:09:53.263Z</time>
      </trkpt>
      <trkpt lat="42.9966" lon="0.16995">
        <ele>1290.969775</ele>
        <time>2026-03-22T09:10:02.234Z</time>
      </trkpt>
      <trkpt lat="42.99651" lon="0.1699">
        <ele>1292.594707</ele>
        <time>2026-03-22T09:10:12.238Z</time>
      </trkpt>
      <trkpt lat="42.99642" lon="0.16984">
        <ele>1294.138501</ele>
        <time>2026-03-22T09:10:22.227Z</time>
      </trkpt>
      <trkpt lat="42.99633" lon="0.16977">
        <ele>1295.755139</ele>
        <time>2026-03-22T09:10:32.227Z</time>
      </trkpt>
      <trkpt lat="42.99626" lon="0.16968">
        <ele>1297.294165</ele>
        <time>2026-03-22T09:10:41.256Z</time>
      </trkpt>
      <trkpt lat="42.99619" lon="0.16959">
        <ele>1298.806684</ele>
        <time>2026-03-22T09:10:49.241Z</time>
      </trkpt>
      <trkpt lat="42.99614" lon="0.16948">
        <ele>1300.336379</ele>
        <time>2026-03-22T09:10:57.225Z</time>
      </trkpt>
      <trkpt lat="42.99608" lon="0.16938">
        <ele>1301.875883</ele>
        <time>2026-03-22T09:11:04.258Z</time>
      </trkpt>
      <trkpt lat="42.99604" lon="0.16926">
        <ele>1303.32865</ele>
        <time>2026-03-22T09:11:12.227Z</time>
      </trkpt>
      <trkpt lat="42.99599" lon="0.16915">
        <ele>1304.883331</ele>
        <time>2026-03-22T09:11:20.274Z</time>
      </trkpt>
      <trkpt lat="42.99594" lon="0.16903">
        <ele>1306.489663</ele>
        <time>2026-03-22T09:11:28.235Z</time>
      </trkpt>
      <trkpt lat="42.99587" lon="0.16895">
        <ele>1307.973901</ele>
        <time>2026-03-22T09:11:34.225Z</time>
      </trkpt>
      <trkpt lat="42.99578" lon="0.16889">
        <ele>1309.466401</ele>
        <time>2026-03-22T09:11:42.225Z</time>
      </trkpt>
      <trkpt lat="42.99572" lon="0.16879">
        <ele>1311.020229</ele>
        <time>2026-03-22T09:11:50.227Z</time>
      </trkpt>
      <trkpt lat="42.99566" lon="0.16869">
        <ele>1312.493687</ele>
        <time>2026-03-22T09:11:58.225Z</time>
      </trkpt>
      <trkpt lat="42.9956" lon="0.1686">
        <ele>1313.926844</ele>
        <time>2026-03-22T09:12:07.261Z</time>
      </trkpt>
      <trkpt lat="42.99552" lon="0.16851">
        <ele>1315.443549</ele>
        <time>2026-03-22T09:12:15.226Z</time>
      </trkpt>
      <trkpt lat="42.99545" lon="0.16844">
        <ele>1316.819271</ele>
        <time>2026-03-22T09:12:23.255Z</time>
      </trkpt>
      <trkpt lat="42.99536" lon="0.16841">
        <ele>1318.202858</ele>
        <time>2026-03-22T09:12:31.249Z</time>
      </trkpt>
      <trkpt lat="42.99527" lon="0.16838">
        <ele>1319.671874</ele>
        <time>2026-03-22T09:12:38.227Z</time>
      </trkpt>
      <trkpt lat="42.99519" lon="0.16831">
        <ele>1321.129479</ele>
        <time>2026-03-22T09:12:47.224Z</time>
      </trkpt>
      <trkpt lat="42.99511" lon="0.16823">
        <ele>1322.542329</ele>
        <time>2026-03-22T09:12:56.245Z</time>
      </trkpt>
      <trkpt lat="42.99503" lon="0.1682">
        <ele>1323.927891</ele>
        <time>2026-03-22T09:13:04.226Z</time>
      </trkpt>
      <trkpt lat="42.99495" lon="0.16812">
        <ele>1325.348235</ele>
        <time>2026-03-22T09:13:13.224Z</time>
      </trkpt>
      <trkpt lat="42.99486" lon="0.16806">
        <ele>1326.876073</ele>
        <time>2026-03-22T09:13:22.227Z</time>
      </trkpt>
      <trkpt lat="42.9948" lon="0.16798">
        <ele>1328.290033</ele>
        <time>2026-03-22T09:13:30.249Z</time>
      </trkpt>
      <trkpt lat="42.99476" lon="0.16786">
        <ele>1329.757803</ele>
        <time>2026-03-22T09:13:39.252Z</time>
      </trkpt>
      <trkpt lat="42.99482" lon="0.16776">
        <ele>1331.251077</ele>
        <time>2026-03-22T09:13:48.257Z</time>
      </trkpt>
      <trkpt lat="42.99488" lon="0.16765">
        <ele>1332.773376</ele>
        <time>2026-03-22T09:13:56.254Z</time>
      </trkpt>
      <trkpt lat="42.99492" lon="0.16753">
        <ele>1334.241142</ele>
        <time>2026-03-22T09:14:04.269Z</time>
      </trkpt>
      <trkpt lat="42.99495" lon="0.16742">
        <ele>1335.633432</ele>
        <time>2026-03-22T09:14:11.245Z</time>
      </trkpt>
      <trkpt lat="42.99487" lon="0.16735">
        <ele>1337.084894</ele>
        <time>2026-03-22T09:14:24.225Z</time>
      </trkpt>
      <trkpt lat="42.99478" lon="0.16736">
        <ele>1338.498364</ele>
        <time>2026-03-22T09:14:32.250Z</time>
      </trkpt>
      <trkpt lat="42.99468" lon="0.16736">
        <ele>1340.034025</ele>
        <time>2026-03-22T09:14:41.432Z</time>
      </trkpt>
      <trkpt lat="42.99454" lon="0.1671">
        <ele>1345.105016</ele>
        <time>2026-03-22T09:19:13.456Z</time>
      </trkpt>
      <trkpt lat="42.99445" lon="0.16705">
        <ele>1347.587648</ele>
        <time>2026-03-22T09:19:23.450Z</time>
      </trkpt>
      <trkpt lat="42.99436" lon="0.16702">
        <ele>1349.995229</ele>
        <time>2026-03-22T09:19:34.438Z</time>
      </trkpt>
      <trkpt lat="42.99428" lon="0.16695">
        <ele>1352.282942</ele>
        <time>2026-03-22T09:19:45.436Z</time>
      </trkpt>
      <trkpt lat="42.99423" lon="0.16685">
        <ele>1354.593396</ele>
        <time>2026-03-22T09:19:55.434Z</time>
      </trkpt>
      <trkpt lat="42.99415" lon="0.16678">
        <ele>1356.922943</ele>
        <time>2026-03-22T09:20:12.435Z</time>
      </trkpt>
      <trkpt lat="42.99407" lon="0.1667">
        <ele>1359.408654</ele>
        <time>2026-03-22T09:20:29.442Z</time>
      </trkpt>
      <trkpt lat="42.994" lon="0.16663">
        <ele>1361.831627</ele>
        <time>2026-03-22T09:20:44.439Z</time>
      </trkpt>
      <trkpt lat="42.99393" lon="0.16654">
        <ele>1364.102423</ele>
        <time>2026-03-22T09:21:01.443Z</time>
      </trkpt>
      <trkpt lat="42.99377" lon="0.16634">
        <ele>1369.768046</ele>
        <time>2026-03-22T09:23:04.462Z</time>
      </trkpt>
      <trkpt lat="42.99369" lon="0.16625">
        <ele>1372.20444</ele>
        <time>2026-03-22T09:23:16.437Z</time>
      </trkpt>
      <trkpt lat="42.99361" lon="0.16617">
        <ele>1374.764071</ele>
        <time>2026-03-22T09:23:36.414Z</time>
      </trkpt>
      <trkpt lat="42.99354" lon="0.16609">
        <ele>1377.235622</ele>
        <time>2026-03-22T09:23:49.442Z</time>
      </trkpt>
      <trkpt lat="42.99347" lon="0.166">
        <ele>1379.626254</ele>
        <time>2026-03-22T09:24:02.459Z</time>
      </trkpt>
      <trkpt lat="42.9934" lon="0.16591">
        <ele>1381.967381</ele>
        <time>2026-03-22T09:24:17.463Z</time>
      </trkpt>
      <trkpt lat="42.99334" lon="0.1658">
        <ele>1384.53252</ele>
        <time>2026-03-22T09:24:34.410Z</time>
      </trkpt>
      <trkpt lat="42.99328" lon="0.16571">
        <ele>1386.892172</ele>
        <time>2026-03-22T09:24:47.437Z</time>
      </trkpt>
      <trkpt lat="42.99322" lon="0.16561">
        <ele>1389.654938</ele>
        <time>2026-03-22T09:25:01.422Z</time>
      </trkpt>
      <trkpt lat="42.99319" lon="0.16548">
        <ele>1392.590171</ele>
        <time>2026-03-22T09:25:15.420Z</time>
      </trkpt>
      <trkpt lat="42.99314" lon="0.16537">
        <ele>1395.364438</ele>
        <time>2026-03-22T09:25:29.428Z</time>
      </trkpt>
      <trkpt lat="42.99311" lon="0.16526">
        <ele>1398.116693</ele>
        <time>2026-03-22T09:25:42.412Z</time>
      </trkpt>
      <trkpt lat="42.99309" lon="0.16514">
        <ele>1400.931189</ele>
        <time>2026-03-22T09:25:58.431Z</time>
      </trkpt>
      <trkpt lat="42.99306" lon="0.16501">
        <ele>1403.784052</ele>
        <time>2026-03-22T09:26:11.408Z</time>
      </trkpt>
      <trkpt lat="42.99305" lon="0.16489">
        <ele>1406.55266</ele>
        <time>2026-03-22T09:26:24.435Z</time>
      </trkpt>
      <trkpt lat="42.99302" lon="0.16477">
        <ele>1409.388125</ele>
        <time>2026-03-22T09:26:36.417Z</time>
      </trkpt>
      <trkpt lat="42.99302" lon="0.16464">
        <ele>1412.238334</ele>
        <time>2026-03-22T09:26:52.442Z</time>
      </trkpt>
      <trkpt lat="42.99298" lon="0.16451">
        <ele>1415.131962</ele>
        <time>2026-03-22T09:27:09.429Z</time>
      </trkpt>
      <trkpt lat="42.99298" lon="0.16438">
        <ele>1418.035589</ele>
        <time>2026-03-22T09:27:24.419Z</time>
      </trkpt>
      <trkpt lat="42.99297" lon="0.16426">
        <ele>1420.919112</ele>
        <time>2026-03-22T09:27:39.424Z</time>
      </trkpt>
      <trkpt lat="42.9929" lon="0.16416">
        <ele>1423.745026</ele>
        <time>2026-03-22T09:27:56.435Z</time>
      </trkpt>
      <trkpt lat="42.99288" lon="0.16403">
        <ele>1426.804425</ele>
        <time>2026-03-22T09:28:07.415Z</time>
      </trkpt>
      <trkpt lat="42.99289" lon="0.1639">
        <ele>1429.624878</ele>
        <time>2026-03-22T09:28:21.413Z</time>
      </trkpt>
      <trkpt lat="42.99286" lon="0.16379">
        <ele>1432.332421</ele>
        <time>2026-03-22T09:28:40.421Z</time>
      </trkpt>
      <trkpt lat="42.99284" lon="0.16367">
        <ele>1435.068503</ele>
        <time>2026-03-22T09:28:50.424Z</time>
      </trkpt>
      <trkpt lat="42.99283" lon="0.16354">
        <ele>1437.818961</ele>
        <time>2026-03-22T09:29:01.407Z</time>
      </trkpt>
      <trkpt lat="42.99283" lon="0.16341">
        <ele>1440.745388</ele>
        <time>2026-03-22T09:29:12.400Z</time>
      </trkpt>
      <trkpt lat="42.99284" lon="0.16313">
        <ele>1446.49555</ele>
        <time>2026-03-22T09:29:41.433Z</time>
      </trkpt>
      <trkpt lat="42.99275" lon="0.16287">
        <ele>1452.469411</ele>
        <time>2026-03-22T09:32:00.426Z</time>
      </trkpt>
      <trkpt lat="42.99271" lon="0.16275">
        <ele>1455.00115</ele>
        <time>2026-03-22T09:32:14.425Z</time>
      </trkpt>
      <trkpt lat="42.99264" lon="0.16266">
        <ele>1457.608935</ele>
        <time>2026-03-22T09:32:27.423Z</time>
      </trkpt>
      <trkpt lat="42.99259" lon="0.16256">
        <ele>1460.177262</ele>
        <time>2026-03-22T09:32:41.420Z</time>
      </trkpt>
      <trkpt lat="42.99252" lon="0.16246">
        <ele>1462.80919</ele>
        <time>2026-03-22T09:32:55.418Z</time>
      </trkpt>
      <trkpt lat="42.99246" lon="0.16236">
        <ele>1465.395153</ele>
        <time>2026-03-22T09:33:07.391Z</time>
      </trkpt>
      <trkpt lat="42.99239" lon="0.16225">
        <ele>1468.547436</ele>
        <time>2026-03-22T09:33:38.414Z</time>
      </trkpt>
      <trkpt lat="42.99232" lon="0.16216">
        <ele>1471.061938</ele>
        <time>2026-03-22T09:33:47.423Z</time>
      </trkpt>
      <trkpt lat="42.99227" lon="0.16205">
        <ele>1473.746268</ele>
        <time>2026-03-22T09:33:58.432Z</time>
      </trkpt>
      <trkpt lat="42.9922" lon="0.16181">
        <ele>1478.919585</ele>
        <time>2026-03-22T09:34:30.434Z</time>
      </trkpt>
      <trkpt lat="42.99215" lon="0.1617">
        <ele>1481.659892</ele>
        <time>2026-03-22T09:34:46.432Z</time>
      </trkpt>
      <trkpt lat="42.99207" lon="0.16152">
        <ele>1485.924871</ele>
        <time>2026-03-22T09:35:13.417Z</time>
      </trkpt>
      <trkpt lat="42.99204" lon="0.16136">
        <ele>1489.238679</ele>
        <time>2026-03-22T09:35:36.399Z</time>
      </trkpt>
      <trkpt lat="42.99198" lon="0.16124">
        <ele>1491.808648</ele>
        <time>2026-03-22T09:35:45.417Z</time>
      </trkpt>
      <trkpt lat="42.99196" lon="0.16112">
        <ele>1493.36454</ele>
        <time>2026-03-22T09:35:56.412Z</time>
      </trkpt>
      <trkpt lat="42.99194" lon="0.16099">
        <ele>1495.028976</ele>
        <time>2026-03-22T09:36:08.412Z</time>
      </trkpt>
      <trkpt lat="42.99189" lon="0.16089">
        <ele>1496.578938</ele>
        <time>2026-03-22T09:36:20.631Z</time>
      </trkpt>
      <trkpt lat="42.99186" lon="0.16076">
        <ele>1498.259526</ele>
        <time>2026-03-22T09:36:32.607Z</time>
      </trkpt>
      <trkpt lat="42.99184" lon="0.16063">
        <ele>1499.839428</ele>
        <time>2026-03-22T09:36:42.669Z</time>
      </trkpt>
      <trkpt lat="42.99179" lon="0.16053">
        <ele>1501.428749</ele>
        <time>2026-03-22T09:36:55.625Z</time>
      </trkpt>
      <trkpt lat="42.99175" lon="0.1604">
        <ele>1503.072311</ele>
        <time>2026-03-22T09:37:09.624Z</time>
      </trkpt>
      <trkpt lat="42.9917" lon="0.16031">
        <ele>1504.599203</ele>
        <time>2026-03-22T09:37:21.613Z</time>
      </trkpt>
      <trkpt lat="42.99168" lon="0.16019">
        <ele>1506.146799</ele>
        <time>2026-03-22T09:37:37.615Z</time>
      </trkpt>
      <trkpt lat="42.99164" lon="0.16006">
        <ele>1507.806312</ele>
        <time>2026-03-22T09:37:46.608Z</time>
      </trkpt>
      <trkpt lat="42.99159" lon="0.15995">
        <ele>1509.505742</ele>
        <time>2026-03-22T09:37:53.590Z</time>
      </trkpt>
      <trkpt lat="42.99155" lon="0.15982">
        <ele>1511.16264</ele>
        <time>2026-03-22T09:38:07.589Z</time>
      </trkpt>
      <trkpt lat="42.99151" lon="0.15971">
        <ele>1512.810901</ele>
        <time>2026-03-22T09:38:17.640Z</time>
      </trkpt>
      <trkpt lat="42.99146" lon="0.1596">
        <ele>1514.385511</ele>
        <time>2026-03-22T09:38:30.619Z</time>
      </trkpt>
      <trkpt lat="42.99139" lon="0.15934">
        <ele>1517.798659</ele>
        <time>2026-03-22T09:39:40.610Z</time>
      </trkpt>
      <trkpt lat="42.99132" lon="0.1592">
        <ele>1519.878211</ele>
        <time>2026-03-22T09:49:39.603Z</time>
      </trkpt>
      <trkpt lat="42.99129" lon="0.15907">
        <ele>1521.603494</ele>
        <time>2026-03-22T09:49:45.550Z</time>
      </trkpt>
      <trkpt lat="42.99132" lon="0.15896">
        <ele>1520.150621</ele>
        <time>2026-03-22T09:49:50.552Z</time>
      </trkpt>
      <trkpt lat="42.99142" lon="0.15892">
        <ele>1517.446568</ele>
        <time>2026-03-22T09:49:55.552Z</time>
      </trkpt>
      <trkpt lat="42.99151" lon="0.15882">
        <ele>1514.535502</ele>
        <time>2026-03-22T09:50:01.538Z</time>
      </trkpt>
      <trkpt lat="42.99153" lon="0.15869">
        <ele>1511.954875</ele>
        <time>2026-03-22T09:50:06.554Z</time>
      </trkpt>
      <trkpt lat="42.99154" lon="0.15856">
        <ele>1509.429818</ele>
        <time>2026-03-22T09:50:09.552Z</time>
      </trkpt>
      <trkpt lat="42.99159" lon="0.15845">
        <ele>1506.943106</ele>
        <time>2026-03-22T09:50:12.543Z</time>
      </trkpt>
      <trkpt lat="42.9916" lon="0.15832">
        <ele>1504.381432</ele>
        <time>2026-03-22T09:50:16.553Z</time>
      </trkpt>
      <trkpt lat="42.99168" lon="0.15824">
        <ele>1501.707346</ele>
        <time>2026-03-22T09:50:25.559Z</time>
      </trkpt>
      <trkpt lat="42.99178" lon="0.15817">
        <ele>1498.693733</ele>
        <time>2026-03-22T09:50:30.555Z</time>
      </trkpt>
      <trkpt lat="42.99175" lon="0.15806">
        <ele>1496.298562</ele>
        <time>2026-03-22T09:50:44.524Z</time>
      </trkpt>
      <trkpt lat="42.99181" lon="0.15796">
        <ele>1493.693272</ele>
        <time>2026-03-22T09:50:51.544Z</time>
      </trkpt>
      <trkpt lat="42.99184" lon="0.15782">
        <ele>1490.968284</ele>
        <time>2026-03-22T09:50:56.531Z</time>
      </trkpt>
      <trkpt lat="42.99194" lon="0.15777">
        <ele>1488.152965</ele>
        <time>2026-03-22T09:51:03.545Z</time>
      </trkpt>
      <trkpt lat="42.99204" lon="0.15778">
        <ele>1485.545255</ele>
        <time>2026-03-22T09:51:06.535Z</time>
      </trkpt>
      <trkpt lat="42.99213" lon="0.15781">
        <ele>1483.080642</ele>
        <time>2026-03-22T09:51:09.542Z</time>
      </trkpt>
      <trkpt lat="42.99219" lon="0.15791">
        <ele>1480.513366</ele>
        <time>2026-03-22T09:51:12.550Z</time>
      </trkpt>
      <trkpt lat="42.99229" lon="0.15797">
        <ele>1477.662158</ele>
        <time>2026-03-22T09:51:17.545Z</time>
      </trkpt>
      <trkpt lat="42.9924" lon="0.15794">
        <ele>1474.73983</ele>
        <time>2026-03-22T09:51:25.543Z</time>
      </trkpt>
      <trkpt lat="42.99247" lon="0.15784">
        <ele>1471.721589</ele>
        <time>2026-03-22T09:51:31.539Z</time>
      </trkpt>
      <trkpt lat="42.99254" lon="0.15776">
        <ele>1468.503597</ele>
        <time>2026-03-22T09:51:39.563Z</time>
      </trkpt>
      <trkpt lat="42.99278" lon="0.1577">
        <ele>1460.606748</ele>
        <time>2026-03-22T09:52:07.569Z</time>
      </trkpt>
      <trkpt lat="42.99282" lon="0.15757">
        <ele>1457.066148</ele>
        <time>2026-03-22T09:52:13.526Z</time>
      </trkpt>
      <trkpt lat="42.99286" lon="0.15745">
        <ele>1453.917184</ele>
        <time>2026-03-22T09:52:18.558Z</time>
      </trkpt>
      <trkpt lat="42.99294" lon="0.15755">
        <ele>1450.295856</ele>
        <time>2026-03-22T09:52:22.558Z</time>
      </trkpt>
      <trkpt lat="42.99296" lon="0.15742">
        <ele>1447.069108</ele>
        <time>2026-03-22T09:52:31.522Z</time>
      </trkpt>
      <trkpt lat="42.9929" lon="0.15733">
        <ele>1444.081194</ele>
        <time>2026-03-22T09:52:39.550Z</time>
      </trkpt>
      <trkpt lat="42.99308" lon="0.15737">
        <ele>1438.019762</ele>
        <time>2026-03-22T09:54:42.533Z</time>
      </trkpt>
      <trkpt lat="42.99315" lon="0.15746">
        <ele>1434.805013</ele>
        <time>2026-03-22T09:54:46.559Z</time>
      </trkpt>
      <trkpt lat="42.9932" lon="0.15756">
        <ele>1431.702728</ele>
        <time>2026-03-22T09:54:49.566Z</time>
      </trkpt>
      <trkpt lat="42.99329" lon="0.15762">
        <ele>1428.486329</ele>
        <time>2026-03-22T09:54:54.546Z</time>
      </trkpt>
      <trkpt lat="42.99329" lon="0.15749">
        <ele>1425.343823</ele>
        <time>2026-03-22T09:55:00.538Z</time>
      </trkpt>
      <trkpt lat="42.99338" lon="0.15741">
        <ele>1421.946392</ele>
        <time>2026-03-22T09:55:13.541Z</time>
      </trkpt>
      <trkpt lat="42.99347" lon="0.15739">
        <ele>1418.907821</ele>
        <time>2026-03-22T09:55:17.545Z</time>
      </trkpt>
      <trkpt lat="42.99353" lon="0.15728">
        <ele>1415.573326</ele>
        <time>2026-03-22T09:55:26.545Z</time>
      </trkpt>
      <trkpt lat="42.99363" lon="0.15728">
        <ele>1413.159993</ele>
        <time>2026-03-22T09:55:34.549Z</time>
      </trkpt>
      <trkpt lat="42.99374" lon="0.1576">
        <ele>1406.63784</ele>
        <time>2026-03-22T09:56:26.569Z</time>
      </trkpt>
      <trkpt lat="42.99375" lon="0.15775">
        <ele>1403.97971</ele>
        <time>2026-03-22T09:56:29.569Z</time>
      </trkpt>
      <trkpt lat="42.99377" lon="0.15789">
        <ele>1401.401519</ele>
        <time>2026-03-22T09:56:33.553Z</time>
      </trkpt>
      <trkpt lat="42.99378" lon="0.15803">
        <ele>1398.80871</ele>
        <time>2026-03-22T09:56:41.556Z</time>
      </trkpt>
      <trkpt lat="42.99395" lon="0.15796">
        <ele>1394.433096</ele>
        <time>2026-03-22T09:57:14.579Z</time>
      </trkpt>
      <trkpt lat="42.99405" lon="0.15795">
        <ele>1391.962036</ele>
        <time>2026-03-22T09:57:18.542Z</time>
      </trkpt>
      <trkpt lat="42.99412" lon="0.15787">
        <ele>1389.561773</ele>
        <time>2026-03-22T09:57:22.560Z</time>
      </trkpt>
      <trkpt lat="42.99423" lon="0.15792">
        <ele>1386.813083</ele>
        <time>2026-03-22T09:57:27.541Z</time>
      </trkpt>
      <trkpt lat="42.99435" lon="0.1579">
        <ele>1383.879028</ele>
        <time>2026-03-22T09:57:31.554Z</time>
      </trkpt>
      <trkpt lat="42.99439" lon="0.15777">
        <ele>1381.423767</ele>
        <time>2026-03-22T09:57:38.520Z</time>
      </trkpt>
      <trkpt lat="42.99446" lon="0.15767">
        <ele>1379.022031</ele>
        <time>2026-03-22T09:57:43.548Z</time>
      </trkpt>
      <trkpt lat="42.99451" lon="0.15753">
        <ele>1376.184254</ele>
        <time>2026-03-22T09:57:51.557Z</time>
      </trkpt>
      <trkpt lat="42.99455" lon="0.15742">
        <ele>1373.912235</ele>
        <time>2026-03-22T09:57:54.550Z</time>
      </trkpt>
      <trkpt lat="42.99463" lon="0.15734">
        <ele>1371.422009</ele>
        <time>2026-03-22T09:57:58.545Z</time>
      </trkpt>
      <trkpt lat="42.99472" lon="0.15726">
        <ele>1368.415128</ele>
        <time>2026-03-22T09:58:02.592Z</time>
      </trkpt>
      <trkpt lat="42.99479" lon="0.15719">
        <ele>1365.548951</ele>
        <time>2026-03-22T09:58:07.561Z</time>
      </trkpt>
      <trkpt lat="42.99488" lon="0.15725">
        <ele>1362.526369</ele>
        <time>2026-03-22T09:58:11.562Z</time>
      </trkpt>
      <trkpt lat="42.99496" lon="0.15715">
        <ele>1359.354205</ele>
        <time>2026-03-22T09:58:15.549Z</time>
      </trkpt>
      <trkpt lat="42.99499" lon="0.15702">
        <ele>1356.164382</ele>
        <time>2026-03-22T09:58:19.554Z</time>
      </trkpt>
      <trkpt lat="42.99508" lon="0.15695">
        <ele>1353.262515</ele>
        <time>2026-03-22T09:58:22.562Z</time>
      </trkpt>
      <trkpt lat="42.99514" lon="0.15687">
        <ele>1350.39621</ele>
        <time>2026-03-22T09:58:26.535Z</time>
      </trkpt>
      <trkpt lat="42.99524" lon="0.15681">
        <ele>1347.19572</ele>
        <time>2026-03-22T09:58:30.558Z</time>
      </trkpt>
      <trkpt lat="42.99533" lon="0.15684">
        <ele>1344.147248</ele>
        <time>2026-03-22T09:58:35.534Z</time>
      </trkpt>
      <trkpt lat="42.99544" lon="0.15681">
        <ele>1340.686752</ele>
        <time>2026-03-22T09:58:40.523Z</time>
      </trkpt>
      <trkpt lat="42.99553" lon="0.1567">
        <ele>1337.106845</ele>
        <time>2026-03-22T09:58:44.545Z</time>
      </trkpt>
      <trkpt lat="42.99563" lon="0.1566">
        <ele>1333.284581</ele>
        <time>2026-03-22T09:58:47.530Z</time>
      </trkpt>
      <trkpt lat="42.99573" lon="0.15653">
        <ele>1329.705335</ele>
        <time>2026-03-22T09:58:50.531Z</time>
      </trkpt>
      <trkpt lat="42.9958" lon="0.15642">
        <ele>1326.482787</ele>
        <time>2026-03-22T09:58:53.529Z</time>
      </trkpt>
      <trkpt lat="42.99591" lon="0.15637">
        <ele>1322.994224</ele>
        <time>2026-03-22T09:58:58.529Z</time>
      </trkpt>
      <trkpt lat="42.99599" lon="0.15632">
        <ele>1320.148305</ele>
        <time>2026-03-22T09:59:01.519Z</time>
      </trkpt>
      <trkpt lat="42.99607" lon="0.15623">
        <ele>1316.917338</ele>
        <time>2026-03-22T09:59:04.524Z</time>
      </trkpt>
      <trkpt lat="42.99616" lon="0.15616">
        <ele>1314.249874</ele>
        <time>2026-03-22T09:59:08.526Z</time>
      </trkpt>
      <trkpt lat="42.99626" lon="0.15606">
        <ele>1311.704906</ele>
        <time>2026-03-22T09:59:11.526Z</time>
      </trkpt>
      <trkpt lat="42.99634" lon="0.156">
        <ele>1309.740372</ele>
        <time>2026-03-22T09:59:15.526Z</time>
      </trkpt>
      <trkpt lat="42.99652" lon="0.15582">
        <ele>1304.860748</ele>
        <time>2026-03-22T10:00:20.996Z</time>
      </trkpt>
      <trkpt lat="42.99662" lon="0.15575">
        <ele>1302.591644</ele>
        <time>2026-03-22T10:00:24.015Z</time>
      </trkpt>
      <trkpt lat="42.9967" lon="0.15567">
        <ele>1300.452757</ele>
        <time>2026-03-22T10:00:26.992Z</time>
      </trkpt>
      <trkpt lat="42.99678" lon="0.1556">
        <ele>1298.409937</ele>
        <time>2026-03-22T10:00:30.996Z</time>
      </trkpt>
      <trkpt lat="42.99704" lon="0.15543">
        <ele>1292.117319</ele>
        <time>2026-03-22T10:00:54.991Z</time>
      </trkpt>
      <trkpt lat="42.99714" lon="0.15538">
        <ele>1289.944992</ele>
        <time>2026-03-22T10:01:01.997Z</time>
      </trkpt>
      <trkpt lat="42.9972" lon="0.15526">
        <ele>1287.663432</ele>
        <time>2026-03-22T10:01:05.991Z</time>
      </trkpt>
      <trkpt lat="42.99725" lon="0.15515">
        <ele>1285.640271</ele>
        <time>2026-03-22T10:01:10.020Z</time>
      </trkpt>
      <trkpt lat="42.99733" lon="0.15507">
        <ele>1283.485562</ele>
        <time>2026-03-22T10:01:13.000Z</time>
      </trkpt>
      <trkpt lat="42.99742" lon="0.15496">
        <ele>1280.85662</ele>
        <time>2026-03-22T10:01:15.996Z</time>
      </trkpt>
      <trkpt lat="42.99749" lon="0.15483">
        <ele>1278.392382</ele>
        <time>2026-03-22T10:01:19.990Z</time>
      </trkpt>
      <trkpt lat="42.99757" lon="0.15475">
        <ele>1276.363662</ele>
        <time>2026-03-22T10:01:22.993Z</time>
      </trkpt>
      <trkpt lat="42.99761" lon="0.15461">
        <ele>1274.513892</ele>
        <time>2026-03-22T10:01:26.999Z</time>
      </trkpt>
      <trkpt lat="42.9977" lon="0.15456">
        <ele>1272.737074</ele>
        <time>2026-03-22T10:01:29.992Z</time>
      </trkpt>
      <trkpt lat="42.99779" lon="0.15449">
        <ele>1271.04555</ele>
        <time>2026-03-22T10:01:34.013Z</time>
      </trkpt>
      <trkpt lat="42.99782" lon="0.15437">
        <ele>1269.44024</ele>
        <time>2026-03-22T10:01:37.002Z</time>
      </trkpt>
      <trkpt lat="42.99786" lon="0.15421">
        <ele>1267.221831</ele>
        <time>2026-03-22T10:01:39.994Z</time>
      </trkpt>
      <trkpt lat="42.99797" lon="0.15414">
        <ele>1265.209881</ele>
        <time>2026-03-22T10:01:42.992Z</time>
      </trkpt>
      <trkpt lat="42.99804" lon="0.15404">
        <ele>1263.445844</ele>
        <time>2026-03-22T10:01:46.996Z</time>
      </trkpt>
      <trkpt lat="42.99806" lon="0.15388">
        <ele>1261.409919</ele>
        <time>2026-03-22T10:01:49.992Z</time>
      </trkpt>
      <trkpt lat="42.99812" lon="0.15378">
        <ele>1259.619338</ele>
        <time>2026-03-22T10:01:52.996Z</time>
      </trkpt>
      <trkpt lat="42.99814" lon="0.15362">
        <ele>1257.557982</ele>
        <time>2026-03-22T10:01:58.006Z</time>
      </trkpt>
      <trkpt lat="42.9982" lon="0.15348">
        <ele>1255.628723</ele>
        <time>2026-03-22T10:02:01.024Z</time>
      </trkpt>
      <trkpt lat="42.99829" lon="0.15342">
        <ele>1253.849379</ele>
        <time>2026-03-22T10:02:04.001Z</time>
      </trkpt>
      <trkpt lat="42.9984" lon="0.1534">
        <ele>1251.859525</ele>
        <time>2026-03-22T10:02:09.002Z</time>
      </trkpt>
      <trkpt lat="42.99851" lon="0.1534">
        <ele>1250.036301</ele>
        <time>2026-03-22T10:02:12.996Z</time>
      </trkpt>
      <trkpt lat="42.9986" lon="0.15348">
        <ele>1248.118706</ele>
        <time>2026-03-22T10:02:16.995Z</time>
      </trkpt>
      <trkpt lat="42.99871" lon="0.15348">
        <ele>1246.260105</ele>
        <time>2026-03-22T10:02:21.007Z</time>
      </trkpt>
      <trkpt lat="42.9988" lon="0.15346">
        <ele>1244.337816</ele>
        <time>2026-03-22T10:02:26.004Z</time>
      </trkpt>
      <trkpt lat="42.99888" lon="0.15338">
        <ele>1242.050706</ele>
        <time>2026-03-22T10:02:35.994Z</time>
      </trkpt>
      <trkpt lat="42.99888" lon="0.15325">
        <ele>1239.794756</ele>
        <time>2026-03-22T10:02:38.992Z</time>
      </trkpt>
      <trkpt lat="42.99895" lon="0.15316">
        <ele>1237.547261</ele>
        <time>2026-03-22T10:02:42.001Z</time>
      </trkpt>
      <trkpt lat="42.99899" lon="0.15301">
        <ele>1234.825588</ele>
        <time>2026-03-22T10:02:45.014Z</time>
      </trkpt>
      <trkpt lat="42.99904" lon="0.15288">
        <ele>1232.315331</ele>
        <time>2026-03-22T10:02:49.001Z</time>
      </trkpt>
      <trkpt lat="42.99909" lon="0.15277">
        <ele>1230.105107</ele>
        <time>2026-03-22T10:02:53.014Z</time>
      </trkpt>
      <trkpt lat="42.99915" lon="0.15267">
        <ele>1227.878116</ele>
        <time>2026-03-22T10:02:58.004Z</time>
      </trkpt>
      <trkpt lat="42.99913" lon="0.15253">
        <ele>1225.359791</ele>
        <time>2026-03-22T10:03:00.996Z</time>
      </trkpt>
      <trkpt lat="42.9991" lon="0.15239">
        <ele>1222.802616</ele>
        <time>2026-03-22T10:03:04.024Z</time>
      </trkpt>
      <trkpt lat="42.99909" lon="0.15224">
        <ele>1220.353817</ele>
        <time>2026-03-22T10:03:06.991Z</time>
      </trkpt>
      <trkpt lat="42.99912" lon="0.15213">
        <ele>1218.251024</ele>
        <time>2026-03-22T10:03:09.994Z</time>
      </trkpt>
      <trkpt lat="42.99916" lon="0.152">
        <ele>1215.885257</ele>
        <time>2026-03-22T10:03:12.999Z</time>
      </trkpt>
      <trkpt lat="42.99926" lon="0.15197">
        <ele>1213.468826</ele>
        <time>2026-03-22T10:03:17.994Z</time>
      </trkpt>
      <trkpt lat="42.9993" lon="0.15185">
        <ele>1211.241369</ele>
        <time>2026-03-22T10:03:21.996Z</time>
      </trkpt>
      <trkpt lat="42.99926" lon="0.15141">
        <ele>1203.648307</ele>
        <time>2026-03-22T10:05:23.000Z</time>
      </trkpt>
      <trkpt lat="42.99936" lon="0.15133">
        <ele>1200.371415</ele>
        <time>2026-03-22T10:05:26.010Z</time>
      </trkpt>
      <trkpt lat="42.99941" lon="0.1512">
        <ele>1197.34416</ele>
        <time>2026-03-22T10:05:29.992Z</time>
      </trkpt>
      <trkpt lat="42.99937" lon="0.15105">
        <ele>1194.062577</ele>
        <time>2026-03-22T10:05:32.993Z</time>
      </trkpt>
      <trkpt lat="42.99935" lon="0.15091">
        <ele>1191.246115</ele>
        <time>2026-03-22T10:05:35.990Z</time>
      </trkpt>
      <trkpt lat="42.9993" lon="0.15076">
        <ele>1187.83326</ele>
        <time>2026-03-22T10:05:39.995Z</time>
      </trkpt>
      <trkpt lat="42.99924" lon="0.15065">
        <ele>1184.971395</ele>
        <time>2026-03-22T10:05:44.005Z</time>
      </trkpt>
      <trkpt lat="42.99923" lon="0.15052">
        <ele>1182.331039</ele>
        <time>2026-03-22T10:05:46.992Z</time>
      </trkpt>
      <trkpt lat="42.99919" lon="0.15041">
        <ele>1179.789715</ele>
        <time>2026-03-22T10:05:49.994Z</time>
      </trkpt>
      <trkpt lat="42.99918" lon="0.15026">
        <ele>1176.828856</ele>
        <time>2026-03-22T10:05:53.993Z</time>
      </trkpt>
      <trkpt lat="42.99913" lon="0.15013">
        <ele>1173.712391</ele>
        <time>2026-03-22T10:05:58.992Z</time>
      </trkpt>
      <trkpt lat="42.99907" lon="0.15003">
        <ele>1171.140875</ele>
        <time>2026-03-22T10:06:00.990Z</time>
      </trkpt>
      <trkpt lat="42.99901" lon="0.14991">
        <ele>1168.224614</ele>
        <time>2026-03-22T10:06:03.993Z</time>
      </trkpt>
      <trkpt lat="42.99909" lon="0.14983">
        <ele>1165.43614</ele>
        <time>2026-03-22T10:06:12.006Z</time>
      </trkpt>
      <trkpt lat="42.99909" lon="0.14967">
        <ele>1162.055688</ele>
        <time>2026-03-22T10:06:16.998Z</time>
      </trkpt>
      <trkpt lat="42.99911" lon="0.14952">
        <ele>1158.941566</ele>
        <time>2026-03-22T10:06:19.993Z</time>
      </trkpt>
      <trkpt lat="42.99915" lon="0.1494">
        <ele>1156.302122</ele>
        <time>2026-03-22T10:06:23.991Z</time>
      </trkpt>
      <trkpt lat="42.99909" lon="0.14924">
        <ele>1152.655208</ele>
        <time>2026-03-22T10:06:27.990Z</time>
      </trkpt>
      <trkpt lat="42.999" lon="0.14918">
        <ele>1150.040909</ele>
        <time>2026-03-22T10:06:30.006Z</time>
      </trkpt>
      <trkpt lat="42.99887" lon="0.14913">
        <ele>1146.51655</ele>
        <time>2026-03-22T10:06:32.994Z</time>
      </trkpt>
      <trkpt lat="42.99878" lon="0.14911">
        <ele>1144.029557</ele>
        <time>2026-03-22T10:06:34.991Z</time>
      </trkpt>
      <trkpt lat="42.99865" lon="0.14905">
        <ele>1140.491157</ele>
        <time>2026-03-22T10:06:37.993Z</time>
      </trkpt>
      <trkpt lat="42.99856" lon="0.14898">
        <ele>1137.839354</ele>
        <time>2026-03-22T10:06:41.036Z</time>
      </trkpt>
      <trkpt lat="42.9985" lon="0.14887">
        <ele>1135.181603</ele>
        <time>2026-03-22T10:06:46.991Z</time>
      </trkpt>
      <trkpt lat="42.99843" lon="0.14874">
        <ele>1132.183151</ele>
        <time>2026-03-22T10:06:50.999Z</time>
      </trkpt>
      <trkpt lat="42.99832" lon="0.14863">
        <ele>1128.635403</ele>
        <time>2026-03-22T10:06:54.003Z</time>
      </trkpt>
      <trkpt lat="42.99823" lon="0.14853">
        <ele>1125.585531</ele>
        <time>2026-03-22T10:06:56.998Z</time>
      </trkpt>
      <trkpt lat="42.99817" lon="0.14843">
        <ele>1123.128312</ele>
        <time>2026-03-22T10:06:59.993Z</time>
      </trkpt>
      <trkpt lat="42.99808" lon="0.14846">
        <ele>1120.69513</ele>
        <time>2026-03-22T10:07:05.993Z</time>
      </trkpt>
      <trkpt lat="42.998" lon="0.14837">
        <ele>1117.874062</ele>
        <time>2026-03-22T10:07:09.991Z</time>
      </trkpt>
      <trkpt lat="42.99792" lon="0.1483">
        <ele>1115.485256</ele>
        <time>2026-03-22T10:07:13.992Z</time>
      </trkpt>
      <trkpt lat="42.99782" lon="0.1483">
        <ele>1112.786116</ele>
        <time>2026-03-22T10:07:28.995Z</time>
      </trkpt>
      <trkpt lat="42.99789" lon="0.14816">
        <ele>1109.60323</ele>
        <time>2026-03-22T10:07:36.991Z</time>
      </trkpt>
      <trkpt lat="42.99797" lon="0.14812">
        <ele>1107.210606</ele>
        <time>2026-03-22T10:07:38.990Z</time>
      </trkpt>
      <trkpt lat="42.99807" lon="0.14814">
        <ele>1106.32637</ele>
        <time>2026-03-22T10:07:41.995Z</time>
      </trkpt>
      <trkpt lat="42.99848" lon="0.14823">
        <ele>1107.167267</ele>
        <time>2026-03-22T10:09:43.997Z</time>
      </trkpt>
      <trkpt lat="42.99857" lon="0.14827">
        <ele>1107.354461</ele>
        <time>2026-03-22T10:09:47.996Z</time>
      </trkpt>
      <trkpt lat="42.99866" lon="0.1483">
        <ele>1107.534319</ele>
        <time>2026-03-22T10:09:51.997Z</time>
      </trkpt>
      <trkpt lat="42.99878" lon="0.14831">
        <ele>1107.760512</ele>
        <time>2026-03-22T10:09:55.996Z</time>
      </trkpt>
      <trkpt lat="42.99888" lon="0.1483">
        <ele>1107.963045</ele>
        <time>2026-03-22T10:10:01.004Z</time>
      </trkpt>
      <trkpt lat="42.99898" lon="0.14832">
        <ele>1108.161724</ele>
        <time>2026-03-22T10:10:06.993Z</time>
      </trkpt>
      <trkpt lat="42.99908" lon="0.14835">
        <ele>1108.373875</ele>
        <time>2026-03-22T10:10:11.999Z</time>
      </trkpt>
      <trkpt lat="42.99918" lon="0.1484">
        <ele>1108.582343</ele>
        <time>2026-03-22T10:10:17.995Z</time>
      </trkpt>
      <trkpt lat="42.99928" lon="0.14845">
        <ele>1108.797812</ele>
        <time>2026-03-22T10:10:23.008Z</time>
      </trkpt>
      <trkpt lat="42.99937" lon="0.14848">
        <ele>1108.984609</ele>
        <time>2026-03-22T10:10:31.992Z</time>
      </trkpt>
      <trkpt lat="42.99946" lon="0.14854">
        <ele>1109.176546</ele>
        <time>2026-03-22T10:10:39.994Z</time>
      </trkpt>
      <trkpt lat="42.99955" lon="0.14859">
        <ele>1109.363618</ele>
        <time>2026-03-22T10:10:46.003Z</time>
      </trkpt>
      <trkpt lat="42.99962" lon="0.14868">
        <ele>1109.559063</ele>
        <time>2026-03-22T10:10:52.993Z</time>
      </trkpt>
      <trkpt lat="42.99969" lon="0.14879">
        <ele>1109.765574</ele>
        <time>2026-03-22T10:10:58.992Z</time>
      </trkpt>
      <trkpt lat="42.99975" lon="0.14889">
        <ele>1110.901133</ele>
        <time>2026-03-22T10:11:03.570Z</time>
      </trkpt>
      <trkpt lat="42.9998" lon="0.14899">
        <ele>1112.078266</ele>
        <time>2026-03-22T10:11:08.585Z</time>
      </trkpt>
      <trkpt lat="42.99986" lon="0.14908">
        <ele>1113.255581</ele>
        <time>2026-03-22T10:11:14.573Z</time>
      </trkpt>
      <trkpt lat="42.9999" lon="0.1492">
        <ele>1114.476239</ele>
        <time>2026-03-22T10:11:20.582Z</time>
      </trkpt>
      <trkpt lat="42.99995" lon="0.1493">
        <ele>1115.640803</ele>
        <time>2026-03-22T10:11:26.571Z</time>
      </trkpt>
      <trkpt lat="43.00001" lon="0.14941">
        <ele>1116.911392</ele>
        <time>2026-03-22T10:11:32.571Z</time>
      </trkpt>
      <trkpt lat="43.00008" lon="0.14952">
        <ele>1118.287727</ele>
        <time>2026-03-22T10:11:38.537Z</time>
      </trkpt>
      <trkpt lat="43.00013" lon="0.14963">
        <ele>1119.453496</ele>
        <time>2026-03-22T10:11:43.573Z</time>
      </trkpt>
      <trkpt lat="43.00017" lon="0.14975">
        <ele>1120.724932</ele>
        <time>2026-03-22T10:11:49.555Z</time>
      </trkpt>
      <trkpt lat="43.00018" lon="0.14987">
        <ele>1121.907983</ele>
        <time>2026-03-22T10:11:54.589Z</time>
      </trkpt>
      <trkpt lat="43.00018" lon="0.15">
        <ele>1123.168048</ele>
        <time>2026-03-22T10:11:59.558Z</time>
      </trkpt>
      <trkpt lat="43.00015" lon="0.15014">
        <ele>1124.507989</ele>
        <time>2026-03-22T10:12:04.559Z</time>
      </trkpt>
      <trkpt lat="43.00018" lon="0.15027">
        <ele>1125.83681</ele>
        <time>2026-03-22T10:12:11.539Z</time>
      </trkpt>
      <trkpt lat="43.00019" lon="0.1504">
        <ele>1127.068753</ele>
        <time>2026-03-22T10:12:18.555Z</time>
      </trkpt>
      <trkpt lat="43.00021" lon="0.15054">
        <ele>1128.391887</ele>
        <time>2026-03-22T10:12:24.555Z</time>
      </trkpt>
      <trkpt lat="43.00023" lon="0.15067">
        <ele>1129.621669</ele>
        <time>2026-03-22T10:12:29.564Z</time>
      </trkpt>
      <trkpt lat="43.00025" lon="0.15079">
        <ele>1130.79932</ele>
        <time>2026-03-22T10:12:34.571Z</time>
      </trkpt>
      <trkpt lat="43.00029" lon="0.15091">
        <ele>1132.085086</ele>
        <time>2026-03-22T10:12:40.554Z</time>
      </trkpt>
      <trkpt lat="43.0003" lon="0.15105">
        <ele>1133.365545</ele>
        <time>2026-03-22T10:12:46.566Z</time>
      </trkpt>
      <trkpt lat="43.00032" lon="0.15119">
        <ele>1134.819614</ele>
        <time>2026-03-22T10:12:52.561Z</time>
      </trkpt>
      <trkpt lat="43.00033" lon="0.15131">
        <ele>1136.065458</ele>
        <time>2026-03-22T10:12:57.547Z</time>
      </trkpt>
      <trkpt lat="43.00036" lon="0.15144">
        <ele>1137.479741</ele>
        <time>2026-03-22T10:13:03.537Z</time>
      </trkpt>
      <trkpt lat="43.00037" lon="0.15158">
        <ele>1138.864008</ele>
        <time>2026-03-22T10:13:09.541Z</time>
      </trkpt>
      <trkpt lat="43.00039" lon="0.15171">
        <ele>1140.216081</ele>
        <time>2026-03-22T10:13:15.554Z</time>
      </trkpt>
      <trkpt lat="43.0004" lon="0.15184">
        <ele>1141.555742</ele>
        <time>2026-03-22T10:13:21.541Z</time>
      </trkpt>
      <trkpt lat="43.00041" lon="0.15198">
        <ele>1142.968553</ele>
        <time>2026-03-22T10:13:28.569Z</time>
      </trkpt>
      <trkpt lat="43.00043" lon="0.15211">
        <ele>1144.268531</ele>
        <time>2026-03-22T10:13:34.561Z</time>
      </trkpt>
      <trkpt lat="43.00045" lon="0.15225">
        <ele>1145.738228</ele>
        <time>2026-03-22T10:13:40.560Z</time>
      </trkpt>
      <trkpt lat="43.00044" lon="0.1524">
        <ele>1147.208737</ele>
        <time>2026-03-22T10:13:46.565Z</time>
      </trkpt>
      <trkpt lat="43.00042" lon="0.15254">
        <ele>1148.672736</ele>
        <time>2026-03-22T10:13:52.564Z</time>
      </trkpt>
      <trkpt lat="43.00042" lon="0.15267">
        <ele>1150.000035</ele>
        <time>2026-03-22T10:13:57.577Z</time>
      </trkpt>
      <trkpt lat="43.00044" lon="0.15281">
        <ele>1151.407548</ele>
        <time>2026-03-22T10:14:02.565Z</time>
      </trkpt>
      <trkpt lat="43.00046" lon="0.15294">
        <ele>1152.837801</ele>
        <time>2026-03-22T10:14:08.558Z</time>
      </trkpt>
      <trkpt lat="43.00049" lon="0.15308">
        <ele>1154.254843</ele>
        <time>2026-03-22T10:14:14.572Z</time>
      </trkpt>
      <trkpt lat="43.00048" lon="0.15322">
        <ele>1155.682073</ele>
        <time>2026-03-22T10:14:20.561Z</time>
      </trkpt>
      <trkpt lat="43.00049" lon="0.15336">
        <ele>1157.056302</ele>
        <time>2026-03-22T10:14:26.580Z</time>
      </trkpt>
      <trkpt lat="43.00051" lon="0.1535">
        <ele>1158.118371</ele>
        <time>2026-03-22T10:14:31.572Z</time>
      </trkpt>
      <trkpt lat="43.00053" lon="0.15363">
        <ele>1158.588189</ele>
        <time>2026-03-22T10:14:36.564Z</time>
      </trkpt>
      <trkpt lat="43.00053" lon="0.15375">
        <ele>1159.029312</ele>
        <time>2026-03-22T10:14:41.569Z</time>
      </trkpt>
      <trkpt lat="43.0005" lon="0.15389">
        <ele>1159.526287</ele>
        <time>2026-03-22T10:14:46.561Z</time>
      </trkpt>
      <trkpt lat="43.00046" lon="0.15401">
        <ele>1159.965448</ele>
        <time>2026-03-22T10:14:50.554Z</time>
      </trkpt>
      <trkpt lat="43.00044" lon="0.15413">
        <ele>1160.399762</ele>
        <time>2026-03-22T10:14:54.571Z</time>
      </trkpt>
      <trkpt lat="43.0004" lon="0.15426">
        <ele>1160.908444</ele>
        <time>2026-03-22T10:14:59.571Z</time>
      </trkpt>
      <trkpt lat="43.00034" lon="0.15438">
        <ele>1161.379106</ele>
        <time>2026-03-22T10:15:04.559Z</time>
      </trkpt>
      <trkpt lat="43.00026" lon="0.15446">
        <ele>1161.882616</ele>
        <time>2026-03-22T10:15:09.538Z</time>
      </trkpt>
      <trkpt lat="43.00017" lon="0.15454">
        <ele>1162.354675</ele>
        <time>2026-03-22T10:15:14.558Z</time>
      </trkpt>
      <trkpt lat="43.00009" lon="0.15462">
        <ele>1162.832648</ele>
        <time>2026-03-22T10:15:19.538Z</time>
      </trkpt>
      <trkpt lat="43.00001" lon="0.1547">
        <ele>1163.298534</ele>
        <time>2026-03-22T10:15:24.538Z</time>
      </trkpt>
      <trkpt lat="42.99994" lon="0.15479">
        <ele>1163.779191</ele>
        <time>2026-03-22T10:15:29.577Z</time>
      </trkpt>
      <trkpt lat="42.99987" lon="0.1549">
        <ele>1164.269048</ele>
        <time>2026-03-22T10:15:34.570Z</time>
      </trkpt>
      <trkpt lat="42.99977" lon="0.15497">
        <ele>1164.781103</ele>
        <time>2026-03-22T10:15:39.575Z</time>
      </trkpt>
      <trkpt lat="42.99969" lon="0.15505">
        <ele>1165.262947</ele>
        <time>2026-03-22T10:15:44.558Z</time>
      </trkpt>
      <trkpt lat="42.99961" lon="0.15511">
        <ele>1165.693909</ele>
        <time>2026-03-22T10:15:49.573Z</time>
      </trkpt>
      <trkpt lat="42.99948" lon="0.1554">
        <ele>1167.734383</ele>
        <time>2026-03-22T10:17:08.537Z</time>
      </trkpt>
      <trkpt lat="42.99955" lon="0.15552">
        <ele>1169.304617</ele>
        <time>2026-03-22T10:17:13.565Z</time>
      </trkpt>
      <trkpt lat="42.99966" lon="0.15551">
        <ele>1170.808684</ele>
        <time>2026-03-22T10:17:18.567Z</time>
      </trkpt>
      <trkpt lat="42.99976" lon="0.15551">
        <ele>1172.202363</ele>
        <time>2026-03-22T10:17:23.555Z</time>
      </trkpt>
      <trkpt lat="42.99986" lon="0.15551">
        <ele>1173.512134</ele>
        <time>2026-03-22T10:17:28.571Z</time>
      </trkpt>
      <trkpt lat="42.99995" lon="0.15548">
        <ele>1174.86266</ele>
        <time>2026-03-22T10:17:34.545Z</time>
      </trkpt>
      <trkpt lat="43.00005" lon="0.1555">
        <ele>1176.226544</ele>
        <time>2026-03-22T10:17:39.553Z</time>
      </trkpt>
      <trkpt lat="43.00015" lon="0.15552">
        <ele>1177.698204</ele>
        <time>2026-03-22T10:17:44.560Z</time>
      </trkpt>
      <trkpt lat="43.00025" lon="0.1555">
        <ele>1179.046891</ele>
        <time>2026-03-22T10:17:48.576Z</time>
      </trkpt>
      <trkpt lat="43.00035" lon="0.15549">
        <ele>1180.449464</ele>
        <time>2026-03-22T10:17:52.579Z</time>
      </trkpt>
      <trkpt lat="43.00045" lon="0.1555">
        <ele>1181.868482</ele>
        <time>2026-03-22T10:17:57.565Z</time>
      </trkpt>
      <trkpt lat="43.00054" lon="0.15554">
        <ele>1183.189772</ele>
        <time>2026-03-22T10:18:02.553Z</time>
      </trkpt>
      <trkpt lat="43.00064" lon="0.15554">
        <ele>1184.527349</ele>
        <time>2026-03-22T10:18:06.542Z</time>
      </trkpt>
      <trkpt lat="43.00074" lon="0.15555">
        <ele>1185.99234</ele>
        <time>2026-03-22T10:18:10.602Z</time>
      </trkpt>
      <trkpt lat="43.00085" lon="0.15555">
        <ele>1187.441159</ele>
        <time>2026-03-22T10:18:14.570Z</time>
      </trkpt>
      <trkpt lat="43.00095" lon="0.15551">
        <ele>1188.993335</ele>
        <time>2026-03-22T10:18:19.562Z</time>
      </trkpt>
      <trkpt lat="43.00105" lon="0.15549">
        <ele>1190.300665</ele>
        <time>2026-03-22T10:18:23.572Z</time>
      </trkpt>
      <trkpt lat="43.00116" lon="0.15547">
        <ele>1191.553259</ele>
        <time>2026-03-22T10:18:28.557Z</time>
      </trkpt>
      <trkpt lat="43.00125" lon="0.15547">
        <ele>1191.799762</ele>
        <time>2026-03-22T10:18:32.552Z</time>
      </trkpt>
      <trkpt lat="43.00135" lon="0.15548">
        <ele>1192.071987</ele>
        <time>2026-03-22T10:18:37.558Z</time>
      </trkpt>
      <trkpt lat="43.00146" lon="0.1555">
        <ele>1192.353936</ele>
        <time>2026-03-22T10:18:42.550Z</time>
      </trkpt>
      <trkpt lat="43.00157" lon="0.15549">
        <ele>1192.651165</ele>
        <time>2026-03-22T10:18:47.535Z</time>
      </trkpt>
      <trkpt lat="43.00168" lon="0.15546">
        <ele>1192.948709</ele>
        <time>2026-03-22T10:18:52.553Z</time>
      </trkpt>
      <trkpt lat="43.00177" lon="0.15545">
        <ele>1193.192633</ele>
        <time>2026-03-22T10:18:56.563Z</time>
      </trkpt>
      <trkpt lat="43.00187" lon="0.15545">
        <ele>1193.44708</ele>
        <time>2026-03-22T10:19:00.562Z</time>
      </trkpt>
      <trkpt lat="43.00198" lon="0.15544">
        <ele>1193.741557</ele>
        <time>2026-03-22T10:19:05.560Z</time>
      </trkpt>
      <trkpt lat="43.00207" lon="0.15545">
        <ele>1193.986586</ele>
        <time>2026-03-22T10:19:09.542Z</time>
      </trkpt>
      <trkpt lat="43.00216" lon="0.15548">
        <ele>1194.241129</ele>
        <time>2026-03-22T10:19:14.562Z</time>
      </trkpt>
      <trkpt lat="43.00224" lon="0.15522">
        <ele>1194.790201</ele>
        <time>2026-03-22T10:20:20.576Z</time>
      </trkpt>
      <trkpt lat="43.00228" lon="0.1551">
        <ele>1195.046205</ele>
        <time>2026-03-22T10:20:22.572Z</time>
      </trkpt>
      <trkpt lat="43.00238" lon="0.15498">
        <ele>1195.387527</ele>
        <time>2026-03-22T10:20:24.554Z</time>
      </trkpt>
      <trkpt lat="43.00249" lon="0.15489">
        <ele>1195.748766</ele>
        <time>2026-03-22T10:20:26.580Z</time>
      </trkpt>
      <trkpt lat="43.00261" lon="0.15482">
        <ele>1196.080697</ele>
        <time>2026-03-22T10:20:28.562Z</time>
      </trkpt>
      <trkpt lat="43.00268" lon="0.15473">
        <ele>1195.941215</ele>
        <time>2026-03-22T10:20:30.541Z</time>
      </trkpt>
      <trkpt lat="43.00275" lon="0.15462">
        <ele>1194.82745</ele>
        <time>2026-03-22T10:20:33.571Z</time>
      </trkpt>
      <trkpt lat="43.00286" lon="0.15459">
        <ele>1193.65294</ele>
        <time>2026-03-22T10:20:37.550Z</time>
      </trkpt>
      <trkpt lat="43.00295" lon="0.15468">
        <ele>1192.513507</ele>
        <time>2026-03-22T10:20:40.554Z</time>
      </trkpt>
      <trkpt lat="43.00305" lon="0.15462">
        <ele>1191.416434</ele>
        <time>2026-03-22T10:20:44.565Z</time>
      </trkpt>
      <trkpt lat="43.00309" lon="0.15444">
        <ele>1190.039716</ele>
        <time>2026-03-22T10:20:47.559Z</time>
      </trkpt>
      <trkpt lat="43.00316" lon="0.15434">
        <ele>1188.96903</ele>
        <time>2026-03-22T10:20:49.584Z</time>
      </trkpt>
      <trkpt lat="43.00322" lon="0.15421">
        <ele>1187.804755</ele>
        <time>2026-03-22T10:20:51.569Z</time>
      </trkpt>
      <trkpt lat="43.00323" lon="0.15405">
        <ele>1186.628479</ele>
        <time>2026-03-22T10:20:54.556Z</time>
      </trkpt>
      <trkpt lat="43.00333" lon="0.154">
        <ele>1185.534463</ele>
        <time>2026-03-22T10:20:56.571Z</time>
      </trkpt>
      <trkpt lat="43.00343" lon="0.15393">
        <ele>1184.366066</ele>
        <time>2026-03-22T10:20:58.552Z</time>
      </trkpt>
      <trkpt lat="43.00351" lon="0.1538">
        <ele>1183.134441</ele>
        <time>2026-03-22T10:21:00.570Z</time>
      </trkpt>
      <trkpt lat="43.00354" lon="0.15366">
        <ele>1181.996336</ele>
        <time>2026-03-22T10:21:02.539Z</time>
      </trkpt>
      <trkpt lat="43.00388" lon="0.15339">
        <ele>1177.91168</ele>
        <time>2026-03-22T10:21:30.550Z</time>
      </trkpt>
      <trkpt lat="43.00398" lon="0.15339">
        <ele>1176.179446</ele>
        <time>2026-03-22T10:21:32.605Z</time>
      </trkpt>
      <trkpt lat="43.00408" lon="0.15336">
        <ele>1174.287196</ele>
        <time>2026-03-22T10:21:34.544Z</time>
      </trkpt>
      <trkpt lat="43.00418" lon="0.15327">
        <ele>1172.04336</ele>
        <time>2026-03-22T10:21:37.580Z</time>
      </trkpt>
      <trkpt lat="43.0043" lon="0.15327">
        <ele>1169.949893</ele>
        <time>2026-03-22T10:21:40.573Z</time>
      </trkpt>
      <trkpt lat="43.00442" lon="0.1532">
        <ele>1167.613805</ele>
        <time>2026-03-22T10:21:42.566Z</time>
      </trkpt>
      <trkpt lat="43.00455" lon="0.15312">
        <ele>1164.979207</ele>
        <time>2026-03-22T10:21:44.540Z</time>
      </trkpt>
      <trkpt lat="43.00466" lon="0.15305">
        <ele>1162.650971</ele>
        <time>2026-03-22T10:21:46.562Z</time>
      </trkpt>
      <trkpt lat="43.0048" lon="0.15297">
        <ele>1159.877098</ele>
        <time>2026-03-22T10:21:48.556Z</time>
      </trkpt>
      <trkpt lat="43.00492" lon="0.15288">
        <ele>1157.347751</ele>
        <time>2026-03-22T10:21:50.563Z</time>
      </trkpt>
      <trkpt lat="43.00501" lon="0.15277">
        <ele>1155.135733</ele>
        <time>2026-03-22T10:21:52.565Z</time>
      </trkpt>
      <trkpt lat="43.00509" lon="0.15268">
        <ele>1153.235377</ele>
        <time>2026-03-22T10:21:54.574Z</time>
      </trkpt>
      <trkpt lat="43.00539" lon="0.15235">
        <ele>1146.21089</ele>
        <time>2026-03-22T10:22:45.607Z</time>
      </trkpt>
      <trkpt lat="43.00544" lon="0.15223">
        <ele>1144.256086</ele>
        <time>2026-03-22T10:22:47.568Z</time>
      </trkpt>
      <trkpt lat="43.00549" lon="0.15209">
        <ele>1140.603462</ele>
        <time>2026-03-22T10:22:50.553Z</time>
      </trkpt>
      <trkpt lat="43.00555" lon="0.15194">
        <ele>1136.735343</ele>
        <time>2026-03-22T10:22:53.567Z</time>
      </trkpt>
      <trkpt lat="43.00564" lon="0.15188">
        <ele>1133.679312</ele>
        <time>2026-03-22T10:22:56.569Z</time>
      </trkpt>
      <trkpt lat="43.00569" lon="0.15175">
        <ele>1130.309246</ele>
        <time>2026-03-22T10:22:59.581Z</time>
      </trkpt>
      <trkpt lat="43.00575" lon="0.15162">
        <ele>1126.826326</ele>
        <time>2026-03-22T10:23:03.573Z</time>
      </trkpt>
      <trkpt lat="43.00584" lon="0.15161">
        <ele>1123.897195</ele>
        <time>2026-03-22T10:23:05.556Z</time>
      </trkpt>
      <trkpt lat="43.00594" lon="0.1515">
        <ele>1119.962146</ele>
        <time>2026-03-22T10:23:08.555Z</time>
      </trkpt>
      <trkpt lat="43.00601" lon="0.15141">
        <ele>1116.830167</ele>
        <time>2026-03-22T10:23:10.518Z</time>
      </trkpt>
      <trkpt lat="43.00613" lon="0.15138">
        <ele>1113.212163</ele>
        <time>2026-03-22T10:23:13.530Z</time>
      </trkpt>
      <trkpt lat="43.00622" lon="0.15133">
        <ele>1110.182279</ele>
        <time>2026-03-22T10:23:17.531Z</time>
      </trkpt>
      <trkpt lat="43.00632" lon="0.15135">
        <ele>1106.915968</ele>
        <time>2026-03-22T10:23:21.553Z</time>
      </trkpt>
      <trkpt lat="43.00637" lon="0.15123">
        <ele>1103.81531</ele>
        <time>2026-03-22T10:23:29.532Z</time>
      </trkpt>
      <trkpt lat="43.00647" lon="0.15129">
        <ele>1100.456637</ele>
        <time>2026-03-22T10:23:32.530Z</time>
      </trkpt>
      <trkpt lat="43.00653" lon="0.15118">
        <ele>1097.19498</ele>
        <time>2026-03-22T10:23:36.522Z</time>
      </trkpt>
      <trkpt lat="43.00648" lon="0.15107">
        <ele>1094.126686</ele>
        <time>2026-03-22T10:23:41.530Z</time>
      </trkpt>
      <trkpt lat="43.00649" lon="0.15093">
        <ele>1091.078893</ele>
        <time>2026-03-22T10:23:52.529Z</time>
      </trkpt>
      <trkpt lat="43.00657" lon="0.15085">
        <ele>1088.043931</ele>
        <time>2026-03-22T10:23:57.535Z</time>
      </trkpt>
      <trkpt lat="43.00666" lon="0.15082">
        <ele>1085.165856</ele>
        <time>2026-03-22T10:24:00.548Z</time>
      </trkpt>
      <trkpt lat="43.00674" lon="0.15074">
        <ele>1082.116766</ele>
        <time>2026-03-22T10:24:04.535Z</time>
      </trkpt>
      <trkpt lat="43.00678" lon="0.15063">
        <ele>1079.33176</ele>
        <time>2026-03-22T10:24:06.534Z</time>
      </trkpt>
      <trkpt lat="43.00679" lon="0.15048">
        <ele>1075.967739</ele>
        <time>2026-03-22T10:24:08.548Z</time>
      </trkpt>
      <trkpt lat="43.0068" lon="0.15035">
        <ele>1073.103831</ele>
        <time>2026-03-22T10:24:10.532Z</time>
      </trkpt>
      <trkpt lat="43.00688" lon="0.15023">
        <ele>1069.690278</ele>
        <time>2026-03-22T10:24:13.539Z</time>
      </trkpt>
      <trkpt lat="43.00698" lon="0.15018">
        <ele>1066.166868</ele>
        <time>2026-03-22T10:24:17.532Z</time>
      </trkpt>
      <trkpt lat="43.00702" lon="0.15004">
        <ele>1063.018064</ele>
        <time>2026-03-22T10:24:20.535Z</time>
      </trkpt>
      <trkpt lat="43.0071" lon="0.14994">
        <ele>1059.611602</ele>
        <time>2026-03-22T10:24:23.535Z</time>
      </trkpt>
      <trkpt lat="43.0072" lon="0.14995">
        <ele>1056.818924</ele>
        <time>2026-03-22T10:24:28.521Z</time>
      </trkpt>
      <trkpt lat="43.00721" lon="0.15009">
        <ele>1053.792666</ele>
        <time>2026-03-22T10:24:34.522Z</time>
      </trkpt>
      <trkpt lat="43.00725" lon="0.15022">
        <ele>1050.566629</ele>
        <time>2026-03-22T10:24:37.528Z</time>
      </trkpt>
      <trkpt lat="43.00728" lon="0.15034">
        <ele>1047.655475</ele>
        <time>2026-03-22T10:24:40.534Z</time>
      </trkpt>
      <trkpt lat="43.00732" lon="0.15046">
        <ele>1044.877465</ele>
        <time>2026-03-22T10:24:42.539Z</time>
      </trkpt>
      <trkpt lat="43.00737" lon="0.15058">
        <ele>1041.845977</ele>
        <time>2026-03-22T10:24:44.549Z</time>
      </trkpt>
      <trkpt lat="43.00741" lon="0.15072">
        <ele>1038.437207</ele>
        <time>2026-03-22T10:24:46.535Z</time>
      </trkpt>
      <trkpt lat="43.00745" lon="0.15085">
        <ele>1035.304445</ele>
        <time>2026-03-22T10:24:48.534Z</time>
      </trkpt>
      <trkpt lat="43.00751" lon="0.151">
        <ele>1032.1824</ele>
        <time>2026-03-22T10:24:51.526Z</time>
      </trkpt>
      <trkpt lat="43.00759" lon="0.1511">
        <ele>1029.622155</ele>
        <time>2026-03-22T10:24:54.535Z</time>
      </trkpt>
      <trkpt lat="43.00766" lon="0.1512">
        <ele>1027.204242</ele>
        <time>2026-03-22T10:24:56.537Z</time>
      </trkpt>
      <trkpt lat="43.00774" lon="0.15133">
        <ele>1024.189891</ele>
        <time>2026-03-22T10:24:58.531Z</time>
      </trkpt>
      <trkpt lat="43.00777" lon="0.15145">
        <ele>1022.045012</ele>
        <time>2026-03-22T10:25:01.527Z</time>
      </trkpt>
      <trkpt lat="43.00787" lon="0.15144">
        <ele>1019.662041</ele>
        <time>2026-03-22T10:25:14.536Z</time>
      </trkpt>
      <trkpt lat="43.00796" lon="0.15137">
        <ele>1017.26991</ele>
        <time>2026-03-22T10:25:18.536Z</time>
      </trkpt>
      <trkpt lat="43.00806" lon="0.15135">
        <ele>1014.731476</ele>
        <time>2026-03-22T10:25:23.521Z</time>
      </trkpt>
      <trkpt lat="43.00815" lon="0.15139">
        <ele>1012.492253</ele>
        <time>2026-03-22T10:25:26.503Z</time>
      </trkpt>
      <trkpt lat="43.00824" lon="0.1513">
        <ele>1009.883288</ele>
        <time>2026-03-22T10:25:30.530Z</time>
      </trkpt>
      <trkpt lat="43.00837" lon="0.15097">
        <ele>1003.377118</ele>
        <time>2026-03-22T10:26:04.535Z</time>
      </trkpt>
      <trkpt lat="43.0086" lon="0.15108">
        <ele>997.619216</ele>
        <time>2026-03-22T10:26:57.531Z</time>
      </trkpt>
      <trkpt lat="43.00868" lon="0.15118">
        <ele>995.16485</ele>
        <time>2026-03-22T10:27:01.539Z</time>
      </trkpt>
      <trkpt lat="43.00877" lon="0.15121">
        <ele>992.889933</ele>
        <time>2026-03-22T10:27:04.534Z</time>
      </trkpt>
      <trkpt lat="43.00884" lon="0.1513">
        <ele>990.035976</ele>
        <time>2026-03-22T10:27:07.532Z</time>
      </trkpt>
      <trkpt lat="43.00896" lon="0.15132">
        <ele>985.897936</ele>
        <time>2026-03-22T10:27:11.541Z</time>
      </trkpt>
      <trkpt lat="43.00904" lon="0.15138">
        <ele>982.721922</ele>
        <time>2026-03-22T10:27:15.524Z</time>
      </trkpt>
      <trkpt lat="43.00925" lon="0.15144">
        <ele>975.088829</ele>
        <time>2026-03-22T10:28:07.528Z</time>
      </trkpt>
      <trkpt lat="43.00928" lon="0.15158">
        <ele>971.333215</ele>
        <time>2026-03-22T10:28:11.542Z</time>
      </trkpt>
      <trkpt lat="43.00936" lon="0.15164">
        <ele>967.834331</ele>
        <time>2026-03-22T10:28:16.564Z</time>
      </trkpt>
      <trkpt lat="43.00944" lon="0.15175">
        <ele>964.06794</ele>
        <time>2026-03-22T10:28:22.529Z</time>
      </trkpt>
      <trkpt lat="43.00948" lon="0.15186">
        <ele>960.701959</ele>
        <time>2026-03-22T10:28:25.523Z</time>
      </trkpt>
      <trkpt lat="43.00948" lon="0.15201">
        <ele>957.046428</ele>
        <time>2026-03-22T10:28:28.532Z</time>
      </trkpt>
      <trkpt lat="43.00958" lon="0.15214">
        <ele>952.274143</ele>
        <time>2026-03-22T10:28:31.540Z</time>
      </trkpt>
      <trkpt lat="43.00966" lon="0.15223">
        <ele>948.53947</ele>
        <time>2026-03-22T10:28:33.547Z</time>
      </trkpt>
      <trkpt lat="43.00975" lon="0.15227">
        <ele>945.238753</ele>
        <time>2026-03-22T10:28:35.525Z</time>
      </trkpt>
      <trkpt lat="43.00985" lon="0.15234">
        <ele>941.430916</ele>
        <time>2026-03-22T10:28:37.530Z</time>
      </trkpt>
      <trkpt lat="43.00994" lon="0.15237">
        <ele>938.146925</ele>
        <time>2026-03-22T10:28:41.548Z</time>
      </trkpt>
      <trkpt lat="43.01" lon="0.15225">
        <ele>934.596038</ele>
        <time>2026-03-22T10:28:43.529Z</time>
      </trkpt>
      <trkpt lat="43.01006" lon="0.15213">
        <ele>930.840044</ele>
        <time>2026-03-22T10:28:45.550Z</time>
      </trkpt>
      <trkpt lat="43.01036" lon="0.15208">
        <ele>919.785168</ele>
        <time>2026-03-22T10:29:44.536Z</time>
      </trkpt>
      <trkpt lat="43.01046" lon="0.15219">
        <ele>915.129963</ele>
        <time>2026-03-22T10:29:47.514Z</time>
      </trkpt>
      <trkpt lat="43.01055" lon="0.15233">
        <ele>910.261122</ele>
        <time>2026-03-22T10:29:49.536Z</time>
      </trkpt>
      <trkpt lat="43.01061" lon="0.15244">
        <ele>906.752454</ele>
        <time>2026-03-22T10:29:51.529Z</time>
      </trkpt>
      <trkpt lat="43.01068" lon="0.15235">
        <ele>903.101734</ele>
        <time>2026-03-22T10:29:59.537Z</time>
      </trkpt>
      <trkpt lat="43.01078" lon="0.15229">
        <ele>899.156115</ele>
        <time>2026-03-22T10:30:05.533Z</time>
      </trkpt>
      <trkpt lat="43.01087" lon="0.15224">
        <ele>895.729916</ele>
        <time>2026-03-22T10:30:10.551Z</time>
      </trkpt>
      <trkpt lat="43.01096" lon="0.15221">
        <ele>892.360792</ele>
        <time>2026-03-22T10:30:15.540Z</time>
      </trkpt>
      <trkpt lat="43.01094" lon="0.15208">
        <ele>888.788441</ele>
        <time>2026-03-22T10:30:19.540Z</time>
      </trkpt>
      <trkpt lat="43.01109" lon="0.1519">
        <ele>881.271898</ele>
        <time>2026-03-22T10:31:02.556Z</time>
      </trkpt>
      <trkpt lat="43.01117" lon="0.15179">
        <ele>877.386464</ele>
        <time>2026-03-22T10:31:06.557Z</time>
      </trkpt>
      <trkpt lat="43.01129" lon="0.15137">
        <ele>865.280136</ele>
        <time>2026-03-22T10:31:57.534Z</time>
      </trkpt>
      <trkpt lat="43.01133" lon="0.15123">
        <ele>861.449775</ele>
        <time>2026-03-22T10:32:01.531Z</time>
      </trkpt>
      <trkpt lat="43.01144" lon="0.15125">
        <ele>857.684083</ele>
        <time>2026-03-22T10:32:07.532Z</time>
      </trkpt>
      <trkpt lat="43.01151" lon="0.15115">
        <ele>854.226644</ele>
        <time>2026-03-22T10:32:13.532Z</time>
      </trkpt>
      <trkpt lat="43.01156" lon="0.15104">
        <ele>850.868175</ele>
        <time>2026-03-22T10:32:17.533Z</time>
      </trkpt>
      <trkpt lat="43.01163" lon="0.15092">
        <ele>847.22886</ele>
        <time>2026-03-22T10:32:21.526Z</time>
      </trkpt>
      <trkpt lat="43.01161" lon="0.15079">
        <ele>844.048726</ele>
        <time>2026-03-22T10:32:26.531Z</time>
      </trkpt>
      <trkpt lat="43.01163" lon="0.15066">
        <ele>840.538519</ele>
        <time>2026-03-22T10:32:30.522Z</time>
      </trkpt>
      <trkpt lat="43.01164" lon="0.15053">
        <ele>837.424201</ele>
        <time>2026-03-22T10:32:35.525Z</time>
      </trkpt>
      <trkpt lat="43.01166" lon="0.1504">
        <ele>834.003352</ele>
        <time>2026-03-22T10:32:38.534Z</time>
      </trkpt>
      <trkpt lat="43.0117" lon="0.15026">
        <ele>830.164829</ele>
        <time>2026-03-22T10:32:41.530Z</time>
      </trkpt>
      <trkpt lat="43.01178" lon="0.15013">
        <ele>826.11269</ele>
        <time>2026-03-22T10:32:44.542Z</time>
      </trkpt>
      <trkpt lat="43.01187" lon="0.15023">
        <ele>822.158488</ele>
        <time>2026-03-22T10:32:47.532Z</time>
      </trkpt>
      <trkpt lat="43.01196" lon="0.15035">
        <ele>817.836406</ele>
        <time>2026-03-22T10:32:49.512Z</time>
      </trkpt>
      <trkpt lat="43.01206" lon="0.1505">
        <ele>812.840109</ele>
        <time>2026-03-22T10:32:51.539Z</time>
      </trkpt>
      <trkpt lat="43.01211" lon="0.15069">
        <ele>807.669599</ele>
        <time>2026-03-22T10:32:53.532Z</time>
      </trkpt>
      <trkpt lat="43.01217" lon="0.1509">
        <ele>802.100073</ele>
        <time>2026-03-22T10:32:55.549Z</time>
      </trkpt>
      <trkpt lat="43.01227" lon="0.15108">
        <ele>801.267137</ele>
        <time>2026-03-22T10:32:57.556Z</time>
      </trkpt>
      <trkpt lat="43.01232" lon="0.15126">
        <ele>800.945122</ele>
        <time>2026-03-22T10:32:59.526Z</time>
      </trkpt>
      <trkpt lat="43.01233" lon="0.15143">
        <ele>800.671153</ele>
        <time>2026-03-22T10:33:01.506Z</time>
      </trkpt>
      <trkpt lat="43.01235" lon="0.15157">
        <ele>800.449435</ele>
        <time>2026-03-22T10:33:05.532Z</time>
      </trkpt>
      <trkpt lat="43.01246" lon="0.15194">
        <ele>799.793169</ele>
        <time>2026-03-22T10:47:29.523Z</time>
      </trkpt>
      <trkpt lat="43.0125" lon="0.15208">
        <ele>799.554479</ele>
        <time>2026-03-22T10:47:33.544Z</time>
      </trkpt>
      <trkpt lat="43.0125" lon="0.1522">
        <ele>799.34601</ele>
        <time>2026-03-22T10:47:37.513Z</time>
      </trkpt>
      <trkpt lat="43.01248" lon="0.15234">
        <ele>799.127215</ele>
        <time>2026-03-22T10:47:44.541Z</time>
      </trkpt>
      <trkpt lat="43.0125" lon="0.15247">
        <ele>798.916793</ele>
        <time>2026-03-22T10:47:49.532Z</time>
      </trkpt>
      <trkpt lat="43.01253" lon="0.1526">
        <ele>798.680167</ele>
        <time>2026-03-22T10:47:55.522Z</time>
      </trkpt>
      <trkpt lat="43.01257" lon="0.15273">
        <ele>798.447934</ele>
        <time>2026-03-22T10:48:01.538Z</time>
      </trkpt>
      <trkpt lat="43.01264" lon="0.15283">
        <ele>798.240593</ele>
        <time>2026-03-22T10:48:07.528Z</time>
      </trkpt>
      <trkpt lat="43.01266" lon="0.15296">
        <ele>798.01584</ele>
        <time>2026-03-22T10:48:14.529Z</time>
      </trkpt>
      <trkpt lat="43.01268" lon="0.15309">
        <ele>797.793805</ele>
        <time>2026-03-22T10:48:20.525Z</time>
      </trkpt>
      <trkpt lat="43.01272" lon="0.15322">
        <ele>797.665896</ele>
        <time>2026-03-22T10:48:26.522Z</time>
      </trkpt>
      <trkpt lat="43.01274" lon="0.15335">
        <ele>798.678844</ele>
        <time>2026-03-22T10:48:32.540Z</time>
      </trkpt>
      <trkpt lat="43.01278" lon="0.15349">
        <ele>799.739185</ele>
        <time>2026-03-22T10:48:38.538Z</time>
      </trkpt>
      <trkpt lat="43.01281" lon="0.15361">
        <ele>800.70542</ele>
        <time>2026-03-22T10:48:44.560Z</time>
      </trkpt>
      <trkpt lat="43.01283" lon="0.15373">
        <ele>801.633218</ele>
        <time>2026-03-22T10:48:50.526Z</time>
      </trkpt>
      <trkpt lat="43.01287" lon="0.15386">
        <ele>802.644228</ele>
        <time>2026-03-22T10:48:56.530Z</time>
      </trkpt>
      <trkpt lat="43.0129" lon="0.15399">
        <ele>803.652881</ele>
        <time>2026-03-22T10:49:02.529Z</time>
      </trkpt>
      <trkpt lat="43.01293" lon="0.15411">
        <ele>804.62736</ele>
        <time>2026-03-22T10:49:08.530Z</time>
      </trkpt>
      <trkpt lat="43.01295" lon="0.15424">
        <ele>805.61128</ele>
        <time>2026-03-22T10:49:15.532Z</time>
      </trkpt>
      <trkpt lat="43.01298" lon="0.15438">
        <ele>806.676131</ele>
        <time>2026-03-22T10:49:22.538Z</time>
      </trkpt>
      <trkpt lat="43.01302" lon="0.15451">
        <ele>807.72136</ele>
        <time>2026-03-22T10:49:28.555Z</time>
      </trkpt>
      <trkpt lat="43.01306" lon="0.15463">
        <ele>808.694018</ele>
        <time>2026-03-22T10:49:34.530Z</time>
      </trkpt>
      <trkpt lat="43.01309" lon="0.15476">
        <ele>809.704936</ele>
        <time>2026-03-22T10:49:40.549Z</time>
      </trkpt>
      <trkpt lat="43.01313" lon="0.15487">
        <ele>810.637414</ele>
        <time>2026-03-22T10:49:46.519Z</time>
      </trkpt>
      <trkpt lat="43.01318" lon="0.15499">
        <ele>811.644934</ele>
        <time>2026-03-22T10:49:52.546Z</time>
      </trkpt>
      <trkpt lat="43.01318" lon="0.15512">
        <ele>812.610619</ele>
        <time>2026-03-22T10:49:58.561Z</time>
      </trkpt>
      <trkpt lat="43.01321" lon="0.15526">
        <ele>813.649782</ele>
        <time>2026-03-22T10:50:05.521Z</time>
      </trkpt>
      <trkpt lat="43.01324" lon="0.15539">
        <ele>814.710018</ele>
        <time>2026-03-22T10:50:12.526Z</time>
      </trkpt>
      <trkpt lat="43.01327" lon="0.15551">
        <ele>815.664986</ele>
        <time>2026-03-22T10:50:17.532Z</time>
      </trkpt>
      <trkpt lat="43.01329" lon="0.15564">
        <ele>816.439757</ele>
        <time>2026-03-22T10:50:22.536Z</time>
      </trkpt>
      <trkpt lat="43.01334" lon="0.15576">
        <ele>817.261447</ele>
        <time>2026-03-22T10:50:27.539Z</time>
      </trkpt>
      <trkpt lat="43.01336" lon="0.15588">
        <ele>818.003886</ele>
        <time>2026-03-22T10:50:32.537Z</time>
      </trkpt>
      <trkpt lat="43.01339" lon="0.156">
        <ele>818.773974</ele>
        <time>2026-03-22T10:50:38.551Z</time>
      </trkpt>
      <trkpt lat="43.01341" lon="0.15614">
        <ele>819.603952</ele>
        <time>2026-03-22T10:50:44.540Z</time>
      </trkpt>
      <trkpt lat="43.01345" lon="0.15626">
        <ele>820.368252</ele>
        <time>2026-03-22T10:50:50.555Z</time>
      </trkpt>
      <trkpt lat="43.01348" lon="0.15638">
        <ele>821.185915</ele>
        <time>2026-03-22T10:50:57.541Z</time>
      </trkpt>
      <trkpt lat="43.01351" lon="0.15651">
        <ele>821.979731</ele>
        <time>2026-03-22T10:51:03.546Z</time>
      </trkpt>
      <trkpt lat="43.01355" lon="0.15663">
        <ele>822.7699</ele>
        <time>2026-03-22T10:51:09.522Z</time>
      </trkpt>
      <trkpt lat="43.01358" lon="0.15677">
        <ele>823.604207</ele>
        <time>2026-03-22T10:51:17.525Z</time>
      </trkpt>
      <trkpt lat="43.01363" lon="0.15687">
        <ele>824.3531</ele>
        <time>2026-03-22T10:51:23.541Z</time>
      </trkpt>
      <trkpt lat="43.01366" lon="0.15699">
        <ele>825.103989</ele>
        <time>2026-03-22T10:51:29.544Z</time>
      </trkpt>
      <trkpt lat="43.01369" lon="0.15713">
        <ele>825.948125</ele>
        <time>2026-03-22T10:51:36.532Z</time>
      </trkpt>
      <trkpt lat="43.01371" lon="0.15727">
        <ele>826.794951</ele>
        <time>2026-03-22T10:51:43.507Z</time>
      </trkpt>
      <trkpt lat="43.01373" lon="0.15739">
        <ele>827.553693</ele>
        <time>2026-03-22T10:51:49.564Z</time>
      </trkpt>
      <trkpt lat="43.01375" lon="0.15753">
        <ele>828.376876</ele>
        <time>2026-03-22T10:51:55.531Z</time>
      </trkpt>
      <trkpt lat="43.01375" lon="0.15766">
        <ele>829.187623</ele>
        <time>2026-03-22T10:52:01.532Z</time>
      </trkpt>
      <trkpt lat="43.01373" lon="0.15778">
        <ele>829.936362</ele>
        <time>2026-03-22T10:52:07.692Z</time>
      </trkpt>
      <trkpt lat="43.01369" lon="0.1579">
        <ele>830.89064</ele>
        <time>2026-03-22T10:52:14.693Z</time>
      </trkpt>
      <trkpt lat="43.01366" lon="0.15802">
        <ele>832.640645</ele>
        <time>2026-03-22T10:52:21.691Z</time>
      </trkpt>
      <trkpt lat="43.0136" lon="0.15814">
        <ele>834.465108</ele>
        <time>2026-03-22T10:52:29.698Z</time>
      </trkpt>
      <trkpt lat="43.01354" lon="0.15826">
        <ele>836.300385</ele>
        <time>2026-03-22T10:52:37.695Z</time>
      </trkpt>
      <trkpt lat="43.0135" lon="0.15837">
        <ele>837.910216</ele>
        <time>2026-03-22T10:52:45.709Z</time>
      </trkpt>
      <trkpt lat="43.01342" lon="0.15845">
        <ele>839.683463</ele>
        <time>2026-03-22T10:52:51.702Z</time>
      </trkpt>
      <trkpt lat="43.01335" lon="0.15853">
        <ele>841.28192</ele>
        <time>2026-03-22T10:52:56.700Z</time>
      </trkpt>
      <trkpt lat="43.01328" lon="0.15862">
        <ele>843.035162</ele>
        <time>2026-03-22T10:53:03.672Z</time>
      </trkpt>
      <trkpt lat="43.01321" lon="0.15869">
        <ele>844.669891</ele>
        <time>2026-03-22T10:53:13.695Z</time>
      </trkpt>
      <trkpt lat="43.01312" lon="0.15875">
        <ele>846.274897</ele>
        <time>2026-03-22T10:53:21.683Z</time>
      </trkpt>
      <trkpt lat="43.01303" lon="0.15879">
        <ele>848.122382</ele>
        <time>2026-03-22T10:53:29.728Z</time>
      </trkpt>
      <trkpt lat="43.01294" lon="0.15877">
        <ele>849.723118</ele>
        <time>2026-03-22T10:53:35.690Z</time>
      </trkpt>
      <trkpt lat="43.01295" lon="0.15864">
        <ele>851.418211</ele>
        <time>2026-03-22T10:53:44.706Z</time>
      </trkpt>
      <trkpt lat="43.01302" lon="0.15854">
        <ele>853.216949</ele>
        <time>2026-03-22T10:53:52.686Z</time>
      </trkpt>
      <trkpt lat="43.01308" lon="0.15844">
        <ele>854.95552</ele>
        <time>2026-03-22T10:53:59.706Z</time>
      </trkpt>
      <trkpt lat="43.01316" lon="0.15835">
        <ele>856.761654</ele>
        <time>2026-03-22T10:54:05.695Z</time>
      </trkpt>
      <trkpt lat="43.01321" lon="0.15823">
        <ele>858.48892</ele>
        <time>2026-03-22T10:54:11.723Z</time>
      </trkpt>
      <trkpt lat="43.01325" lon="0.15812">
        <ele>860.138438</ele>
        <time>2026-03-22T10:54:17.696Z</time>
      </trkpt>
      <trkpt lat="43.01326" lon="0.15797">
        <ele>862.001028</ele>
        <time>2026-03-22T10:54:24.707Z</time>
      </trkpt>
      <trkpt lat="43.01324" lon="0.15784">
        <ele>863.002044</ele>
        <time>2026-03-22T10:54:29.697Z</time>
      </trkpt>
      <trkpt lat="43.01322" lon="0.15771">
        <ele>863.809837</ele>
        <time>2026-03-22T10:54:35.692Z</time>
      </trkpt>
      <trkpt lat="43.01318" lon="0.15758">
        <ele>864.623736</ele>
        <time>2026-03-22T10:54:41.698Z</time>
      </trkpt>
      <trkpt lat="43.01313" lon="0.15745">
        <ele>865.426472</ele>
        <time>2026-03-22T10:54:47.699Z</time>
      </trkpt>
      <trkpt lat="43.01308" lon="0.15733">
        <ele>866.246722</ele>
        <time>2026-03-22T10:54:53.721Z</time>
      </trkpt>
      <trkpt lat="43.01302" lon="0.15721">
        <ele>867.094232</ele>
        <time>2026-03-22T10:54:59.704Z</time>
      </trkpt>
      <trkpt lat="43.01296" lon="0.15709">
        <ele>867.89335</ele>
        <time>2026-03-22T10:55:05.691Z</time>
      </trkpt>
      <trkpt lat="43.01291" lon="0.15699">
        <ele>868.603913</ele>
        <time>2026-03-22T10:55:10.717Z</time>
      </trkpt>
      <trkpt lat="43.01287" lon="0.15688">
        <ele>869.316838</ele>
        <time>2026-03-22T10:55:15.702Z</time>
      </trkpt>
      <trkpt lat="43.01281" lon="0.15677">
        <ele>870.139226</ele>
        <time>2026-03-22T10:55:21.710Z</time>
      </trkpt>
      <trkpt lat="43.01277" lon="0.15666">
        <ele>870.854607</ele>
        <time>2026-03-22T10:55:26.695Z</time>
      </trkpt>
      <trkpt lat="43.01271" lon="0.15654">
        <ele>871.667349</ele>
        <time>2026-03-22T10:55:32.704Z</time>
      </trkpt>
      <trkpt lat="43.01266" lon="0.15644">
        <ele>872.391649</ele>
        <time>2026-03-22T10:55:37.690Z</time>
      </trkpt>
      <trkpt lat="43.0126" lon="0.15632">
        <ele>873.199808</ele>
        <time>2026-03-22T10:55:43.687Z</time>
      </trkpt>
      <trkpt lat="43.01253" lon="0.15622">
        <ele>874.026281</ele>
        <time>2026-03-22T10:55:49.706Z</time>
      </trkpt>
      <trkpt lat="43.01247" lon="0.1561">
        <ele>874.876403</ele>
        <time>2026-03-22T10:55:55.715Z</time>
      </trkpt>
      <trkpt lat="43.01242" lon="0.15598">
        <ele>875.629825</ele>
        <time>2026-03-22T10:56:01.718Z</time>
      </trkpt>
      <trkpt lat="43.01239" lon="0.15585">
        <ele>876.447995</ele>
        <time>2026-03-22T10:56:07.697Z</time>
      </trkpt>
      <trkpt lat="43.01233" lon="0.15573">
        <ele>877.229156</ele>
        <time>2026-03-22T10:56:13.714Z</time>
      </trkpt>
      <trkpt lat="43.01228" lon="0.15561">
        <ele>877.929609</ele>
        <time>2026-03-22T10:56:19.718Z</time>
      </trkpt>
      <trkpt lat="43.01225" lon="0.15548">
        <ele>878.641796</ele>
        <time>2026-03-22T10:56:25.708Z</time>
      </trkpt>
      <trkpt lat="43.01221" lon="0.15536">
        <ele>879.339088</ele>
        <time>2026-03-22T10:56:31.697Z</time>
      </trkpt>
      <trkpt lat="43.01216" lon="0.15525">
        <ele>880.011873</ele>
        <time>2026-03-22T10:56:36.702Z</time>
      </trkpt>
      <trkpt lat="43.0121" lon="0.15513">
        <ele>880.756815</ele>
        <time>2026-03-22T10:56:42.703Z</time>
      </trkpt>
      <trkpt lat="43.01206" lon="0.15502">
        <ele>881.402377</ele>
        <time>2026-03-22T10:56:47.702Z</time>
      </trkpt>
      <trkpt lat="43.01202" lon="0.1549">
        <ele>882.083316</ele>
        <time>2026-03-22T10:56:53.742Z</time>
      </trkpt>
      <trkpt lat="43.01197" lon="0.1548">
        <ele>882.742069</ele>
        <time>2026-03-22T10:56:59.707Z</time>
      </trkpt>
      <trkpt lat="43.0119" lon="0.1547">
        <ele>883.488337</ele>
        <time>2026-03-22T10:57:05.712Z</time>
      </trkpt>
      <trkpt lat="43.01186" lon="0.15458">
        <ele>884.185632</ele>
        <time>2026-03-22T10:57:11.690Z</time>
      </trkpt>
      <trkpt lat="43.01178" lon="0.15447">
        <ele>884.949383</ele>
        <time>2026-03-22T10:57:18.709Z</time>
      </trkpt>
      <trkpt lat="43.01172" lon="0.15436">
        <ele>885.679961</ele>
        <time>2026-03-22T10:57:24.706Z</time>
      </trkpt>
      <trkpt lat="43.01167" lon="0.15426">
        <ele>886.325901</ele>
        <time>2026-03-22T10:57:29.695Z</time>
      </trkpt>
      <trkpt lat="43.01159" lon="0.15417">
        <ele>887.051665</ele>
        <time>2026-03-22T10:57:35.696Z</time>
      </trkpt>
      <trkpt lat="43.01152" lon="0.15407">
        <ele>887.802955</ele>
        <time>2026-03-22T10:57:41.695Z</time>
      </trkpt>
      <trkpt lat="43.01143" lon="0.154">
        <ele>888.488007</ele>
        <time>2026-03-22T10:57:47.683Z</time>
      </trkpt>
      <trkpt lat="43.01135" lon="0.15392">
        <ele>889.197193</ele>
        <time>2026-03-22T10:57:53.710Z</time>
      </trkpt>
      <trkpt lat="43.01126" lon="0.15385">
        <ele>890.471002</ele>
        <time>2026-03-22T10:58:00.704Z</time>
      </trkpt>
      <trkpt lat="43.01117" lon="0.1538">
        <ele>892.151364</ele>
        <time>2026-03-22T10:58:07.709Z</time>
      </trkpt>
      <trkpt lat="43.01109" lon="0.15371">
        <ele>893.720629</ele>
        <time>2026-03-22T10:58:13.709Z</time>
      </trkpt>
      <trkpt lat="43.011" lon="0.15365">
        <ele>895.329734</ele>
        <time>2026-03-22T10:58:19.713Z</time>
      </trkpt>
      <trkpt lat="43.01092" lon="0.15358">
        <ele>896.840593</ele>
        <time>2026-03-22T10:58:25.726Z</time>
      </trkpt>
      <trkpt lat="43.01081" lon="0.15358">
        <ele>898.538827</ele>
        <time>2026-03-22T10:58:32.696Z</time>
      </trkpt>
      <trkpt lat="43.01073" lon="0.15351">
        <ele>900.154119</ele>
        <time>2026-03-22T10:58:37.715Z</time>
      </trkpt>
      <trkpt lat="43.01066" lon="0.15342">
        <ele>901.644389</ele>
        <time>2026-03-22T10:58:42.709Z</time>
      </trkpt>
      <trkpt lat="43.01057" lon="0.15337">
        <ele>903.130801</ele>
        <time>2026-03-22T10:58:47.697Z</time>
      </trkpt>
      <trkpt lat="43.01048" lon="0.15333">
        <ele>904.7406</ele>
        <time>2026-03-22T10:58:52.703Z</time>
      </trkpt>
      <trkpt lat="43.01039" lon="0.15325">
        <ele>906.405321</ele>
        <time>2026-03-22T10:58:57.723Z</time>
      </trkpt>
      <trkpt lat="43.0103" lon="0.15318">
        <ele>908.045102</ele>
        <time>2026-03-22T10:59:04.713Z</time>
      </trkpt>
      <trkpt lat="43.01023" lon="0.1531">
        <ele>909.589028</ele>
        <time>2026-03-22T10:59:10.712Z</time>
      </trkpt>
      <trkpt lat="43.01015" lon="0.15301">
        <ele>911.157907</ele>
        <time>2026-03-22T10:59:16.702Z</time>
      </trkpt>
      <trkpt lat="43.01009" lon="0.1529">
        <ele>912.792889</ele>
        <time>2026-03-22T10:59:23.728Z</time>
      </trkpt>
      <trkpt lat="43.0101" lon="0.15276">
        <ele>914.444741</ele>
        <time>2026-03-22T10:59:30.698Z</time>
      </trkpt>
      <trkpt lat="43.01009" lon="0.15262">
        <ele>916.060817</ele>
        <time>2026-03-22T10:59:36.702Z</time>
      </trkpt>
      <trkpt lat="43.01007" lon="0.15249">
        <ele>917.62919</ele>
        <time>2026-03-22T10:59:42.706Z</time>
      </trkpt>
      <trkpt lat="43.01004" lon="0.15236">
        <ele>918.965118</ele>
        <time>2026-03-22T10:59:48.673Z</time>
      </trkpt>
      <trkpt lat="43.00999" lon="0.15225">
        <ele>920.215466</ele>
        <time>2026-03-22T10:59:55.711Z</time>
      </trkpt>
      <trkpt lat="43.00993" lon="0.15213">
        <ele>921.467354</ele>
        <time>2026-03-22T11:00:03.733Z</time>
      </trkpt>
      <trkpt lat="43.00991" lon="0.152">
        <ele>922.668342</ele>
        <time>2026-03-22T11:00:10.710Z</time>
      </trkpt>
      <trkpt lat="43.00992" lon="0.15188">
        <ele>923.823635</ele>
        <time>2026-03-22T11:00:17.694Z</time>
      </trkpt>
      <trkpt lat="43.00989" lon="0.15174">
        <ele>925.086035</ele>
        <time>2026-03-22T11:00:24.704Z</time>
      </trkpt>
      <trkpt lat="43.00985" lon="0.15163">
        <ele>926.213329</ele>
        <time>2026-03-22T11:00:30.709Z</time>
      </trkpt>
      <trkpt lat="43.0098" lon="0.15151">
        <ele>927.459234</ele>
        <time>2026-03-22T11:00:37.699Z</time>
      </trkpt>
      <trkpt lat="43.00976" lon="0.15139">
        <ele>928.704413</ele>
        <time>2026-03-22T11:00:44.703Z</time>
      </trkpt>
      <trkpt lat="43.00972" lon="0.15127">
        <ele>929.890754</ele>
        <time>2026-03-22T11:00:51.720Z</time>
      </trkpt>
      <trkpt lat="43.00967" lon="0.15116">
        <ele>931.069208</ele>
        <time>2026-03-22T11:00:59.698Z</time>
      </trkpt>
      <trkpt lat="43.00962" lon="0.15104">
        <ele>932.368421</ele>
        <time>2026-03-22T11:01:06.699Z</time>
      </trkpt>
      <trkpt lat="43.00956" lon="0.15092">
        <ele>933.603168</ele>
        <time>2026-03-22T11:01:13.678Z</time>
      </trkpt>
      <trkpt lat="43.00951" lon="0.1508">
        <ele>934.843095</ele>
        <time>2026-03-22T11:01:21.725Z</time>
      </trkpt>
      <trkpt lat="43.00947" lon="0.15068">
        <ele>936.051893</ele>
        <time>2026-03-22T11:01:30.719Z</time>
      </trkpt>
      <trkpt lat="43.00942" lon="0.15058">
        <ele>937.174412</ele>
        <time>2026-03-22T11:01:38.719Z</time>
      </trkpt>
      <trkpt lat="43.00935" lon="0.15049">
        <ele>938.408416</ele>
        <time>2026-03-22T11:01:47.700Z</time>
      </trkpt>
      <trkpt lat="43.00927" lon="0.15041">
        <ele>939.621366</ele>
        <time>2026-03-22T11:01:56.703Z</time>
      </trkpt>
      <trkpt lat="43.00921" lon="0.15031">
        <ele>940.810719</ele>
        <time>2026-03-22T11:02:06.704Z</time>
      </trkpt>
      <trkpt lat="43.00914" lon="0.15022">
        <ele>942.271872</ele>
        <time>2026-03-22T11:02:15.702Z</time>
      </trkpt>
      <trkpt lat="43.00907" lon="0.15015">
        <ele>943.689607</ele>
        <time>2026-03-22T11:02:22.702Z</time>
      </trkpt>
      <trkpt lat="43.00898" lon="0.15008">
        <ele>945.172049</ele>
        <time>2026-03-22T11:02:29.713Z</time>
      </trkpt>
      <trkpt lat="43.00891" lon="0.15">
        <ele>946.625421</ele>
        <time>2026-03-22T11:02:36.703Z</time>
      </trkpt>
      <trkpt lat="43.00883" lon="0.14991">
        <ele>948.193953</ele>
        <time>2026-03-22T11:02:45.317Z</time>
      </trkpt>
      <trkpt lat="43.00876" lon="0.14982">
        <ele>949.647327</ele>
        <time>2026-03-22T11:02:54.314Z</time>
      </trkpt>
      <trkpt lat="43.00868" lon="0.14974">
        <ele>951.167048</ele>
        <time>2026-03-22T11:03:02.316Z</time>
      </trkpt>
      <trkpt lat="43.00863" lon="0.14963">
        <ele>952.662856</ele>
        <time>2026-03-22T11:03:09.328Z</time>
      </trkpt>
      <trkpt lat="43.00856" lon="0.14952">
        <ele>954.252443</ele>
        <time>2026-03-22T11:03:15.333Z</time>
      </trkpt>
      <trkpt lat="43.00851" lon="0.14941">
        <ele>955.729477</ele>
        <time>2026-03-22T11:03:23.354Z</time>
      </trkpt>
      <trkpt lat="43.00843" lon="0.14932">
        <ele>957.259263</ele>
        <time>2026-03-22T11:03:30.338Z</time>
      </trkpt>
      <trkpt lat="43.00837" lon="0.14921">
        <ele>958.789374</ele>
        <time>2026-03-22T11:03:38.318Z</time>
      </trkpt>
      <trkpt lat="43.00831" lon="0.14911">
        <ele>960.259395</ele>
        <time>2026-03-22T11:03:45.299Z</time>
      </trkpt>
      <trkpt lat="43.00827" lon="0.149">
        <ele>961.657869</ele>
        <time>2026-03-22T11:03:54.328Z</time>
      </trkpt>
      <trkpt lat="43.00819" lon="0.14892">
        <ele>963.138908</ele>
        <time>2026-03-22T11:04:02.322Z</time>
      </trkpt>
      <trkpt lat="43.00811" lon="0.14886">
        <ele>964.637674</ele>
        <time>2026-03-22T11:04:10.332Z</time>
      </trkpt>
      <trkpt lat="43.00802" lon="0.14881">
        <ele>966.1332</ele>
        <time>2026-03-22T11:04:18.320Z</time>
      </trkpt>
      <trkpt lat="43.00793" lon="0.14874">
        <ele>967.631968</ele>
        <time>2026-03-22T11:04:28.333Z</time>
      </trkpt>
      <trkpt lat="43.00784" lon="0.1487">
        <ele>969.149838</ele>
        <time>2026-03-22T11:04:36.306Z</time>
      </trkpt>
      <trkpt lat="43.00775" lon="0.14862">
        <ele>970.741441</ele>
        <time>2026-03-22T11:04:43.336Z</time>
      </trkpt>
      <trkpt lat="43.00766" lon="0.14858">
        <ele>972.283128</ele>
        <time>2026-03-22T11:04:51.326Z</time>
      </trkpt>
      <trkpt lat="43.00758" lon="0.14852">
        <ele>973.670382</ele>
        <time>2026-03-22T11:04:58.328Z</time>
      </trkpt>
      <trkpt lat="43.0075" lon="0.14844">
        <ele>975.216682</ele>
        <time>2026-03-22T11:05:07.326Z</time>
      </trkpt>
      <trkpt lat="43.00742" lon="0.14836">
        <ele>976.762982</ele>
        <time>2026-03-22T11:05:15.328Z</time>
      </trkpt>
      <trkpt lat="43.00735" lon="0.14827">
        <ele>978.227656</ele>
        <time>2026-03-22T11:05:21.332Z</time>
      </trkpt>
      <trkpt lat="43.00727" lon="0.1482">
        <ele>979.729667</ele>
        <time>2026-03-22T11:05:28.319Z</time>
      </trkpt>
      <trkpt lat="43.00718" lon="0.14822">
        <ele>981.142625</ele>
        <time>2026-03-22T11:05:37.324Z</time>
      </trkpt>
      <trkpt lat="43.00708" lon="0.14819">
        <ele>982.684233</ele>
        <time>2026-03-22T11:05:44.321Z</time>
      </trkpt>
      <trkpt lat="43.00699" lon="0.14819">
        <ele>984.123533</ele>
        <time>2026-03-22T11:05:51.338Z</time>
      </trkpt>
      <trkpt lat="43.00689" lon="0.14818">
        <ele>985.552745</ele>
        <time>2026-03-22T11:05:59.320Z</time>
      </trkpt>
      <trkpt lat="43.00681" lon="0.14813">
        <ele>987.041801</ele>
        <time>2026-03-22T11:06:06.344Z</time>
      </trkpt>
      <trkpt lat="43.00671" lon="0.14812">
        <ele>988.595334</ele>
        <time>2026-03-22T11:06:15.311Z</time>
      </trkpt>
      <trkpt lat="43.00661" lon="0.14808">
        <ele>990.140468</ele>
        <time>2026-03-22T11:06:23.340Z</time>
      </trkpt>
      <trkpt lat="43.00652" lon="0.14804">
        <ele>991.570557</ele>
        <time>2026-03-22T11:06:30.295Z</time>
      </trkpt>
      <trkpt lat="43.00643" lon="0.14803">
        <ele>992.997212</ele>
        <time>2026-03-22T11:06:36.311Z</time>
      </trkpt>
      <trkpt lat="43.00634" lon="0.14799">
        <ele>994.484149</ele>
        <time>2026-03-22T11:06:41.353Z</time>
      </trkpt>
      <trkpt lat="43.00624" lon="0.14795">
        <ele>996.046551</ele>
        <time>2026-03-22T11:06:47.304Z</time>
      </trkpt>
      <trkpt lat="43.00615" lon="0.14789">
        <ele>996.863243</ele>
        <time>2026-03-22T11:06:54.327Z</time>
      </trkpt>
      <trkpt lat="43.00606" lon="0.14787">
        <ele>997.650003</ele>
        <time>2026-03-22T11:07:00.328Z</time>
      </trkpt>
      <trkpt lat="43.00597" lon="0.14782">
        <ele>998.487416</ele>
        <time>2026-03-22T11:07:05.317Z</time>
      </trkpt>
      <trkpt lat="43.00588" lon="0.14779">
        <ele>999.265899</ele>
        <time>2026-03-22T11:07:11.332Z</time>
      </trkpt>
      <trkpt lat="43.00579" lon="0.14774">
        <ele>1000.02823</ele>
        <time>2026-03-22T11:07:18.326Z</time>
      </trkpt>
      <trkpt lat="43.0057" lon="0.14772">
        <ele>1000.831859</ele>
        <time>2026-03-22T11:07:23.348Z</time>
      </trkpt>
      <trkpt lat="43.0056" lon="0.1477">
        <ele>1001.651553</ele>
        <time>2026-03-22T11:07:28.299Z</time>
      </trkpt>
      <trkpt lat="43.0055" lon="0.14767">
        <ele>1002.533613</ele>
        <time>2026-03-22T11:07:34.316Z</time>
      </trkpt>
      <trkpt lat="43.0054" lon="0.1476">
        <ele>1003.450723</ele>
        <time>2026-03-22T11:07:40.318Z</time>
      </trkpt>
      <trkpt lat="43.00532" lon="0.14751">
        <ele>1004.348225</ele>
        <time>2026-03-22T11:07:46.328Z</time>
      </trkpt>
      <trkpt lat="43.00523" lon="0.14743">
        <ele>1005.20761</ele>
        <time>2026-03-22T11:07:52.331Z</time>
      </trkpt>
      <trkpt lat="43.00517" lon="0.14733">
        <ele>1006.060266</ele>
        <time>2026-03-22T11:07:58.314Z</time>
      </trkpt>
      <trkpt lat="43.00509" lon="0.14723">
        <ele>1006.917765</ele>
        <time>2026-03-22T11:08:05.296Z</time>
      </trkpt>
      <trkpt lat="43.00502" lon="0.14714">
        <ele>1007.750455</ele>
        <time>2026-03-22T11:08:12.329Z</time>
      </trkpt>
      <trkpt lat="43.00473" lon="0.14682">
        <ele>1010.87112</ele>
        <time>2026-03-22T11:12:36.322Z</time>
      </trkpt>
      <trkpt lat="43.00465" lon="0.14677">
        <ele>1011.427272</ele>
        <time>2026-03-22T11:12:42.323Z</time>
      </trkpt>
      <trkpt lat="43.00455" lon="0.14673">
        <ele>1011.93365</ele>
        <time>2026-03-22T11:12:49.325Z</time>
      </trkpt>
      <trkpt lat="43.00446" lon="0.1467">
        <ele>1012.394202</ele>
        <time>2026-03-22T11:12:55.297Z</time>
      </trkpt>
      <trkpt lat="43.00437" lon="0.14668">
        <ele>1012.876883</ele>
        <time>2026-03-22T11:13:01.327Z</time>
      </trkpt>
      <trkpt lat="43.00427" lon="0.14671">
        <ele>1013.38929</ele>
        <time>2026-03-22T11:13:08.347Z</time>
      </trkpt>
      <trkpt lat="43.00418" lon="0.14672">
        <ele>1013.861972</ele>
        <time>2026-03-22T11:13:15.299Z</time>
      </trkpt>
      <trkpt lat="43.00407" lon="0.14672">
        <ele>1014.410397</ele>
        <time>2026-03-22T11:13:21.327Z</time>
      </trkpt>
      <trkpt lat="43.00397" lon="0.14674">
        <ele>1014.9365</ele>
        <time>2026-03-22T11:13:26.329Z</time>
      </trkpt>
      <trkpt lat="43.00389" lon="0.14679">
        <ele>1015.394024</ele>
        <time>2026-03-22T11:13:31.336Z</time>
      </trkpt>
      <trkpt lat="43.00381" lon="0.14687">
        <ele>1015.893113</ele>
        <time>2026-03-22T11:13:37.332Z</time>
      </trkpt>
      <trkpt lat="43.00373" lon="0.14696">
        <ele>1016.397182</ele>
        <time>2026-03-22T11:13:43.337Z</time>
      </trkpt>
      <trkpt lat="43.00367" lon="0.14705">
        <ele>1016.868877</ele>
        <time>2026-03-22T11:13:49.294Z</time>
      </trkpt>
      <trkpt lat="43.00359" lon="0.14716">
        <ele>1017.408538</ele>
        <time>2026-03-22T11:13:55.317Z</time>
      </trkpt>
      <trkpt lat="43.00352" lon="0.14726">
        <ele>1017.935777</ele>
        <time>2026-03-22T11:14:02.319Z</time>
      </trkpt>
      <trkpt lat="43.00346" lon="0.14736">
        <ele>1018.427305</ele>
        <time>2026-03-22T11:14:09.296Z</time>
      </trkpt>
      <trkpt lat="43.00338" lon="0.14746">
        <ele>1018.955154</ele>
        <time>2026-03-22T11:14:16.321Z</time>
      </trkpt>
      <trkpt lat="43.0033" lon="0.14751">
        <ele>1019.415962</ele>
        <time>2026-03-22T11:14:22.322Z</time>
      </trkpt>
      <trkpt lat="43.00321" lon="0.14758">
        <ele>1019.926484</ele>
        <time>2026-03-22T11:14:30.318Z</time>
      </trkpt>
      <trkpt lat="43.00313" lon="0.14766">
        <ele>1020.806951</ele>
        <time>2026-03-22T11:14:37.317Z</time>
      </trkpt>
      <trkpt lat="43.00305" lon="0.14775">
        <ele>1022.194039</ele>
        <time>2026-03-22T11:14:44.325Z</time>
      </trkpt>
      <trkpt lat="43.00297" lon="0.14784">
        <ele>1023.56524</ele>
        <time>2026-03-22T11:14:50.323Z</time>
      </trkpt>
      <trkpt lat="43.00289" lon="0.1479">
        <ele>1024.819599</ele>
        <time>2026-03-22T11:14:55.323Z</time>
      </trkpt>
      <trkpt lat="43.00282" lon="0.148">
        <ele>1026.174378</ele>
        <time>2026-03-22T11:15:02.301Z</time>
      </trkpt>
      <trkpt lat="43.00276" lon="0.1481">
        <ele>1027.406475</ele>
        <time>2026-03-22T11:15:09.318Z</time>
      </trkpt>
      <trkpt lat="43.00269" lon="0.14819">
        <ele>1028.720916</ele>
        <time>2026-03-22T11:15:15.323Z</time>
      </trkpt>
      <trkpt lat="43.00264" lon="0.14831">
        <ele>1030.055</ele>
        <time>2026-03-22T11:15:22.329Z</time>
      </trkpt>
      <trkpt lat="43.00258" lon="0.14842">
        <ele>1031.438432</ele>
        <time>2026-03-22T11:15:29.315Z</time>
      </trkpt>
      <trkpt lat="43.00252" lon="0.14852">
        <ele>1032.684004</ele>
        <time>2026-03-22T11:15:35.330Z</time>
      </trkpt>
      <trkpt lat="43.00247" lon="0.14863">
        <ele>1033.974662</ele>
        <time>2026-03-22T11:15:42.335Z</time>
      </trkpt>
      <trkpt lat="43.00242" lon="0.14874">
        <ele>1035.175507</ele>
        <time>2026-03-22T11:15:48.346Z</time>
      </trkpt>
      <trkpt lat="43.00235" lon="0.14885">
        <ele>1036.621499</ele>
        <time>2026-03-22T11:15:55.297Z</time>
      </trkpt>
      <trkpt lat="43.00228" lon="0.14893">
        <ele>1037.905993</ele>
        <time>2026-03-22T11:16:01.331Z</time>
      </trkpt>
      <trkpt lat="43.00224" lon="0.14905">
        <ele>1039.149707</ele>
        <time>2026-03-22T11:16:07.333Z</time>
      </trkpt>
      <trkpt lat="43.00217" lon="0.14915">
        <ele>1040.471876</ele>
        <time>2026-03-22T11:16:13.336Z</time>
      </trkpt>
      <trkpt lat="43.0021" lon="0.14925">
        <ele>1041.793403</ele>
        <time>2026-03-22T11:16:19.318Z</time>
      </trkpt>
      <trkpt lat="43.00204" lon="0.14933">
        <ele>1043.007472</ele>
        <time>2026-03-22T11:16:25.321Z</time>
      </trkpt>
      <trkpt lat="43.00197" lon="0.14943">
        <ele>1044.275183</ele>
        <time>2026-03-22T11:16:32.323Z</time>
      </trkpt>
      <trkpt lat="43.00192" lon="0.14953">
        <ele>1045.746377</ele>
        <time>2026-03-22T11:16:38.307Z</time>
      </trkpt>
      <trkpt lat="43.00188" lon="0.14966">
        <ele>1047.41681</ele>
        <time>2026-03-22T11:16:44.338Z</time>
      </trkpt>
      <trkpt lat="43.00184" lon="0.14979">
        <ele>1049.120229</ele>
        <time>2026-03-22T11:16:51.386Z</time>
      </trkpt>
      <trkpt lat="43.0018" lon="0.14991">
        <ele>1050.717355</ele>
        <time>2026-03-22T11:16:57.325Z</time>
      </trkpt>
      <trkpt lat="43.00179" lon="0.15004">
        <ele>1052.222573</ele>
        <time>2026-03-22T11:17:05.319Z</time>
      </trkpt>
      <trkpt lat="43.00176" lon="0.15016">
        <ele>1053.758352</ele>
        <time>2026-03-22T11:17:10.326Z</time>
      </trkpt>
      <trkpt lat="43.00171" lon="0.15027">
        <ele>1055.297796</ele>
        <time>2026-03-22T11:17:15.304Z</time>
      </trkpt>
      <trkpt lat="43.00162" lon="0.15031">
        <ele>1056.857735</ele>
        <time>2026-03-22T11:17:23.321Z</time>
      </trkpt>
      <trkpt lat="43.00154" lon="0.15023">
        <ele>1058.42313</ele>
        <time>2026-03-22T11:17:29.330Z</time>
      </trkpt>
      <trkpt lat="43.00147" lon="0.15014">
        <ele>1060.099356</ele>
        <time>2026-03-22T11:17:35.319Z</time>
      </trkpt>
      <trkpt lat="43.00141" lon="0.15003">
        <ele>1061.639045</ele>
        <time>2026-03-22T11:17:42.296Z</time>
      </trkpt>
      <trkpt lat="43.00139" lon="0.14991">
        <ele>1063.099452</ele>
        <time>2026-03-22T11:17:51.322Z</time>
      </trkpt>
      <trkpt lat="43.00137" lon="0.14979">
        <ele>1064.625867</ele>
        <time>2026-03-22T11:17:59.329Z</time>
      </trkpt>
      <trkpt lat="43.00132" lon="0.14967">
        <ele>1066.262262</ele>
        <time>2026-03-22T11:18:07.328Z</time>
      </trkpt>
      <trkpt lat="43.00128" lon="0.14954">
        <ele>1067.898161</ele>
        <time>2026-03-22T11:18:14.309Z</time>
      </trkpt>
      <trkpt lat="43.00123" lon="0.14943">
        <ele>1069.383099</ele>
        <time>2026-03-22T11:18:19.325Z</time>
      </trkpt>
      <trkpt lat="43.00121" lon="0.14931">
        <ele>1070.936977</ele>
        <time>2026-03-22T11:18:25.326Z</time>
      </trkpt>
      <trkpt lat="43.00117" lon="0.14919">
        <ele>1072.463205</ele>
        <time>2026-03-22T11:18:31.331Z</time>
      </trkpt>
      <trkpt lat="43.00112" lon="0.14906">
        <ele>1073.809978</ele>
        <time>2026-03-22T11:18:37.318Z</time>
      </trkpt>
      <trkpt lat="43.00107" lon="0.14896">
        <ele>1074.321006</ele>
        <time>2026-03-22T11:18:42.301Z</time>
      </trkpt>
      <trkpt lat="43.00102" lon="0.14884">
        <ele>1074.882609</ele>
        <time>2026-03-22T11:18:48.331Z</time>
      </trkpt>
      <trkpt lat="43.00097" lon="0.14872">
        <ele>1075.450513</ele>
        <time>2026-03-22T11:18:54.324Z</time>
      </trkpt>
      <trkpt lat="43.00094" lon="0.1486">
        <ele>1075.975531</ele>
        <time>2026-03-22T11:19:00.327Z</time>
      </trkpt>
      <trkpt lat="43.0009" lon="0.14848">
        <ele>1076.51025</ele>
        <time>2026-03-22T11:19:06.328Z</time>
      </trkpt>
      <trkpt lat="43.00086" lon="0.14835">
        <ele>1077.118616</ele>
        <time>2026-03-22T11:19:12.308Z</time>
      </trkpt>
      <trkpt lat="43.00082" lon="0.14824">
        <ele>1077.628125</ele>
        <time>2026-03-22T11:19:18.347Z</time>
      </trkpt>
      <trkpt lat="43.00075" lon="0.14812">
        <ele>1078.234633</ele>
        <time>2026-03-22T11:19:23.297Z</time>
      </trkpt>
      <trkpt lat="43.00069" lon="0.14803">
        <ele>1078.753993</ele>
        <time>2026-03-22T11:19:27.315Z</time>
      </trkpt>
      <trkpt lat="43.00062" lon="0.14792">
        <ele>1079.353327</ele>
        <time>2026-03-22T11:19:32.333Z</time>
      </trkpt>
      <trkpt lat="43.00053" lon="0.14783">
        <ele>1079.965183</ele>
        <time>2026-03-22T11:19:37.366Z</time>
      </trkpt>
      <trkpt lat="43.00045" lon="0.14776">
        <ele>1080.484437</ele>
        <time>2026-03-22T11:19:42.302Z</time>
      </trkpt>
      <trkpt lat="43.00037" lon="0.14768">
        <ele>1081.029407</ele>
        <time>2026-03-22T11:19:47.329Z</time>
      </trkpt>
      <trkpt lat="43.00029" lon="0.14764">
        <ele>1081.552876</ele>
        <time>2026-03-22T11:19:52.297Z</time>
      </trkpt>
      <trkpt lat="43.00021" lon="0.14758">
        <ele>1082.075335</ele>
        <time>2026-03-22T11:19:57.338Z</time>
      </trkpt>
      <trkpt lat="43.00011" lon="0.14755">
        <ele>1082.6054</ele>
        <time>2026-03-22T11:20:04.310Z</time>
      </trkpt>
      <trkpt lat="43.00001" lon="0.14751">
        <ele>1083.191529</ele>
        <time>2026-03-22T11:20:11.317Z</time>
      </trkpt>
      <trkpt lat="42.99991" lon="0.14751">
        <ele>1083.807583</ele>
        <time>2026-03-22T11:20:16.314Z</time>
      </trkpt>
      <trkpt lat="42.99981" lon="0.14751">
        <ele>1084.45316</ele>
        <time>2026-03-22T11:20:20.318Z</time>
      </trkpt>
      <trkpt lat="42.99971" lon="0.14756">
        <ele>1085.144169</ele>
        <time>2026-03-22T11:20:26.316Z</time>
      </trkpt>
      <trkpt lat="42.99962" lon="0.14758">
        <ele>1085.757771</ele>
        <time>2026-03-22T11:20:33.320Z</time>
      </trkpt>
      <trkpt lat="42.99953" lon="0.14762">
        <ele>1086.388185</ele>
        <time>2026-03-22T11:20:38.324Z</time>
      </trkpt>
      <trkpt lat="42.99943" lon="0.14767">
        <ele>1087.063594</ele>
        <time>2026-03-22T11:20:45.307Z</time>
      </trkpt>
      <trkpt lat="42.99933" lon="0.1477">
        <ele>1087.724803</ele>
        <time>2026-03-22T11:20:53.341Z</time>
      </trkpt>
      <trkpt lat="42.99924" lon="0.14775">
        <ele>1088.400428</ele>
        <time>2026-03-22T11:21:01.325Z</time>
      </trkpt>
      <trkpt lat="42.99914" lon="0.14782">
        <ele>1089.089682</ele>
        <time>2026-03-22T11:21:07.318Z</time>
      </trkpt>
      <trkpt lat="42.99905" lon="0.14786">
        <ele>1089.74194</ele>
        <time>2026-03-22T11:21:13.318Z</time>
      </trkpt>
      <trkpt lat="42.99895" lon="0.14786">
        <ele>1090.393376</ele>
        <time>2026-03-22T11:21:23.338Z</time>
      </trkpt>
      <trkpt lat="42.99886" lon="0.14787">
        <ele>1090.988254</ele>
        <time>2026-03-22T11:21:31.295Z</time>
      </trkpt>
      <trkpt lat="42.99876" lon="0.14787">
        <ele>1091.63297</ele>
        <time>2026-03-22T11:21:37.325Z</time>
      </trkpt>
      <trkpt lat="42.99867" lon="0.1479">
        <ele>1092.236194</ele>
        <time>2026-03-22T11:21:43.324Z</time>
      </trkpt>
      <trkpt lat="42.99857" lon="0.1479">
        <ele>1092.908051</ele>
        <time>2026-03-22T11:21:49.302Z</time>
      </trkpt>
      <trkpt lat="42.99847" lon="0.1479">
        <ele>1093.552766</ele>
        <time>2026-03-22T11:21:54.314Z</time>
      </trkpt>
      <trkpt lat="42.99837" lon="0.14789">
        <ele>1094.213588</ele>
        <time>2026-03-22T11:21:58.335Z</time>
      </trkpt>
      <trkpt lat="42.99827" lon="0.14792">
        <ele>1094.929845</ele>
        <time>2026-03-22T11:22:04.330Z</time>
      </trkpt>
      <trkpt lat="42.99816" lon="0.14795">
        <ele>1095.711367</ele>
        <time>2026-03-22T11:22:09.299Z</time>
      </trkpt>
      <trkpt lat="42.99805" lon="0.14794">
        <ele>1096.87109</ele>
        <time>2026-03-22T11:22:14.329Z</time>
      </trkpt>
      <trkpt lat="42.99795" lon="0.14796">
        <ele>1097.972396</ele>
        <time>2026-03-22T11:22:20.318Z</time>
      </trkpt>
      <trkpt lat="42.99789" lon="0.14806">
        <ele>1099.05429</ele>
        <time>2026-03-22T11:22:28.324Z</time>
      </trkpt>
      <trkpt lat="42.998" lon="0.14819">
        <ele>1100.629394</ele>
        <time>2026-03-22T11:26:35.324Z</time>
      </trkpt>
      <trkpt lat="42.99811" lon="0.14818">
        <ele>1101.775415</ele>
        <time>2026-03-22T11:26:41.334Z</time>
      </trkpt>
      <trkpt lat="42.9982" lon="0.14816">
        <ele>1102.798665</ele>
        <time>2026-03-22T11:26:47.317Z</time>
      </trkpt>
      <trkpt lat="42.9983" lon="0.14816">
        <ele>1103.87889</ele>
        <time>2026-03-22T11:26:53.331Z</time>
      </trkpt>
      <trkpt lat="42.99839" lon="0.14821">
        <ele>1104.905293</ele>
        <time>2026-03-22T11:27:00.331Z</time>
      </trkpt>
      <trkpt lat="42.9985" lon="0.14825">
        <ele>1106.100714</ele>
        <time>2026-03-22T11:27:06.329Z</time>
      </trkpt>
      <trkpt lat="42.99859" lon="0.14827">
        <ele>1107.112448</ele>
        <time>2026-03-22T11:27:11.313Z</time>
      </trkpt>
      <trkpt lat="42.9987" lon="0.14827">
        <ele>1108.279199</ele>
        <time>2026-03-22T11:27:17.337Z</time>
      </trkpt>
      <trkpt lat="42.9988" lon="0.14828">
        <ele>1109.448007</ele>
        <time>2026-03-22T11:27:23.301Z</time>
      </trkpt>
      <trkpt lat="42.9989" lon="0.1483">
        <ele>1110.504399</ele>
        <time>2026-03-22T11:27:29.351Z</time>
      </trkpt>
      <trkpt lat="42.999" lon="0.14832">
        <ele>1111.558607</ele>
        <time>2026-03-22T11:27:35.296Z</time>
      </trkpt>
      <trkpt lat="42.99909" lon="0.14835">
        <ele>1112.532845</ele>
        <time>2026-03-22T11:27:40.332Z</time>
      </trkpt>
      <trkpt lat="42.99917" lon="0.14839">
        <ele>1113.53487</ele>
        <time>2026-03-22T11:27:45.333Z</time>
      </trkpt>
      <trkpt lat="42.99926" lon="0.14843">
        <ele>1114.522691</ele>
        <time>2026-03-22T11:27:51.320Z</time>
      </trkpt>
      <trkpt lat="42.99935" lon="0.14846">
        <ele>1115.376952</ele>
        <time>2026-03-22T11:27:59.308Z</time>
      </trkpt>
      <trkpt lat="42.99944" lon="0.1485">
        <ele>1116.125879</ele>
        <time>2026-03-22T11:28:05.317Z</time>
      </trkpt>
      <trkpt lat="42.99953" lon="0.14855">
        <ele>1116.945922</ele>
        <time>2026-03-22T11:28:11.319Z</time>
      </trkpt>
      <trkpt lat="42.99962" lon="0.14861">
        <ele>1117.76191</ele>
        <time>2026-03-22T11:28:19.323Z</time>
      </trkpt>
      <trkpt lat="42.99968" lon="0.14873">
        <ele>1118.602799</ele>
        <time>2026-03-22T11:28:26.331Z</time>
      </trkpt>
      <trkpt lat="42.99973" lon="0.14884">
        <ele>1119.376324</ele>
        <time>2026-03-22T11:28:32.317Z</time>
      </trkpt>
      <trkpt lat="42.9998" lon="0.14893">
        <ele>1120.141449</ele>
        <time>2026-03-22T11:28:38.342Z</time>
      </trkpt>
      <trkpt lat="42.99983" lon="0.14906">
        <ele>1120.91707</ele>
        <time>2026-03-22T11:28:46.324Z</time>
      </trkpt>
      <trkpt lat="42.99985" lon="0.14918">
        <ele>1121.689237</ele>
        <time>2026-03-22T11:28:52.323Z</time>
      </trkpt>
      <trkpt lat="42.99991" lon="0.14928">
        <ele>1122.463964</ele>
        <time>2026-03-22T11:28:58.326Z</time>
      </trkpt>
      <trkpt lat="42.99998" lon="0.14939">
        <ele>1123.291213</ele>
        <time>2026-03-22T11:29:04.327Z</time>
      </trkpt>
      <trkpt lat="43.00004" lon="0.1495">
        <ele>1124.09824</ele>
        <time>2026-03-22T11:29:11.311Z</time>
      </trkpt>
      <trkpt lat="43.00008" lon="0.14962">
        <ele>1124.895665</ele>
        <time>2026-03-22T11:29:18.317Z</time>
      </trkpt>
      <trkpt lat="43.0001" lon="0.14976">
        <ele>1125.722578</ele>
        <time>2026-03-22T11:29:24.332Z</time>
      </trkpt>
      <trkpt lat="43.00011" lon="0.14988">
        <ele>1126.457127</ele>
        <time>2026-03-22T11:29:29.309Z</time>
      </trkpt>
      <trkpt lat="43.00012" lon="0.15002">
        <ele>1127.289096</ele>
        <time>2026-03-22T11:29:35.339Z</time>
      </trkpt>
      <trkpt lat="43.00014" lon="0.15014">
        <ele>1128.030379</ele>
        <time>2026-03-22T11:29:42.319Z</time>
      </trkpt>
      <trkpt lat="43.00017" lon="0.15028">
        <ele>1128.836876</ele>
        <time>2026-03-22T11:29:49.325Z</time>
      </trkpt>
      <trkpt lat="43.00017" lon="0.15041">
        <ele>1129.646357</ele>
        <time>2026-03-22T11:29:56.319Z</time>
      </trkpt>
      <trkpt lat="43.0002" lon="0.15054">
        <ele>1130.972448</ele>
        <time>2026-03-22T11:30:04.297Z</time>
      </trkpt>
      <trkpt lat="43.00019" lon="0.15068">
        <ele>1132.288146</ele>
        <time>2026-03-22T11:30:10.319Z</time>
      </trkpt>
      <trkpt lat="43.00022" lon="0.15081">
        <ele>1133.50119</ele>
        <time>2026-03-22T11:30:16.340Z</time>
      </trkpt>
      <trkpt lat="43.00024" lon="0.15095">
        <ele>1134.831133</ele>
        <time>2026-03-22T11:30:22.298Z</time>
      </trkpt>
      <trkpt lat="43.00025" lon="0.15108">
        <ele>1136.071662</ele>
        <time>2026-03-22T11:30:29.323Z</time>
      </trkpt>
      <trkpt lat="43.00027" lon="0.15121">
        <ele>1137.290022</ele>
        <time>2026-03-22T11:30:36.324Z</time>
      </trkpt>
      <trkpt lat="43.00029" lon="0.15133">
        <ele>1138.461746</ele>
        <time>2026-03-22T11:30:42.343Z</time>
      </trkpt>
      <trkpt lat="43.00031" lon="0.15146">
        <ele>1139.633469</ele>
        <time>2026-03-22T11:30:48.315Z</time>
      </trkpt>
      <trkpt lat="43.00033" lon="0.15158">
        <ele>1140.821594</ele>
        <time>2026-03-22T11:30:54.345Z</time>
      </trkpt>
      <trkpt lat="43.00035" lon="0.1517">
        <ele>1142.002446</ele>
        <time>2026-03-22T11:31:00.316Z</time>
      </trkpt>
      <trkpt lat="43.00038" lon="0.15183">
        <ele>1143.215488</ele>
        <time>2026-03-22T11:31:06.315Z</time>
      </trkpt>
      <trkpt lat="43.00041" lon="0.15196">
        <ele>1144.51989</ele>
        <time>2026-03-22T11:31:13.330Z</time>
      </trkpt>
      <trkpt lat="43.00043" lon="0.15209">
        <ele>1145.707635</ele>
        <time>2026-03-22T11:31:19.313Z</time>
      </trkpt>
      <trkpt lat="43.00042" lon="0.15223">
        <ele>1147.00366</ele>
        <time>2026-03-22T11:31:25.325Z</time>
      </trkpt>
      <trkpt lat="43.0004" lon="0.15236">
        <ele>1148.281055</ele>
        <time>2026-03-22T11:31:31.319Z</time>
      </trkpt>
      <trkpt lat="43.00038" lon="0.15248">
        <ele>1149.436063</ele>
        <time>2026-03-22T11:31:36.328Z</time>
      </trkpt>
      <trkpt lat="43.00037" lon="0.15261">
        <ele>1150.59951</ele>
        <time>2026-03-22T11:31:41.322Z</time>
      </trkpt>
      <trkpt lat="43.00038" lon="0.15273">
        <ele>1151.751802</ele>
        <time>2026-03-22T11:31:47.329Z</time>
      </trkpt>
      <trkpt lat="43.00037" lon="0.15286">
        <ele>1152.827787</ele>
        <time>2026-03-22T11:31:53.299Z</time>
      </trkpt>
      <trkpt lat="43.00039" lon="0.15298">
        <ele>1153.876669</ele>
        <time>2026-03-22T11:32:00.332Z</time>
      </trkpt>
      <trkpt lat="43.00042" lon="0.15311">
        <ele>1154.921617</ele>
        <time>2026-03-22T11:32:06.328Z</time>
      </trkpt>
      <trkpt lat="43.0004" lon="0.15324">
        <ele>1156.026423</ele>
        <time>2026-03-22T11:32:13.319Z</time>
      </trkpt>
      <trkpt lat="43.00042" lon="0.15337">
        <ele>1157.089583</ele>
        <time>2026-03-22T11:32:20.331Z</time>
      </trkpt>
      <trkpt lat="43.00042" lon="0.15352">
        <ele>1158.275733</ele>
        <time>2026-03-22T11:32:27.319Z</time>
      </trkpt>
      <trkpt lat="43.00043" lon="0.15365">
        <ele>1159.406533</ele>
        <time>2026-03-22T11:32:33.319Z</time>
      </trkpt>
      <trkpt lat="43.00043" lon="0.1538">
        <ele>1160.578965</ele>
        <time>2026-03-22T11:32:39.319Z</time>
      </trkpt>
      <trkpt lat="43.0004" lon="0.15394">
        <ele>1161.744661</ele>
        <time>2026-03-22T11:32:45.322Z</time>
      </trkpt>
      <trkpt lat="43.00039" lon="0.15407">
        <ele>1162.867467</ele>
        <time>2026-03-22T11:32:50.324Z</time>
      </trkpt>
      <trkpt lat="43.00034" lon="0.1542">
        <ele>1163.985007</ele>
        <time>2026-03-22T11:32:55.318Z</time>
      </trkpt>
      <trkpt lat="43.00031" lon="0.15432">
        <ele>1165.047345</ele>
        <time>2026-03-22T11:33:01.316Z</time>
      </trkpt>
      <trkpt lat="43.00024" lon="0.15444">
        <ele>1166.227685</ele>
        <time>2026-03-22T11:33:07.308Z</time>
      </trkpt>
      <trkpt lat="43.00017" lon="0.15452">
        <ele>1167.320217</ele>
        <time>2026-03-22T11:33:13.327Z</time>
      </trkpt>
      <trkpt lat="43.00011" lon="0.15464">
        <ele>1168.467766</ele>
        <time>2026-03-22T11:33:19.329Z</time>
      </trkpt>
      <trkpt lat="43.00003" lon="0.15473">
        <ele>1169.606738</ele>
        <time>2026-03-22T11:33:25.328Z</time>
      </trkpt>
      <trkpt lat="42.99994" lon="0.15482">
        <ele>1170.854975</ele>
        <time>2026-03-22T11:33:30.314Z</time>
      </trkpt>
      <trkpt lat="42.99986" lon="0.15489">
        <ele>1171.895794</ele>
        <time>2026-03-22T11:33:35.342Z</time>
      </trkpt>
      <trkpt lat="42.99977" lon="0.15497">
        <ele>1172.830524</ele>
        <time>2026-03-22T11:33:41.297Z</time>
      </trkpt>
      <trkpt lat="42.99969" lon="0.15506">
        <ele>1173.5697</ele>
        <time>2026-03-22T11:33:46.318Z</time>
      </trkpt>
      <trkpt lat="42.99961" lon="0.15516">
        <ele>1174.292787</ele>
        <time>2026-03-22T11:33:52.333Z</time>
      </trkpt>
      <trkpt lat="42.99955" lon="0.15526">
        <ele>1174.965818</ele>
        <time>2026-03-22T11:33:56.298Z</time>
      </trkpt>
      <trkpt lat="42.99953" lon="0.15538">
        <ele>1175.596468</ele>
        <time>2026-03-22T11:34:00.318Z</time>
      </trkpt>
      <trkpt lat="42.99954" lon="0.15553">
        <ele>1176.376309</ele>
        <time>2026-03-22T11:34:05.330Z</time>
      </trkpt>
      <trkpt lat="42.99963" lon="0.15558">
        <ele>1177.044264</ele>
        <time>2026-03-22T11:34:12.331Z</time>
      </trkpt>
      <trkpt lat="42.99972" lon="0.15556">
        <ele>1177.67239</ele>
        <time>2026-03-22T11:34:17.325Z</time>
      </trkpt>
      <trkpt lat="42.99982" lon="0.15555">
        <ele>1178.350588</ele>
        <time>2026-03-22T11:34:23.319Z</time>
      </trkpt>
      <trkpt lat="42.99992" lon="0.15557">
        <ele>1179.065332</ele>
        <time>2026-03-22T11:34:29.319Z</time>
      </trkpt>
      <trkpt lat="43.00001" lon="0.1556">
        <ele>1179.721868</ele>
        <time>2026-03-22T11:34:35.338Z</time>
      </trkpt>
      <trkpt lat="43.00012" lon="0.15562">
        <ele>1180.487997</ele>
        <time>2026-03-22T11:34:41.299Z</time>
      </trkpt>
      <trkpt lat="43.00022" lon="0.15562">
        <ele>1181.187319</ele>
        <time>2026-03-22T11:34:46.331Z</time>
      </trkpt>
      <trkpt lat="43.00031" lon="0.15564">
        <ele>1181.852954</ele>
        <time>2026-03-22T11:34:51.312Z</time>
      </trkpt>
      <trkpt lat="43.00042" lon="0.15564">
        <ele>1182.594181</ele>
        <time>2026-03-22T11:34:57.339Z</time>
      </trkpt>
      <trkpt lat="43.00052" lon="0.15563">
        <ele>1183.322444</ele>
        <time>2026-03-22T11:35:04.324Z</time>
      </trkpt>
      <trkpt lat="43.00062" lon="0.15562">
        <ele>1184.010063</ele>
        <time>2026-03-22T11:35:10.296Z</time>
      </trkpt>
      <trkpt lat="43.00072" lon="0.1556">
        <ele>1184.720628</ele>
        <time>2026-03-22T11:35:15.323Z</time>
      </trkpt>
      <trkpt lat="43.00081" lon="0.15559">
        <ele>1185.455404</ele>
        <time>2026-03-22T11:35:20.301Z</time>
      </trkpt>
      <trkpt lat="43.0009" lon="0.15556">
        <ele>1186.248503</ele>
        <time>2026-03-22T11:35:25.328Z</time>
      </trkpt>
      <trkpt lat="43.001" lon="0.15553">
        <ele>1187.092058</ele>
        <time>2026-03-22T11:35:30.298Z</time>
      </trkpt>
      <trkpt lat="43.00109" lon="0.15551">
        <ele>1187.878105</ele>
        <time>2026-03-22T11:35:34.334Z</time>
      </trkpt>
      <trkpt lat="43.00118" lon="0.15551">
        <ele>1188.651283</ele>
        <time>2026-03-22T11:35:39.335Z</time>
      </trkpt>
      <trkpt lat="43.00129" lon="0.15553">
        <ele>1189.567771</ele>
        <time>2026-03-22T11:35:45.317Z</time>
      </trkpt>
      <trkpt lat="43.0014" lon="0.15554">
        <ele>1190.505079</ele>
        <time>2026-03-22T11:35:51.325Z</time>
      </trkpt>
      <trkpt lat="43.0015" lon="0.15554">
        <ele>1191.380158</ele>
        <time>2026-03-22T11:35:56.332Z</time>
      </trkpt>
      <trkpt lat="43.0016" lon="0.15552">
        <ele>1192.190204</ele>
        <time>2026-03-22T11:36:01.314Z</time>
      </trkpt>
      <trkpt lat="43.0017" lon="0.1555">
        <ele>1193.099968</ele>
        <time>2026-03-22T11:36:07.325Z</time>
      </trkpt>
      <trkpt lat="43.0018" lon="0.15549">
        <ele>1193.961654</ele>
        <time>2026-03-22T11:36:12.314Z</time>
      </trkpt>
      <trkpt lat="43.00191" lon="0.15549">
        <ele>1194.828842</ele>
        <time>2026-03-22T11:36:18.329Z</time>
      </trkpt>
      <trkpt lat="43.00201" lon="0.1555">
        <ele>1195.714856</ele>
        <time>2026-03-22T11:36:23.326Z</time>
      </trkpt>
      <trkpt lat="43.0021" lon="0.15551">
        <ele>1196.515245</ele>
        <time>2026-03-22T11:36:28.319Z</time>
      </trkpt>
      <trkpt lat="43.00228" lon="0.15573">
        <ele>1198.507244</ele>
        <time>2026-03-22T11:42:42.001Z</time>
      </trkpt>
      <trkpt lat="43.0023" lon="0.15585">
        <ele>1199.295886</ele>
        <time>2026-03-22T11:42:47.025Z</time>
      </trkpt>
      <trkpt lat="43.00231" lon="0.156">
        <ele>1200.215282</ele>
        <time>2026-03-22T11:42:52.994Z</time>
      </trkpt>
      <trkpt lat="43.00233" lon="0.15614">
        <ele>1201.165175</ele>
        <time>2026-03-22T11:42:58.997Z</time>
      </trkpt>
      <trkpt lat="43.00234" lon="0.15627">
        <ele>1202.018296</ele>
        <time>2026-03-22T11:43:03.992Z</time>
      </trkpt>
      <trkpt lat="43.00236" lon="0.15641">
        <ele>1202.953578</ele>
        <time>2026-03-22T11:43:09.998Z</time>
      </trkpt>
      <trkpt lat="43.00236" lon="0.15654">
        <ele>1203.820728</ele>
        <time>2026-03-22T11:43:14.987Z</time>
      </trkpt>
      <trkpt lat="43.00237" lon="0.15668">
        <ele>1204.725725</ele>
        <time>2026-03-22T11:43:19.988Z</time>
      </trkpt>
      <trkpt lat="43.00237" lon="0.15683">
        <ele>1205.690597</ele>
        <time>2026-03-22T11:43:24.997Z</time>
      </trkpt>
      <trkpt lat="43.00237" lon="0.15697">
        <ele>1206.608924</ele>
        <time>2026-03-22T11:43:29.987Z</time>
      </trkpt>
      <trkpt lat="43.00237" lon="0.1571">
        <ele>1207.461479</ele>
        <time>2026-03-22T11:43:34.999Z</time>
      </trkpt>
      <trkpt lat="43.00236" lon="0.15724">
        <ele>1208.405234</ele>
        <time>2026-03-22T11:43:39.998Z</time>
      </trkpt>
      <trkpt lat="43.00235" lon="0.15738">
        <ele>1209.311652</ele>
        <time>2026-03-22T11:43:44.990Z</time>
      </trkpt>
      <trkpt lat="43.00236" lon="0.15752">
        <ele>1210.232383</ele>
        <time>2026-03-22T11:43:49.996Z</time>
      </trkpt>
      <trkpt lat="43.00236" lon="0.15765">
        <ele>1211.097909</ele>
        <time>2026-03-22T11:43:54.987Z</time>
      </trkpt>
      <trkpt lat="43.00232" lon="0.15777">
        <ele>1211.968554</ele>
        <time>2026-03-22T11:43:59.992Z</time>
      </trkpt>
      <trkpt lat="43.00226" lon="0.15788">
        <ele>1212.852719</ele>
        <time>2026-03-22T11:44:04.986Z</time>
      </trkpt>
      <trkpt lat="43.00219" lon="0.15798">
        <ele>1213.777505</ele>
        <time>2026-03-22T11:44:09.991Z</time>
      </trkpt>
      <trkpt lat="43.0021" lon="0.15804">
        <ele>1214.6562</ele>
        <time>2026-03-22T11:44:14.987Z</time>
      </trkpt>
      <trkpt lat="43.002" lon="0.15808">
        <ele>1215.617976</ele>
        <time>2026-03-22T11:44:19.992Z</time>
      </trkpt>
      <trkpt lat="43.00191" lon="0.15812">
        <ele>1216.456014</ele>
        <time>2026-03-22T11:44:25.000Z</time>
      </trkpt>
      <trkpt lat="43.00182" lon="0.15813">
        <ele>1217.216201</ele>
        <time>2026-03-22T11:44:29.999Z</time>
      </trkpt>
      <trkpt lat="43.00171" lon="0.15814">
        <ele>1218.079163</ele>
        <time>2026-03-22T11:44:34.991Z</time>
      </trkpt>
      <trkpt lat="43.00161" lon="0.15815">
        <ele>1218.882454</ele>
        <time>2026-03-22T11:44:39.993Z</time>
      </trkpt>
      <trkpt lat="43.00151" lon="0.15819">
        <ele>1219.745492</ele>
        <time>2026-03-22T11:44:44.989Z</time>
      </trkpt>
      <trkpt lat="43.00142" lon="0.15824">
        <ele>1220.564384</ele>
        <time>2026-03-22T11:44:49.997Z</time>
      </trkpt>
      <trkpt lat="43.00132" lon="0.15828">
        <ele>1221.36762</ele>
        <time>2026-03-22T11:44:55.993Z</time>
      </trkpt>
      <trkpt lat="43.00123" lon="0.15831">
        <ele>1222.18044</ele>
        <time>2026-03-22T11:45:01.999Z</time>
      </trkpt>
      <trkpt lat="43.00113" lon="0.15835">
        <ele>1223.006039</ele>
        <time>2026-03-22T11:45:07.990Z</time>
      </trkpt>
      <trkpt lat="43.00104" lon="0.1584">
        <ele>1223.785157</ele>
        <time>2026-03-22T11:45:13.989Z</time>
      </trkpt>
      <trkpt lat="43.00095" lon="0.15843">
        <ele>1224.550722</ele>
        <time>2026-03-22T11:45:18.994Z</time>
      </trkpt>
      <trkpt lat="43.00085" lon="0.15847">
        <ele>1225.355607</ele>
        <time>2026-03-22T11:45:23.988Z</time>
      </trkpt>
      <trkpt lat="43.00076" lon="0.15846">
        <ele>1226.087675</ele>
        <time>2026-03-22T11:45:28.991Z</time>
      </trkpt>
      <trkpt lat="43.00066" lon="0.15846">
        <ele>1226.900929</ele>
        <time>2026-03-22T11:45:34.991Z</time>
      </trkpt>
      <trkpt lat="43.00057" lon="0.15843">
        <ele>1227.650188</ele>
        <time>2026-03-22T11:45:39.988Z</time>
      </trkpt>
      <trkpt lat="43.00048" lon="0.15842">
        <ele>1228.393604</ele>
        <time>2026-03-22T11:45:45.989Z</time>
      </trkpt>
      <trkpt lat="43.00039" lon="0.15843">
        <ele>1229.167576</ele>
        <time>2026-03-22T11:45:51.988Z</time>
      </trkpt>
      <trkpt lat="43.00029" lon="0.15843">
        <ele>1229.96448</ele>
        <time>2026-03-22T11:45:57.989Z</time>
      </trkpt>
      <trkpt lat="43.0002" lon="0.15846">
        <ele>1230.73642</ele>
        <time>2026-03-22T11:46:02.994Z</time>
      </trkpt>
      <trkpt lat="43.0001" lon="0.15852">
        <ele>1231.807535</ele>
        <time>2026-03-22T11:46:09.017Z</time>
      </trkpt>
      <trkpt lat="43.00002" lon="0.15858">
        <ele>1232.876475</ele>
        <time>2026-03-22T11:46:13.987Z</time>
      </trkpt>
      <trkpt lat="42.99995" lon="0.15866">
        <ele>1233.930217</ele>
        <time>2026-03-22T11:46:18.991Z</time>
      </trkpt>
      <trkpt lat="42.99986" lon="0.15873">
        <ele>1235.020603</ele>
        <time>2026-03-22T11:46:24.999Z</time>
      </trkpt>
      <trkpt lat="42.99977" lon="0.15879">
        <ele>1236.153457</ele>
        <time>2026-03-22T11:46:30.994Z</time>
      </trkpt>
      <trkpt lat="42.99968" lon="0.15882">
        <ele>1237.233004</ele>
        <time>2026-03-22T11:46:36.990Z</time>
      </trkpt>
      <trkpt lat="42.99957" lon="0.15882">
        <ele>1238.406614</ele>
        <time>2026-03-22T11:46:42.988Z</time>
      </trkpt>
      <trkpt lat="42.99947" lon="0.15883">
        <ele>1239.604357</ele>
        <time>2026-03-22T11:46:48.997Z</time>
      </trkpt>
      <trkpt lat="42.99938" lon="0.15884">
        <ele>1240.622065</ele>
        <time>2026-03-22T11:46:53.988Z</time>
      </trkpt>
      <trkpt lat="42.99928" lon="0.15888">
        <ele>1241.82739</ele>
        <time>2026-03-22T11:46:59.989Z</time>
      </trkpt>
      <trkpt lat="42.99919" lon="0.15893">
        <ele>1242.901533</ele>
        <time>2026-03-22T11:47:04.989Z</time>
      </trkpt>
      <trkpt lat="42.99909" lon="0.159">
        <ele>1244.092282</ele>
        <time>2026-03-22T11:47:10.995Z</time>
      </trkpt>
      <trkpt lat="42.99902" lon="0.15907">
        <ele>1245.167684</ele>
        <time>2026-03-22T11:47:16.996Z</time>
      </trkpt>
      <trkpt lat="42.99894" lon="0.15915">
        <ele>1246.233155</ele>
        <time>2026-03-22T11:47:22.991Z</time>
      </trkpt>
      <trkpt lat="42.99885" lon="0.15923">
        <ele>1247.434346</ele>
        <time>2026-03-22T11:47:28.993Z</time>
      </trkpt>
      <trkpt lat="42.99878" lon="0.15933">
        <ele>1248.611457</ele>
        <time>2026-03-22T11:47:34.989Z</time>
      </trkpt>
      <trkpt lat="42.99871" lon="0.15941">
        <ele>1249.631422</ele>
        <time>2026-03-22T11:47:39.991Z</time>
      </trkpt>
      <trkpt lat="42.99863" lon="0.15949">
        <ele>1250.705634</ele>
        <time>2026-03-22T11:47:45.993Z</time>
      </trkpt>
      <trkpt lat="42.99856" lon="0.15959">
        <ele>1252.123947</ele>
        <time>2026-03-22T11:47:52.991Z</time>
      </trkpt>
      <trkpt lat="42.99848" lon="0.15968">
        <ele>1253.665882</ele>
        <time>2026-03-22T11:47:59.026Z</time>
      </trkpt>
      <trkpt lat="42.99842" lon="0.15977">
        <ele>1255.07826</ele>
        <time>2026-03-22T11:48:04.990Z</time>
      </trkpt>
      <trkpt lat="42.99834" lon="0.15984">
        <ele>1256.550238</ele>
        <time>2026-03-22T11:48:10.991Z</time>
      </trkpt>
      <trkpt lat="42.99827" lon="0.15992">
        <ele>1257.932254</ele>
        <time>2026-03-22T11:48:15.991Z</time>
      </trkpt>
      <trkpt lat="42.99818" lon="0.15997">
        <ele>1259.514056</ele>
        <time>2026-03-22T11:48:21.994Z</time>
      </trkpt>
      <trkpt lat="42.9981" lon="0.16004">
        <ele>1260.980211</ele>
        <time>2026-03-22T11:48:27.991Z</time>
      </trkpt>
      <trkpt lat="42.998" lon="0.16008">
        <ele>1262.532198</ele>
        <time>2026-03-22T11:48:34.993Z</time>
      </trkpt>
      <trkpt lat="42.9979" lon="0.16014">
        <ele>1264.179746</ele>
        <time>2026-03-22T11:48:40.994Z</time>
      </trkpt>
      <trkpt lat="42.99782" lon="0.16021">
        <ele>1265.730527</ele>
        <time>2026-03-22T11:48:47.019Z</time>
      </trkpt>
      <trkpt lat="42.99772" lon="0.16026">
        <ele>1267.290219</ele>
        <time>2026-03-22T11:48:53.995Z</time>
      </trkpt>
      <trkpt lat="42.99764" lon="0.16032">
        <ele>1268.782713</ele>
        <time>2026-03-22T11:49:00.989Z</time>
      </trkpt>
      <trkpt lat="42.99755" lon="0.16041">
        <ele>1270.432989</ele>
        <time>2026-03-22T11:49:06.996Z</time>
      </trkpt>
      <trkpt lat="42.99747" lon="0.16051">
        <ele>1272.087969</ele>
        <time>2026-03-22T11:49:13.996Z</time>
      </trkpt>
      <trkpt lat="42.99738" lon="0.16057">
        <ele>1273.624777</ele>
        <time>2026-03-22T11:49:18.995Z</time>
      </trkpt>
      <trkpt lat="42.9973" lon="0.16065">
        <ele>1275.268858</ele>
        <time>2026-03-22T11:49:23.995Z</time>
      </trkpt>
      <trkpt lat="42.9972" lon="0.16073">
        <ele>1276.935577</ele>
        <time>2026-03-22T11:49:28.989Z</time>
      </trkpt>
      <trkpt lat="42.99713" lon="0.16082">
        <ele>1278.437829</ele>
        <time>2026-03-22T11:49:33.989Z</time>
      </trkpt>
      <trkpt lat="42.99707" lon="0.16092">
        <ele>1279.776949</ele>
        <time>2026-03-22T11:49:39.000Z</time>
      </trkpt>
      <trkpt lat="42.997" lon="0.16102">
        <ele>1281.107341</ele>
        <time>2026-03-22T11:49:44.997Z</time>
      </trkpt>
      <trkpt lat="42.99693" lon="0.1611">
        <ele>1282.299076</ele>
        <time>2026-03-22T11:49:50.991Z</time>
      </trkpt>
      <trkpt lat="42.99685" lon="0.1612">
        <ele>1283.676617</ele>
        <time>2026-03-22T11:49:56.991Z</time>
      </trkpt>
      <trkpt lat="42.99678" lon="0.16129">
        <ele>1284.997745</ele>
        <time>2026-03-22T11:50:03.012Z</time>
      </trkpt>
      <trkpt lat="42.99673" lon="0.16141">
        <ele>1286.255026</ele>
        <time>2026-03-22T11:50:07.991Z</time>
      </trkpt>
      <trkpt lat="42.99667" lon="0.16151">
        <ele>1287.49893</ele>
        <time>2026-03-22T11:50:13.002Z</time>
      </trkpt>
      <trkpt lat="42.99662" lon="0.16164">
        <ele>1288.850169</ele>
        <time>2026-03-22T11:50:18.992Z</time>
      </trkpt>
      <trkpt lat="42.99655" lon="0.16174">
        <ele>1290.169884</ele>
        <time>2026-03-22T11:50:24.989Z</time>
      </trkpt>
      <trkpt lat="42.99649" lon="0.16183">
        <ele>1291.359424</ele>
        <time>2026-03-22T11:50:30.497Z</time>
      </trkpt>
      <trkpt lat="42.99641" lon="0.16192">
        <ele>1292.692532</ele>
        <time>2026-03-22T11:50:36.497Z</time>
      </trkpt>
      <trkpt lat="42.99637" lon="0.16205">
        <ele>1294.006467</ele>
        <time>2026-03-22T11:50:41.495Z</time>
      </trkpt>
      <trkpt lat="42.99633" lon="0.16218">
        <ele>1295.349478</ele>
        <time>2026-03-22T11:50:46.472Z</time>
      </trkpt>
      <trkpt lat="42.99628" lon="0.1623">
        <ele>1296.635116</ele>
        <time>2026-03-22T11:50:51.500Z</time>
      </trkpt>
      <trkpt lat="42.99622" lon="0.16241">
        <ele>1297.993941</ele>
        <time>2026-03-22T11:50:57.477Z</time>
      </trkpt>
      <trkpt lat="42.99617" lon="0.16252">
        <ele>1299.193607</ele>
        <time>2026-03-22T11:51:02.500Z</time>
      </trkpt>
      <trkpt lat="42.99612" lon="0.16265">
        <ele>1300.604063</ele>
        <time>2026-03-22T11:51:08.500Z</time>
      </trkpt>
      <trkpt lat="42.99608" lon="0.16278">
        <ele>1301.935606</ele>
        <time>2026-03-22T11:51:13.496Z</time>
      </trkpt>
      <trkpt lat="42.99605" lon="0.16291">
        <ele>1302.957199</ele>
        <time>2026-03-22T11:51:18.472Z</time>
      </trkpt>
      <trkpt lat="42.996" lon="0.16304">
        <ele>1303.875664</ele>
        <time>2026-03-22T11:51:24.501Z</time>
      </trkpt>
      <trkpt lat="42.99596" lon="0.16317">
        <ele>1304.783059</ele>
        <time>2026-03-22T11:51:31.514Z</time>
      </trkpt>
      <trkpt lat="42.99594" lon="0.1633">
        <ele>1305.655288</ele>
        <time>2026-03-22T11:51:37.502Z</time>
      </trkpt>
      <trkpt lat="42.99592" lon="0.16343">
        <ele>1306.519719</ele>
        <time>2026-03-22T11:51:43.496Z</time>
      </trkpt>
      <trkpt lat="42.99589" lon="0.16355">
        <ele>1307.340196</ele>
        <time>2026-03-22T11:51:48.504Z</time>
      </trkpt>
      <trkpt lat="42.99586" lon="0.16367">
        <ele>1308.133253</ele>
        <time>2026-03-22T11:51:53.506Z</time>
      </trkpt>
      <trkpt lat="42.99583" lon="0.1638">
        <ele>1309.028431</ele>
        <time>2026-03-22T11:51:58.503Z</time>
      </trkpt>
      <trkpt lat="42.99578" lon="0.16393">
        <ele>1309.9542</ele>
        <time>2026-03-22T11:52:04.508Z</time>
      </trkpt>
      <trkpt lat="42.99572" lon="0.16404">
        <ele>1310.843921</ele>
        <time>2026-03-22T11:52:09.512Z</time>
      </trkpt>
      <trkpt lat="42.99566" lon="0.16415">
        <ele>1311.737124</ele>
        <time>2026-03-22T11:52:15.526Z</time>
      </trkpt>
      <trkpt lat="42.99559" lon="0.16426">
        <ele>1312.651821</ele>
        <time>2026-03-22T11:52:21.510Z</time>
      </trkpt>
      <trkpt lat="42.99553" lon="0.16435">
        <ele>1313.449875</ele>
        <time>2026-03-22T11:52:26.478Z</time>
      </trkpt>
      <trkpt lat="42.99546" lon="0.16446">
        <ele>1314.351768</ele>
        <time>2026-03-22T11:52:32.492Z</time>
      </trkpt>
      <trkpt lat="42.9954" lon="0.16456">
        <ele>1315.162737</ele>
        <time>2026-03-22T11:52:38.473Z</time>
      </trkpt>
      <trkpt lat="42.99532" lon="0.16466">
        <ele>1316.104444</ele>
        <time>2026-03-22T11:52:44.490Z</time>
      </trkpt>
      <trkpt lat="42.99527" lon="0.16477">
        <ele>1316.940322</ele>
        <time>2026-03-22T11:52:50.478Z</time>
      </trkpt>
      <trkpt lat="42.99523" lon="0.16489">
        <ele>1317.825773</ele>
        <time>2026-03-22T11:52:56.497Z</time>
      </trkpt>
      <trkpt lat="42.99521" lon="0.16503">
        <ele>1318.897958</ele>
        <time>2026-03-22T11:53:02.500Z</time>
      </trkpt>
      <trkpt lat="42.99521" lon="0.16517">
        <ele>1320.153018</ele>
        <time>2026-03-22T11:53:08.516Z</time>
      </trkpt>
      <trkpt lat="42.99522" lon="0.16529">
        <ele>1321.234966</ele>
        <time>2026-03-22T11:53:13.502Z</time>
      </trkpt>
      <trkpt lat="42.99521" lon="0.16543">
        <ele>1322.455599</ele>
        <time>2026-03-22T11:53:19.506Z</time>
      </trkpt>
      <trkpt lat="42.99521" lon="0.16557">
        <ele>1323.676754</ele>
        <time>2026-03-22T11:53:25.500Z</time>
      </trkpt>
      <trkpt lat="42.99519" lon="0.1657">
        <ele>1324.806108</ele>
        <time>2026-03-22T11:53:31.502Z</time>
      </trkpt>
      <trkpt lat="42.99518" lon="0.16584">
        <ele>1326.027902</ele>
        <time>2026-03-22T11:53:37.479Z</time>
      </trkpt>
      <trkpt lat="42.99516" lon="0.16597">
        <ele>1327.190405</ele>
        <time>2026-03-22T11:53:43.505Z</time>
      </trkpt>
      <trkpt lat="42.99516" lon="0.16612">
        <ele>1328.462604</ele>
        <time>2026-03-22T11:53:49.497Z</time>
      </trkpt>
      <trkpt lat="42.99516" lon="0.16626">
        <ele>1329.674122</ele>
        <time>2026-03-22T11:53:55.495Z</time>
      </trkpt>
      <trkpt lat="42.99516" lon="0.16638">
        <ele>1330.758626</ele>
        <time>2026-03-22T11:54:01.482Z</time>
      </trkpt>
      <trkpt lat="42.99515" lon="0.16651">
        <ele>1331.93772</ele>
        <time>2026-03-22T11:54:07.498Z</time>
      </trkpt>
      <trkpt lat="42.99514" lon="0.16666">
        <ele>1333.178513</ele>
        <time>2026-03-22T11:54:13.472Z</time>
      </trkpt>
      <trkpt lat="42.99513" lon="0.16678">
        <ele>1334.295741</ele>
        <time>2026-03-22T11:54:19.518Z</time>
      </trkpt>
      <trkpt lat="42.99511" lon="0.16692">
        <ele>1335.475227</ele>
        <time>2026-03-22T11:54:25.498Z</time>
      </trkpt>
      <trkpt lat="42.99508" lon="0.16704">
        <ele>1336.600427</ele>
        <time>2026-03-22T11:54:30.513Z</time>
      </trkpt>
      <trkpt lat="42.99505" lon="0.16716">
        <ele>1337.731049</ele>
        <time>2026-03-22T11:54:35.490Z</time>
      </trkpt>
      <trkpt lat="42.99498" lon="0.16728">
        <ele>1339.031989</ele>
        <time>2026-03-22T11:54:41.500Z</time>
      </trkpt>
      <trkpt lat="42.9949" lon="0.16734">
        <ele>1340.259545</ele>
        <time>2026-03-22T11:54:46.488Z</time>
      </trkpt>
      <trkpt lat="42.99481" lon="0.16739">
        <ele>1341.536243</ele>
        <time>2026-03-22T11:54:51.502Z</time>
      </trkpt>
      <trkpt lat="42.99467" lon="0.16735">
        <ele>1343.420618</ele>
        <time>2026-03-22T11:59:59.507Z</time>
      </trkpt>
      <trkpt lat="42.99461" lon="0.16724">
        <ele>1344.703638</ele>
        <time>2026-03-22T12:00:08.479Z</time>
      </trkpt>
      <trkpt lat="42.99456" lon="0.16713">
        <ele>1345.935476</ele>
        <time>2026-03-22T12:00:19.491Z</time>
      </trkpt>
      <trkpt lat="42.99448" lon="0.16706">
        <ele>1347.188941</ele>
        <time>2026-03-22T12:00:30.513Z</time>
      </trkpt>
      <trkpt lat="42.99439" lon="0.16703">
        <ele>1348.414833</ele>
        <time>2026-03-22T12:00:40.475Z</time>
      </trkpt>
      <trkpt lat="42.99431" lon="0.16697">
        <ele>1349.69706</ele>
        <time>2026-03-22T12:00:53.510Z</time>
      </trkpt>
      <trkpt lat="42.99425" lon="0.16686">
        <ele>1350.982874</ele>
        <time>2026-03-22T12:01:05.498Z</time>
      </trkpt>
      <trkpt lat="42.99423" lon="0.16672">
        <ele>1352.305867</ele>
        <time>2026-03-22T12:01:17.489Z</time>
      </trkpt>
      <trkpt lat="42.99419" lon="0.16661">
        <ele>1353.531907</ele>
        <time>2026-03-22T12:01:26.484Z</time>
      </trkpt>
      <trkpt lat="42.99416" lon="0.1665">
        <ele>1354.719853</ele>
        <time>2026-03-22T12:01:35.515Z</time>
      </trkpt>
      <trkpt lat="42.99413" lon="0.16637">
        <ele>1356.026154</ele>
        <time>2026-03-22T12:01:45.518Z</time>
      </trkpt>
      <trkpt lat="42.9941" lon="0.16625">
        <ele>1357.272408</ele>
        <time>2026-03-22T12:01:58.510Z</time>
      </trkpt>
      <trkpt lat="42.99406" lon="0.16614">
        <ele>1358.480486</ele>
        <time>2026-03-22T12:02:07.513Z</time>
      </trkpt>
      <trkpt lat="42.99399" lon="0.16593">
        <ele>1360.678101</ele>
        <time>2026-03-22T12:09:47.869Z</time>
      </trkpt>
      <trkpt lat="42.99397" lon="0.16581">
        <ele>1361.889945</ele>
        <time>2026-03-22T12:09:56.859Z</time>
      </trkpt>
      <trkpt lat="42.99398" lon="0.16568">
        <ele>1363.165575</ele>
        <time>2026-03-22T12:10:04.872Z</time>
      </trkpt>
      <trkpt lat="42.99398" lon="0.16555">
        <ele>1364.011033</ele>
        <time>2026-03-22T12:10:11.871Z</time>
      </trkpt>
      <trkpt lat="42.99397" lon="0.16543">
        <ele>1364.7485</ele>
        <time>2026-03-22T12:10:16.874Z</time>
      </trkpt>
      <trkpt lat="42.99398" lon="0.16529">
        <ele>1365.532735</ele>
        <time>2026-03-22T12:10:21.870Z</time>
      </trkpt>
      <trkpt lat="42.99398" lon="0.16516">
        <ele>1366.340384</ele>
        <time>2026-03-22T12:10:27.836Z</time>
      </trkpt>
      <trkpt lat="42.99398" lon="0.16502">
        <ele>1367.154094</ele>
        <time>2026-03-22T12:10:32.871Z</time>
      </trkpt>
      <trkpt lat="42.99398" lon="0.16488">
        <ele>1367.97374</ele>
        <time>2026-03-22T12:10:37.864Z</time>
      </trkpt>
      <trkpt lat="42.994" lon="0.16475">
        <ele>1368.766804</ele>
        <time>2026-03-22T12:10:42.880Z</time>
      </trkpt>
      <trkpt lat="42.99402" lon="0.16462">
        <ele>1369.578373</ele>
        <time>2026-03-22T12:10:47.868Z</time>
      </trkpt>
      <trkpt lat="42.99405" lon="0.16449">
        <ele>1370.376531</ele>
        <time>2026-03-22T12:10:52.837Z</time>
      </trkpt>
      <trkpt lat="42.99407" lon="0.16435">
        <ele>1371.199785</ele>
        <time>2026-03-22T12:10:57.858Z</time>
      </trkpt>
      <trkpt lat="42.99411" lon="0.16422">
        <ele>1372.036427</ele>
        <time>2026-03-22T12:11:02.873Z</time>
      </trkpt>
      <trkpt lat="42.99414" lon="0.1641">
        <ele>1372.812012</ele>
        <time>2026-03-22T12:11:07.858Z</time>
      </trkpt>
      <trkpt lat="42.99418" lon="0.16398">
        <ele>1373.548625</ele>
        <time>2026-03-22T12:11:14.858Z</time>
      </trkpt>
      <trkpt lat="42.99425" lon="0.16375">
        <ele>1375.106072</ele>
        <time>2026-03-22T12:12:39.390Z</time>
      </trkpt>
      <trkpt lat="42.99429" lon="0.16362">
        <ele>1375.916288</ele>
        <time>2026-03-22T12:12:44.374Z</time>
      </trkpt>
      <trkpt lat="42.99433" lon="0.1635">
        <ele>1376.676484</ele>
        <time>2026-03-22T12:12:49.384Z</time>
      </trkpt>
      <trkpt lat="42.99438" lon="0.16337">
        <ele>1377.539991</ele>
        <time>2026-03-22T12:12:54.399Z</time>
      </trkpt>
      <trkpt lat="42.99439" lon="0.16323">
        <ele>1378.059633</ele>
        <time>2026-03-22T12:12:59.403Z</time>
      </trkpt>
      <trkpt lat="42.99442" lon="0.16311">
        <ele>1378.229224</ele>
        <time>2026-03-22T12:13:05.387Z</time>
      </trkpt>
      <trkpt lat="42.99444" lon="0.16299">
        <ele>1378.394065</ele>
        <time>2026-03-22T12:13:09.379Z</time>
      </trkpt>
      <trkpt lat="42.99447" lon="0.16285">
        <ele>1378.585493</ele>
        <time>2026-03-22T12:13:14.389Z</time>
      </trkpt>
      <trkpt lat="42.99449" lon="0.16271">
        <ele>1378.769118</ele>
        <time>2026-03-22T12:13:18.409Z</time>
      </trkpt>
      <trkpt lat="42.99449" lon="0.16257">
        <ele>1378.9471</ele>
        <time>2026-03-22T12:13:22.427Z</time>
      </trkpt>
      <trkpt lat="42.9945" lon="0.16244">
        <ele>1379.118812</ele>
        <time>2026-03-22T12:13:26.398Z</time>
      </trkpt>
      <trkpt lat="42.99452" lon="0.16231">
        <ele>1379.298806</ele>
        <time>2026-03-22T12:13:31.363Z</time>
      </trkpt>
      <trkpt lat="42.99453" lon="0.16217">
        <ele>1379.472882</ele>
        <time>2026-03-22T12:13:36.395Z</time>
      </trkpt>
      <trkpt lat="42.99454" lon="0.16204">
        <ele>1379.646141</ele>
        <time>2026-03-22T12:13:41.394Z</time>
      </trkpt>
      <trkpt lat="42.99453" lon="0.16191">
        <ele>1379.816872</ele>
        <time>2026-03-22T12:13:46.393Z</time>
      </trkpt>
      <trkpt lat="42.99452" lon="0.16177">
        <ele>1380.001142</ele>
        <time>2026-03-22T12:13:51.395Z</time>
      </trkpt>
      <trkpt lat="42.9946" lon="0.16135">
        <ele>1380.576685</ele>
        <time>2026-03-22T12:15:21.403Z</time>
      </trkpt>
      <trkpt lat="42.99466" lon="0.16121">
        <ele>1380.775256</ele>
        <time>2026-03-22T12:15:25.413Z</time>
      </trkpt>
      <trkpt lat="42.99476" lon="0.16122">
        <ele>1380.959776</ele>
        <time>2026-03-22T12:15:28.408Z</time>
      </trkpt>
      <trkpt lat="42.99484" lon="0.16135">
        <ele>1381.185266</ele>
        <time>2026-03-22T12:15:30.388Z</time>
      </trkpt>
      <trkpt lat="42.9949" lon="0.16151">
        <ele>1379.890139</ele>
        <time>2026-03-22T12:15:32.414Z</time>
      </trkpt>
      <trkpt lat="42.99498" lon="0.1616">
        <ele>1378.894261</ele>
        <time>2026-03-22T12:15:35.362Z</time>
      </trkpt>
      <trkpt lat="42.99499" lon="0.16147">
        <ele>1377.968038</ele>
        <time>2026-03-22T12:15:37.397Z</time>
      </trkpt>
      <trkpt lat="42.995" lon="0.16135">
        <ele>1377.050162</ele>
        <time>2026-03-22T12:15:39.394Z</time>
      </trkpt>
      <trkpt lat="42.995" lon="0.16121">
        <ele>1376.035364</ele>
        <time>2026-03-22T12:15:41.393Z</time>
      </trkpt>
      <trkpt lat="42.99499" lon="0.16109">
        <ele>1375.117773</ele>
        <time>2026-03-22T12:15:43.398Z</time>
      </trkpt>
      <trkpt lat="42.99499" lon="0.16092">
        <ele>1373.892622</ele>
        <time>2026-03-22T12:15:46.393Z</time>
      </trkpt>
      <trkpt lat="42.995" lon="0.16077">
        <ele>1372.824185</ele>
        <time>2026-03-22T12:15:49.366Z</time>
      </trkpt>
      <trkpt lat="42.99513" lon="0.16082">
        <ele>1371.479159</ele>
        <time>2026-03-22T12:15:52.397Z</time>
      </trkpt>
      <trkpt lat="42.99523" lon="0.1609">
        <ele>1370.376295</ele>
        <time>2026-03-22T12:15:54.388Z</time>
      </trkpt>
      <trkpt lat="42.9953" lon="0.161">
        <ele>1369.346894</ele>
        <time>2026-03-22T12:15:56.386Z</time>
      </trkpt>
      <trkpt lat="42.99539" lon="0.1609">
        <ele>1368.141536</ele>
        <time>2026-03-22T12:16:00.370Z</time>
      </trkpt>
      <trkpt lat="42.99538" lon="0.16072">
        <ele>1366.825914</ele>
        <time>2026-03-22T12:16:02.381Z</time>
      </trkpt>
      <trkpt lat="42.99532" lon="0.16056">
        <ele>1365.548876</ele>
        <time>2026-03-22T12:16:04.390Z</time>
      </trkpt>
      <trkpt lat="42.99525" lon="0.16047">
        <ele>1364.565435</ele>
        <time>2026-03-22T12:16:06.388Z</time>
      </trkpt>
      <trkpt lat="42.99524" lon="0.16034">
        <ele>1363.602888</ele>
        <time>2026-03-22T12:16:09.405Z</time>
      </trkpt>
      <trkpt lat="42.99536" lon="0.16027">
        <ele>1361.510566</ele>
        <time>2026-03-22T12:16:12.384Z</time>
      </trkpt>
      <trkpt lat="42.99546" lon="0.1603">
        <ele>1359.459352</ele>
        <time>2026-03-22T12:16:14.411Z</time>
      </trkpt>
      <trkpt lat="42.99557" lon="0.16027">
        <ele>1357.294709</ele>
        <time>2026-03-22T12:16:17.386Z</time>
      </trkpt>
      <trkpt lat="42.99567" lon="0.16018">
        <ele>1355.015892</ele>
        <time>2026-03-22T12:16:20.387Z</time>
      </trkpt>
      <trkpt lat="42.99579" lon="0.16021">
        <ele>1352.704569</ele>
        <time>2026-03-22T12:16:22.408Z</time>
      </trkpt>
      <trkpt lat="42.9959" lon="0.16023">
        <ele>1350.41754</ele>
        <time>2026-03-22T12:16:24.395Z</time>
      </trkpt>
      <trkpt lat="42.99595" lon="0.16033">
        <ele>1348.660858</ele>
        <time>2026-03-22T12:16:27.417Z</time>
      </trkpt>
      <trkpt lat="42.99599" lon="0.16016">
        <ele>1346.132368</ele>
        <time>2026-03-22T12:16:31.381Z</time>
      </trkpt>
      <trkpt lat="42.99621" lon="0.16007">
        <ele>1341.739032</ele>
        <time>2026-03-22T12:16:55.413Z</time>
      </trkpt>
      <trkpt lat="42.99629" lon="0.15996">
        <ele>1339.380032</ele>
        <time>2026-03-22T12:17:07.403Z</time>
      </trkpt>
      <trkpt lat="42.99641" lon="0.15995">
        <ele>1337.2182</ele>
        <time>2026-03-22T12:17:09.391Z</time>
      </trkpt>
      <trkpt lat="42.9965" lon="0.15989">
        <ele>1335.227611</ele>
        <time>2026-03-22T12:17:11.389Z</time>
      </trkpt>
      <trkpt lat="42.99658" lon="0.1598">
        <ele>1333.0966</ele>
        <time>2026-03-22T12:17:13.392Z</time>
      </trkpt>
      <trkpt lat="42.99666" lon="0.15972">
        <ele>1331.336147</ele>
        <time>2026-03-22T12:17:15.394Z</time>
      </trkpt>
      <trkpt lat="42.99673" lon="0.15964">
        <ele>1329.560635</ele>
        <time>2026-03-22T12:17:17.406Z</time>
      </trkpt>
      <trkpt lat="42.99681" lon="0.15979">
        <ele>1327.043714</ele>
        <time>2026-03-22T12:17:20.382Z</time>
      </trkpt>
      <trkpt lat="42.99685" lon="0.15993">
        <ele>1325.12033</ele>
        <time>2026-03-22T12:17:22.398Z</time>
      </trkpt>
      <trkpt lat="42.99686" lon="0.16009">
        <ele>1322.917594</ele>
        <time>2026-03-22T12:17:25.398Z</time>
      </trkpt>
      <trkpt lat="42.99692" lon="0.15999">
        <ele>1321.268976</ele>
        <time>2026-03-22T12:17:30.397Z</time>
      </trkpt>
      <trkpt lat="42.99697" lon="0.15989">
        <ele>1319.577955</ele>
        <time>2026-03-22T12:17:34.397Z</time>
      </trkpt>
      <trkpt lat="42.99702" lon="0.15978">
        <ele>1317.819413</ele>
        <time>2026-03-22T12:17:37.408Z</time>
      </trkpt>
      <trkpt lat="42.99707" lon="0.15961">
        <ele>1315.395689</ele>
        <time>2026-03-22T12:17:40.391Z</time>
      </trkpt>
      <trkpt lat="42.99715" lon="0.15951">
        <ele>1313.434392</ele>
        <time>2026-03-22T12:17:42.370Z</time>
      </trkpt>
      <trkpt lat="42.99724" lon="0.15958">
        <ele>1311.54813</ele>
        <time>2026-03-22T12:17:44.387Z</time>
      </trkpt>
      <trkpt lat="42.9973" lon="0.15972">
        <ele>1309.3872</ele>
        <time>2026-03-22T12:17:47.371Z</time>
      </trkpt>
      <trkpt lat="42.99734" lon="0.15984">
        <ele>1307.640361</ele>
        <time>2026-03-22T12:17:49.397Z</time>
      </trkpt>
      <trkpt lat="42.99733" lon="0.15997">
        <ele>1305.958476</ele>
        <time>2026-03-22T12:17:51.391Z</time>
      </trkpt>
      <trkpt lat="42.99742" lon="0.15993">
        <ele>1304.276459</ele>
        <time>2026-03-22T12:17:59.399Z</time>
      </trkpt>
      <trkpt lat="42.9975" lon="0.15979">
        <ele>1301.896321</ele>
        <time>2026-03-22T12:18:02.388Z</time>
      </trkpt>
      <trkpt lat="42.99753" lon="0.15967">
        <ele>1300.181006</ele>
        <time>2026-03-22T12:18:04.383Z</time>
      </trkpt>
      <trkpt lat="42.99757" lon="0.15955">
        <ele>1298.445135</ele>
        <time>2026-03-22T12:18:06.372Z</time>
      </trkpt>
      <trkpt lat="42.99762" lon="0.15942">
        <ele>1296.494499</ele>
        <time>2026-03-22T12:18:08.386Z</time>
      </trkpt>
      <trkpt lat="42.99765" lon="0.15927">
        <ele>1294.479318</ele>
        <time>2026-03-22T12:18:10.430Z</time>
      </trkpt>
      <trkpt lat="42.99768" lon="0.15912">
        <ele>1292.650415</ele>
        <time>2026-03-22T12:18:12.398Z</time>
      </trkpt>
      <trkpt lat="42.99771" lon="0.15899">
        <ele>1290.962964</ele>
        <time>2026-03-22T12:18:14.388Z</time>
      </trkpt>
      <trkpt lat="42.99775" lon="0.15888">
        <ele>1289.464563</ele>
        <time>2026-03-22T12:18:16.373Z</time>
      </trkpt>
      <trkpt lat="42.99773" lon="0.15873">
        <ele>1287.70576</ele>
        <time>2026-03-22T12:18:19.363Z</time>
      </trkpt>
      <trkpt lat="42.99781" lon="0.15866">
        <ele>1286.144023</ele>
        <time>2026-03-22T12:18:22.366Z</time>
      </trkpt>
      <trkpt lat="42.99787" lon="0.15876">
        <ele>1284.544507</ele>
        <time>2026-03-22T12:18:25.363Z</time>
      </trkpt>
      <trkpt lat="42.99794" lon="0.15868">
        <ele>1283.012736</ele>
        <time>2026-03-22T12:18:30.391Z</time>
      </trkpt>
      <trkpt lat="42.99807" lon="0.15866">
        <ele>1280.949807</ele>
        <time>2026-03-22T12:18:33.400Z</time>
      </trkpt>
      <trkpt lat="42.99817" lon="0.15875">
        <ele>1278.985337</ele>
        <time>2026-03-22T12:18:35.402Z</time>
      </trkpt>
      <trkpt lat="42.99829" lon="0.15884">
        <ele>1276.615514</ele>
        <time>2026-03-22T12:18:37.395Z</time>
      </trkpt>
      <trkpt lat="42.99836" lon="0.15894">
        <ele>1274.98597</ele>
        <time>2026-03-22T12:18:39.394Z</time>
      </trkpt>
      <trkpt lat="42.99835" lon="0.15907">
        <ele>1273.493301</ele>
        <time>2026-03-22T12:18:41.405Z</time>
      </trkpt>
      <trkpt lat="42.99837" lon="0.1592">
        <ele>1271.823404</ele>
        <time>2026-03-22T12:18:44.395Z</time>
      </trkpt>
      <trkpt lat="42.99847" lon="0.15914">
        <ele>1270.005265</ele>
        <time>2026-03-22T12:18:47.390Z</time>
      </trkpt>
      <trkpt lat="42.99854" lon="0.15899">
        <ele>1267.85369</ele>
        <time>2026-03-22T12:18:50.393Z</time>
      </trkpt>
      <trkpt lat="42.99865" lon="0.1589">
        <ele>1265.805702</ele>
        <time>2026-03-22T12:18:53.414Z</time>
      </trkpt>
      <trkpt lat="42.99874" lon="0.15887">
        <ele>1264.774365</ele>
        <time>2026-03-22T12:18:55.386Z</time>
      </trkpt>
      <trkpt lat="42.99883" lon="0.15879">
        <ele>1263.544695</ele>
        <time>2026-03-22T12:18:57.399Z</time>
      </trkpt>
      <trkpt lat="42.99896" lon="0.15878">
        <ele>1262.147066</ele>
        <time>2026-03-22T12:19:00.405Z</time>
      </trkpt>
      <trkpt lat="42.99906" lon="0.1588">
        <ele>1261.080628</ele>
        <time>2026-03-22T12:19:02.400Z</time>
      </trkpt>
      <trkpt lat="42.99919" lon="0.15871">
        <ele>1259.504704</ele>
        <time>2026-03-22T12:19:04.384Z</time>
      </trkpt>
      <trkpt lat="42.99948" lon="0.15855">
        <ele>1256.095115</ele>
        <time>2026-03-22T12:19:33.397Z</time>
      </trkpt>
      <trkpt lat="42.99957" lon="0.15848">
        <ele>1254.957635</ele>
        <time>2026-03-22T12:19:35.397Z</time>
      </trkpt>
      <trkpt lat="42.99967" lon="0.15841">
        <ele>1253.712993</ele>
        <time>2026-03-22T12:19:37.391Z</time>
      </trkpt>
      <trkpt lat="42.99977" lon="0.15832">
        <ele>1252.377329</ele>
        <time>2026-03-22T12:19:39.408Z</time>
      </trkpt>
      <trkpt lat="42.99987" lon="0.15826">
        <ele>1251.171894</ele>
        <time>2026-03-22T12:19:41.388Z</time>
      </trkpt>
      <trkpt lat="42.99997" lon="0.15819">
        <ele>1249.972639</ele>
        <time>2026-03-22T12:19:43.393Z</time>
      </trkpt>
      <trkpt lat="43.00006" lon="0.1581">
        <ele>1248.729464</ele>
        <time>2026-03-22T12:19:45.404Z</time>
      </trkpt>
      <trkpt lat="43.00014" lon="0.15803">
        <ele>1247.679512</ele>
        <time>2026-03-22T12:19:47.394Z</time>
      </trkpt>
      <trkpt lat="43.00019" lon="0.1579">
        <ele>1246.546054</ele>
        <time>2026-03-22T12:19:50.389Z</time>
      </trkpt>
      <trkpt lat="43.00018" lon="0.15777">
        <ele>1245.82611</ele>
        <time>2026-03-22T12:19:53.414Z</time>
      </trkpt>
      <trkpt lat="43.00028" lon="0.15765">
        <ele>1244.959568</ele>
        <time>2026-03-22T12:19:55.363Z</time>
      </trkpt>
      <trkpt lat="43.00043" lon="0.15753">
        <ele>1243.923455</ele>
        <time>2026-03-22T12:19:57.391Z</time>
      </trkpt>
      <trkpt lat="43.00055" lon="0.15749">
        <ele>1243.151266</ele>
        <time>2026-03-22T12:19:59.396Z</time>
      </trkpt>
      <trkpt lat="43.00066" lon="0.15749">
        <ele>1242.444408</ele>
        <time>2026-03-22T12:20:01.384Z</time>
      </trkpt>
      <trkpt lat="43.00076" lon="0.1575">
        <ele>1241.797486</ele>
        <time>2026-03-22T12:20:03.390Z</time>
      </trkpt>
      <trkpt lat="43.00086" lon="0.15751">
        <ele>1241.189106</ele>
        <time>2026-03-22T12:20:06.391Z</time>
      </trkpt>
      <trkpt lat="43.00095" lon="0.15755">
        <ele>1240.573399</ele>
        <time>2026-03-22T12:20:09.389Z</time>
      </trkpt>
      <trkpt lat="43.00103" lon="0.15748">
        <ele>1239.984776</ele>
        <time>2026-03-22T12:20:11.395Z</time>
      </trkpt>
      <trkpt lat="43.00112" lon="0.15737">
        <ele>1239.245138</ele>
        <time>2026-03-22T12:20:13.394Z</time>
      </trkpt>
      <trkpt lat="43.00125" lon="0.15741">
        <ele>1238.406442</ele>
        <time>2026-03-22T12:20:15.382Z</time>
      </trkpt>
      <trkpt lat="43.00135" lon="0.15754">
        <ele>1237.533206</ele>
        <time>2026-03-22T12:20:17.370Z</time>
      </trkpt>
      <trkpt lat="43.00145" lon="0.15758">
        <ele>1236.924826</ele>
        <time>2026-03-22T12:20:19.391Z</time>
      </trkpt>
      <trkpt lat="43.00154" lon="0.15756">
        <ele>1236.355958</ele>
        <time>2026-03-22T12:20:21.391Z</time>
      </trkpt>
      <trkpt lat="43.00162" lon="0.15747">
        <ele>1235.667372</ele>
        <time>2026-03-22T12:20:24.404Z</time>
      </trkpt>
      <trkpt lat="43.00163" lon="0.1573">
        <ele>1234.52163</ele>
        <time>2026-03-22T12:20:27.392Z</time>
      </trkpt>
      <trkpt lat="43.00176" lon="0.15731">
        <ele>1232.237539</ele>
        <time>2026-03-22T12:20:30.392Z</time>
      </trkpt>
      <trkpt lat="43.00188" lon="0.15739">
        <ele>1229.941318</ele>
        <time>2026-03-22T12:20:32.398Z</time>
      </trkpt>
      <trkpt lat="43.00197" lon="0.15728">
        <ele>1227.791759</ele>
        <time>2026-03-22T12:20:36.396Z</time>
      </trkpt>
      <trkpt lat="43.002" lon="0.15713">
        <ele>1225.775626</ele>
        <time>2026-03-22T12:20:38.391Z</time>
      </trkpt>
      <trkpt lat="43.00205" lon="0.15694">
        <ele>1223.215516</ele>
        <time>2026-03-22T12:20:40.388Z</time>
      </trkpt>
      <trkpt lat="43.00212" lon="0.15681">
        <ele>1221.047112</ele>
        <time>2026-03-22T12:20:42.390Z</time>
      </trkpt>
      <trkpt lat="43.00216" lon="0.1567">
        <ele>1219.401901</ele>
        <time>2026-03-22T12:20:44.375Z</time>
      </trkpt>
      <trkpt lat="43.00213" lon="0.15658">
        <ele>1217.770436</ele>
        <time>2026-03-22T12:20:46.399Z</time>
      </trkpt>
      <trkpt lat="43.00207" lon="0.15644">
        <ele>1215.728374</ele>
        <time>2026-03-22T12:20:48.383Z</time>
      </trkpt>
      <trkpt lat="43.00215" lon="0.15636">
        <ele>1213.881655</ele>
        <time>2026-03-22T12:20:51.419Z</time>
      </trkpt>
      <trkpt lat="43.00225" lon="0.15637">
        <ele>1212.161809</ele>
        <time>2026-03-22T12:20:53.390Z</time>
      </trkpt>
      <trkpt lat="43.00222" lon="0.15622">
        <ele>1210.128511</ele>
        <time>2026-03-22T12:20:57.409Z</time>
      </trkpt>
      <trkpt lat="43.0022" lon="0.15605">
        <ele>1207.932096</ele>
        <time>2026-03-22T12:21:00.385Z</time>
      </trkpt>
      <trkpt lat="43.00221" lon="0.15592">
        <ele>1206.235858</ele>
        <time>2026-03-22T12:21:03.388Z</time>
      </trkpt>
      <trkpt lat="43.00221" lon="0.15579">
        <ele>1204.518211</ele>
        <time>2026-03-22T12:21:06.396Z</time>
      </trkpt>
      <trkpt lat="43.00224" lon="0.15565">
        <ele>1202.694636</ele>
        <time>2026-03-22T12:21:08.406Z</time>
      </trkpt>
      <trkpt lat="43.00224" lon="0.15551">
        <ele>1201.011821</ele>
        <time>2026-03-22T12:21:12.384Z</time>
      </trkpt>
      <trkpt lat="43.00223" lon="0.15536">
        <ele>1199.230552</ele>
        <time>2026-03-22T12:21:19.387Z</time>
      </trkpt>
      <trkpt lat="43.00224" lon="0.15521">
        <ele>1197.328539</ele>
        <time>2026-03-22T12:21:22.396Z</time>
      </trkpt>
      <trkpt lat="43.00228" lon="0.15506">
        <ele>1195.430543</ele>
        <time>2026-03-22T12:21:24.393Z</time>
      </trkpt>
      <trkpt lat="43.00237" lon="0.15494">
        <ele>1193.28868</ele>
        <time>2026-03-22T12:21:26.413Z</time>
      </trkpt>
      <trkpt lat="43.00245" lon="0.15481">
        <ele>1191.151496</ele>
        <time>2026-03-22T12:21:28.400Z</time>
      </trkpt>
      <trkpt lat="43.00251" lon="0.15463">
        <ele>1188.80025</ele>
        <time>2026-03-22T12:21:30.382Z</time>
      </trkpt>
      <trkpt lat="43.00256" lon="0.15443">
        <ele>1186.286412</ele>
        <time>2026-03-22T12:21:32.403Z</time>
      </trkpt>
      <trkpt lat="43.00263" lon="0.15423">
        <ele>1183.589047</ele>
        <time>2026-03-22T12:21:34.380Z</time>
      </trkpt>
      <trkpt lat="43.00266" lon="0.15402">
        <ele>1180.93455</ele>
        <time>2026-03-22T12:21:36.371Z</time>
      </trkpt>
      <trkpt lat="43.00267" lon="0.15383">
        <ele>1178.576747</ele>
        <time>2026-03-22T12:21:38.427Z</time>
      </trkpt>
      <trkpt lat="43.0027" lon="0.15366">
        <ele>1176.54726</ele>
        <time>2026-03-22T12:21:40.401Z</time>
      </trkpt>
      <trkpt lat="43.00277" lon="0.15357">
        <ele>1174.874072</ele>
        <time>2026-03-22T12:21:43.401Z</time>
      </trkpt>
      <trkpt lat="43.00279" lon="0.15344">
        <ele>1173.223356</ele>
        <time>2026-03-22T12:21:45.401Z</time>
      </trkpt>
      <trkpt lat="43.00284" lon="0.15329">
        <ele>1171.100027</ele>
        <time>2026-03-22T12:21:47.385Z</time>
      </trkpt>
      <trkpt lat="43.0029" lon="0.15319">
        <ele>1169.343996</ele>
        <time>2026-03-22T12:21:49.388Z</time>
      </trkpt>
      <trkpt lat="43.00299" lon="0.15311">
        <ele>1167.420593</ele>
        <time>2026-03-22T12:21:54.403Z</time>
      </trkpt>
      <trkpt lat="43.00307" lon="0.15301">
        <ele>1165.334641</ele>
        <time>2026-03-22T12:21:59.445Z</time>
      </trkpt>
      <trkpt lat="43.00304" lon="0.15286">
        <ele>1163.251538</ele>
        <time>2026-03-22T12:22:03.385Z</time>
      </trkpt>
      <trkpt lat="43.00298" lon="0.15275">
        <ele>1161.397353</ele>
        <time>2026-03-22T12:22:07.399Z</time>
      </trkpt>
      <trkpt lat="43.00303" lon="0.1526">
        <ele>1159.208913</ele>
        <time>2026-03-22T12:22:11.386Z</time>
      </trkpt>
      <trkpt lat="43.0031" lon="0.15251">
        <ele>1157.497393</ele>
        <time>2026-03-22T12:22:13.384Z</time>
      </trkpt>
      <trkpt lat="43.00315" lon="0.15238">
        <ele>1155.511031</ele>
        <time>2026-03-22T12:22:16.386Z</time>
      </trkpt>
      <trkpt lat="43.00317" lon="0.15224">
        <ele>1153.679628</ele>
        <time>2026-03-22T12:22:19.393Z</time>
      </trkpt>
      <trkpt lat="43.00328" lon="0.15215">
        <ele>1151.225688</ele>
        <time>2026-03-22T12:22:22.403Z</time>
      </trkpt>
      <trkpt lat="43.00334" lon="0.152">
        <ele>1148.955617</ele>
        <time>2026-03-22T12:22:25.390Z</time>
      </trkpt>
      <trkpt lat="43.00335" lon="0.15188">
        <ele>1147.267706</ele>
        <time>2026-03-22T12:22:27.388Z</time>
      </trkpt>
      <trkpt lat="43.00335" lon="0.15174">
        <ele>1145.517869</ele>
        <time>2026-03-22T12:22:29.391Z</time>
      </trkpt>
      <trkpt lat="43.00337" lon="0.15161">
        <ele>1143.731863</ele>
        <time>2026-03-22T12:22:31.390Z</time>
      </trkpt>
      <trkpt lat="43.00335" lon="0.15147">
        <ele>1141.738665</ele>
        <time>2026-03-22T12:22:34.409Z</time>
      </trkpt>
      <trkpt lat="43.00326" lon="0.15143">
        <ele>1139.900148</ele>
        <time>2026-03-22T12:22:36.385Z</time>
      </trkpt>
      <trkpt lat="43.00318" lon="0.15134">
        <ele>1137.64293</ele>
        <time>2026-03-22T12:22:39.364Z</time>
      </trkpt>
      <trkpt lat="43.00311" lon="0.15123">
        <ele>1135.309987</ele>
        <time>2026-03-22T12:22:42.393Z</time>
      </trkpt>
      <trkpt lat="43.00318" lon="0.15112">
        <ele>1132.989353</ele>
        <time>2026-03-22T12:22:45.389Z</time>
      </trkpt>
      <trkpt lat="43.00327" lon="0.15108">
        <ele>1130.998648</ele>
        <time>2026-03-22T12:22:47.394Z</time>
      </trkpt>
      <trkpt lat="43.00335" lon="0.15102">
        <ele>1128.930967</ele>
        <time>2026-03-22T12:22:49.386Z</time>
      </trkpt>
      <trkpt lat="43.00333" lon="0.15086">
        <ele>1126.258768</ele>
        <time>2026-03-22T12:22:53.391Z</time>
      </trkpt>
      <trkpt lat="43.00332" lon="0.15073">
        <ele>1124.236457</ele>
        <time>2026-03-22T12:22:55.399Z</time>
      </trkpt>
      <trkpt lat="43.0034" lon="0.15063">
        <ele>1121.941309</ele>
        <time>2026-03-22T12:22:57.393Z</time>
      </trkpt>
      <trkpt lat="43.00338" lon="0.15049">
        <ele>1119.663687</ele>
        <time>2026-03-22T12:23:00.393Z</time>
      </trkpt>
      <trkpt lat="43.00331" lon="0.15036">
        <ele>1117.114971</ele>
        <time>2026-03-22T12:23:02.393Z</time>
      </trkpt>
      <trkpt lat="43.0032" lon="0.15032">
        <ele>1114.459958</ele>
        <time>2026-03-22T12:23:05.409Z</time>
      </trkpt>
      <trkpt lat="43.00322" lon="0.15018">
        <ele>1112.228087</ele>
        <time>2026-03-22T12:23:09.389Z</time>
      </trkpt>
      <trkpt lat="43.0033" lon="0.15007">
        <ele>1109.718996</ele>
        <time>2026-03-22T12:23:11.392Z</time>
      </trkpt>
      <trkpt lat="43.00336" lon="0.14997">
        <ele>1107.639858</ele>
        <time>2026-03-22T12:23:13.405Z</time>
      </trkpt>
      <trkpt lat="43.00334" lon="0.14984">
        <ele>1105.380828</ele>
        <time>2026-03-22T12:23:16.428Z</time>
      </trkpt>
      <trkpt lat="43.00326" lon="0.14973">
        <ele>1102.913736</ele>
        <time>2026-03-22T12:23:19.367Z</time>
      </trkpt>
      <trkpt lat="43.00315" lon="0.14967">
        <ele>1100.249536</ele>
        <time>2026-03-22T12:23:22.383Z</time>
      </trkpt>
      <trkpt lat="43.00308" lon="0.14955">
        <ele>1097.403677</ele>
        <time>2026-03-22T12:23:26.395Z</time>
      </trkpt>
      <trkpt lat="43.00311" lon="0.1494">
        <ele>1094.614333</ele>
        <time>2026-03-22T12:23:29.397Z</time>
      </trkpt>
      <trkpt lat="43.00313" lon="0.14926">
        <ele>1092.09385</ele>
        <time>2026-03-22T12:23:32.390Z</time>
      </trkpt>
      <trkpt lat="43.00316" lon="0.14914">
        <ele>1089.843471</ele>
        <time>2026-03-22T12:23:34.386Z</time>
      </trkpt>
      <trkpt lat="43.00323" lon="0.14902">
        <ele>1087.023034</ele>
        <time>2026-03-22T12:23:37.387Z</time>
      </trkpt>
      <trkpt lat="43.00333" lon="0.14895">
        <ele>1084.339592</ele>
        <time>2026-03-22T12:23:39.410Z</time>
      </trkpt>
      <trkpt lat="43.00344" lon="0.14888">
        <ele>1081.222313</ele>
        <time>2026-03-22T12:23:41.386Z</time>
      </trkpt>
      <trkpt lat="43.00354" lon="0.14881">
        <ele>1078.566431</ele>
        <time>2026-03-22T12:23:43.397Z</time>
      </trkpt>
      <trkpt lat="43.00364" lon="0.14881">
        <ele>1076.106714</ele>
        <time>2026-03-22T12:23:46.386Z</time>
      </trkpt>
      <trkpt lat="43.00373" lon="0.14876">
        <ele>1073.698268</ele>
        <time>2026-03-22T12:23:49.369Z</time>
      </trkpt>
      <trkpt lat="43.0038" lon="0.14864">
        <ele>1070.954993</ele>
        <time>2026-03-22T12:23:52.399Z</time>
      </trkpt>
      <trkpt lat="43.00389" lon="0.14853">
        <ele>1067.879495</ele>
        <time>2026-03-22T12:24:00.390Z</time>
      </trkpt>
      <trkpt lat="43.00399" lon="0.1485">
        <ele>1065.37678</ele>
        <time>2026-03-22T12:24:02.398Z</time>
      </trkpt>
      <trkpt lat="43.00409" lon="0.14848">
        <ele>1062.880533</ele>
        <time>2026-03-22T12:24:04.370Z</time>
      </trkpt>
      <trkpt lat="43.00418" lon="0.14853">
        <ele>1060.632951</ele>
        <time>2026-03-22T12:24:06.401Z</time>
      </trkpt>
      <trkpt lat="43.00425" lon="0.14865">
        <ele>1057.888241</ele>
        <time>2026-03-22T12:24:08.400Z</time>
      </trkpt>
      <trkpt lat="43.00435" lon="0.14865">
        <ele>1055.818915</ele>
        <time>2026-03-22T12:24:12.406Z</time>
      </trkpt>
      <trkpt lat="43.0044" lon="0.14853">
        <ele>1053.845102</ele>
        <time>2026-03-22T12:24:14.377Z</time>
      </trkpt>
      <trkpt lat="43.00443" lon="0.14838">
        <ele>1051.73188</ele>
        <time>2026-03-22T12:24:17.404Z</time>
      </trkpt>
      <trkpt lat="43.00452" lon="0.14825">
        <ele>1049.363286</ele>
        <time>2026-03-22T12:24:20.385Z</time>
      </trkpt>
      <trkpt lat="43.00454" lon="0.14807">
        <ele>1046.845382</ele>
        <time>2026-03-22T12:24:23.422Z</time>
      </trkpt>
      <trkpt lat="43.00452" lon="0.14795">
        <ele>1045.016103</ele>
        <time>2026-03-22T12:24:25.388Z</time>
      </trkpt>
      <trkpt lat="43.00441" lon="0.14786">
        <ele>1042.703226</ele>
        <time>2026-03-22T12:24:28.387Z</time>
      </trkpt>
      <trkpt lat="43.00431" lon="0.14782">
        <ele>1040.734685</ele>
        <time>2026-03-22T12:24:31.387Z</time>
      </trkpt>
      <trkpt lat="43.00422" lon="0.14776">
        <ele>1038.835981</ele>
        <time>2026-03-22T12:24:34.422Z</time>
      </trkpt>
      <trkpt lat="43.00412" lon="0.14769">
        <ele>1036.745364</ele>
        <time>2026-03-22T12:24:38.404Z</time>
      </trkpt>
      <trkpt lat="43.00401" lon="0.14763">
        <ele>1034.424316</ele>
        <time>2026-03-22T12:24:41.404Z</time>
      </trkpt>
      <trkpt lat="43.00391" lon="0.1476">
        <ele>1032.515737</ele>
        <time>2026-03-22T12:24:44.393Z</time>
      </trkpt>
      <trkpt lat="43.00379" lon="0.14761">
        <ele>1030.275251</ele>
        <time>2026-03-22T12:24:47.385Z</time>
      </trkpt>
      <trkpt lat="43.00367" lon="0.14762">
        <ele>1028.051653</ele>
        <time>2026-03-22T12:24:50.391Z</time>
      </trkpt>
      <trkpt lat="43.00357" lon="0.14772">
        <ele>1025.708341</ele>
        <time>2026-03-22T12:24:53.395Z</time>
      </trkpt>
      <trkpt lat="43.00348" lon="0.14776">
        <ele>1024.014109</ele>
        <time>2026-03-22T12:24:55.391Z</time>
      </trkpt>
      <trkpt lat="43.00338" lon="0.14776">
        <ele>1022.838177</ele>
        <time>2026-03-22T12:24:57.389Z</time>
      </trkpt>
      <trkpt lat="43.00328" lon="0.14777">
        <ele>1022.479633</ele>
        <time>2026-03-22T12:24:59.404Z</time>
      </trkpt>
      <trkpt lat="43.00319" lon="0.14781">
        <ele>1022.094728</ele>
        <time>2026-03-22T12:25:02.388Z</time>
      </trkpt>
      <trkpt lat="43.0031" lon="0.14789">
        <ele>1021.684548</ele>
        <time>2026-03-22T12:25:05.392Z</time>
      </trkpt>
      <trkpt lat="43.00297" lon="0.14793">
        <ele>1021.164117</ele>
        <time>2026-03-22T12:25:08.391Z</time>
      </trkpt>
      <trkpt lat="43.00286" lon="0.14797">
        <ele>1020.754952</ele>
        <time>2026-03-22T12:25:10.423Z</time>
      </trkpt>
      <trkpt lat="43.00281" lon="0.14788">
        <ele>1020.405685</ele>
        <time>2026-03-22T12:25:14.378Z</time>
      </trkpt>
      <trkpt lat="43.00302" lon="0.14768">
        <ele>1019.419439</ele>
        <time>2026-03-22T12:25:59.395Z</time>
      </trkpt>
      <trkpt lat="43.00311" lon="0.14761">
        <ele>1019.022327</ele>
        <time>2026-03-22T12:26:02.398Z</time>
      </trkpt>
      <trkpt lat="43.00319" lon="0.14753">
        <ele>1018.648607</ele>
        <time>2026-03-22T12:26:11.393Z</time>
      </trkpt>
      <trkpt lat="43.00311" lon="0.14744">
        <ele>1018.262175</ele>
        <time>2026-03-22T12:26:41.400Z</time>
      </trkpt>
      <trkpt lat="43.00303" lon="0.14736">
        <ele>1017.864698</ele>
        <time>2026-03-22T12:26:45.415Z</time>
      </trkpt>
      <trkpt lat="43.0029" lon="0.14735">
        <ele>1017.381048</ele>
        <time>2026-03-22T12:26:48.387Z</time>
      </trkpt>
      <trkpt lat="43.00281" lon="0.14743">
        <ele>1016.974196</ele>
        <time>2026-03-22T12:26:52.385Z</time>
      </trkpt>
      <trkpt lat="43.00272" lon="0.14748">
        <ele>1016.597004</ele>
        <time>2026-03-22T12:26:56.437Z</time>
      </trkpt>
      <trkpt lat="43.00263" lon="0.14749">
        <ele>1016.247707</ele>
        <time>2026-03-22T12:27:01.389Z</time>
      </trkpt>
      <trkpt lat="43.00254" lon="0.1475">
        <ele>1015.924099</ele>
        <time>2026-03-22T12:27:05.386Z</time>
      </trkpt>
      <trkpt lat="43.00245" lon="0.14754">
        <ele>1015.577086</ele>
        <time>2026-03-22T12:27:11.403Z</time>
      </trkpt>
      <trkpt lat="43.00235" lon="0.14754">
        <ele>1015.234408</ele>
        <time>2026-03-22T12:27:17.385Z</time>
      </trkpt>
      <trkpt lat="43.00226" lon="0.14751">
        <ele>1014.919432</ele>
        <time>2026-03-22T12:27:22.389Z</time>
      </trkpt>
      <trkpt lat="43.00216" lon="0.14745">
        <ele>1014.531169</ele>
        <time>2026-03-22T12:27:27.389Z</time>
      </trkpt>
      <trkpt lat="43.00206" lon="0.14743">
        <ele>1014.206941</ele>
        <time>2026-03-22T12:27:32.386Z</time>
      </trkpt>
      <trkpt lat="43.00197" lon="0.14741">
        <ele>1013.869814</ele>
        <time>2026-03-22T12:27:36.399Z</time>
      </trkpt>
      <trkpt lat="43.00185" lon="0.14735">
        <ele>1013.447281</ele>
        <time>2026-03-22T12:27:40.370Z</time>
      </trkpt>
      <trkpt lat="43.00177" lon="0.14726">
        <ele>1013.099097</ele>
        <time>2026-03-22T12:27:43.392Z</time>
      </trkpt>
      <trkpt lat="43.0017" lon="0.14714">
        <ele>1012.691755</ele>
        <time>2026-03-22T12:27:47.412Z</time>
      </trkpt>
      <trkpt lat="43.00166" lon="0.14701">
        <ele>1012.324565</ele>
        <time>2026-03-22T12:27:51.393Z</time>
      </trkpt>
      <trkpt lat="43.00163" lon="0.14685">
        <ele>1011.923849</ele>
        <time>2026-03-22T12:27:55.389Z</time>
      </trkpt>
      <trkpt lat="43.0016" lon="0.14673">
        <ele>1011.592416</ele>
        <time>2026-03-22T12:27:58.397Z</time>
      </trkpt>
      <trkpt lat="43.00154" lon="0.14663">
        <ele>1011.273873</ele>
        <time>2026-03-22T12:28:02.398Z</time>
      </trkpt>
      <trkpt lat="43.00149" lon="0.14651">
        <ele>1010.932398</ele>
        <time>2026-03-22T12:28:07.386Z</time>
      </trkpt>
      <trkpt lat="43.00146" lon="0.14637">
        <ele>1010.552266</ele>
        <time>2026-03-22T12:28:12.394Z</time>
      </trkpt>
      <trkpt lat="43.00145" lon="0.14625">
        <ele>1010.239194</ele>
        <time>2026-03-22T12:28:15.378Z</time>
      </trkpt>
      <trkpt lat="43.00144" lon="0.14612">
        <ele>1009.928865</ele>
        <time>2026-03-22T12:28:18.392Z</time>
      </trkpt>
      <trkpt lat="43.00141" lon="0.14598">
        <ele>1010.159225</ele>
        <time>2026-03-22T12:28:21.401Z</time>
      </trkpt>
      <trkpt lat="43.00138" lon="0.14582">
        <ele>1010.409063</ele>
        <time>2026-03-22T12:28:24.392Z</time>
      </trkpt>
      <trkpt lat="43.00133" lon="0.14568">
        <ele>1010.649576</ele>
        <time>2026-03-22T12:28:27.376Z</time>
      </trkpt>
      <trkpt lat="43.00132" lon="0.14554">
        <ele>1010.866553</ele>
        <time>2026-03-22T12:28:30.366Z</time>
      </trkpt>
      <trkpt lat="43.00138" lon="0.14542">
        <ele>1011.081459</ele>
        <time>2026-03-22T12:28:33.384Z</time>
      </trkpt>
      <trkpt lat="43.00145" lon="0.14532">
        <ele>1011.287445</ele>
        <time>2026-03-22T12:28:36.391Z</time>
      </trkpt>
      <trkpt lat="43.00149" lon="0.14519">
        <ele>1011.512511</ele>
        <time>2026-03-22T12:28:40.401Z</time>
      </trkpt>
      <trkpt lat="43.00152" lon="0.14507">
        <ele>1011.704006</ele>
        <time>2026-03-22T12:28:48.399Z</time>
      </trkpt>
      <trkpt lat="43.00167" lon="0.14477">
        <ele>1012.253993</ele>
        <time>2026-03-22T12:29:07.408Z</time>
      </trkpt>
      <trkpt lat="43.00175" lon="0.14486">
        <ele>1012.480554</ele>
        <time>2026-03-22T12:29:11.404Z</time>
      </trkpt>
      <trkpt lat="43.00183" lon="0.14494">
        <ele>1012.682214</ele>
        <time>2026-03-22T12:29:13.393Z</time>
      </trkpt>
      <trkpt lat="43.00192" lon="0.14501">
        <ele>1012.896396</ele>
        <time>2026-03-22T12:29:15.398Z</time>
      </trkpt>
      <trkpt lat="43.00203" lon="0.14509">
        <ele>1013.156845</ele>
        <time>2026-03-22T12:29:17.394Z</time>
      </trkpt>
      <trkpt lat="43.00212" lon="0.14515">
        <ele>1013.365778</ele>
        <time>2026-03-22T12:29:19.390Z</time>
      </trkpt>
      <trkpt lat="43.00221" lon="0.14518">
        <ele>1013.557923</ele>
        <time>2026-03-22T12:29:34.398Z</time>
      </trkpt>
      <trkpt lat="43.00226" lon="0.14532">
        <ele>1013.066677</ele>
        <time>2026-03-22T12:29:37.390Z</time>
      </trkpt>
      <trkpt lat="43.00237" lon="0.14538">
        <ele>1011.437272</ele>
        <time>2026-03-22T12:29:40.379Z</time>
      </trkpt>
      <trkpt lat="43.00246" lon="0.14545">
        <ele>1009.992801</ele>
        <time>2026-03-22T12:29:44.391Z</time>
      </trkpt>
      <trkpt lat="43.00255" lon="0.14556">
        <ele>1008.334202</ele>
        <time>2026-03-22T12:29:48.388Z</time>
      </trkpt>
      <trkpt lat="43.00267" lon="0.14565">
        <ele>1006.390257</ele>
        <time>2026-03-22T12:29:51.407Z</time>
      </trkpt>
      <trkpt lat="43.00277" lon="0.14574">
        <ele>1004.73431</ele>
        <time>2026-03-22T12:29:54.386Z</time>
      </trkpt>
      <trkpt lat="43.00289" lon="0.14568">
        <ele>1002.849243</ele>
        <time>2026-03-22T12:29:57.388Z</time>
      </trkpt>
      <trkpt lat="43.00302" lon="0.14558">
        <ele>1000.736174</ele>
        <time>2026-03-22T12:29:59.398Z</time>
      </trkpt>
      <trkpt lat="43.00312" lon="0.14549">
        <ele>999.125813</ele>
        <time>2026-03-22T12:30:01.385Z</time>
      </trkpt>
      <trkpt lat="43.00317" lon="0.14537">
        <ele>997.788389</ele>
        <time>2026-03-22T12:30:05.406Z</time>
      </trkpt>
      <trkpt lat="43.00318" lon="0.14522">
        <ele>996.226221</ele>
        <time>2026-03-22T12:30:08.384Z</time>
      </trkpt>
      <trkpt lat="43.00316" lon="0.1451">
        <ele>994.937349</ele>
        <time>2026-03-22T12:30:10.372Z</time>
      </trkpt>
      <trkpt lat="43.00313" lon="0.14497">
        <ele>993.587746</ele>
        <time>2026-03-22T12:30:12.401Z</time>
      </trkpt>
      <trkpt lat="43.0031" lon="0.14483">
        <ele>992.16074</ele>
        <time>2026-03-22T12:30:14.407Z</time>
      </trkpt>
      <trkpt lat="43.00306" lon="0.1447">
        <ele>990.670279</ele>
        <time>2026-03-22T12:30:16.428Z</time>
      </trkpt>
      <trkpt lat="43.00303" lon="0.14457">
        <ele>989.317842</ele>
        <time>2026-03-22T12:30:19.384Z</time>
      </trkpt>
      <trkpt lat="43.00303" lon="0.14441">
        <ele>985.940618</ele>
        <time>2026-03-22T12:30:22.392Z</time>
      </trkpt>
      <trkpt lat="43.00301" lon="0.14425">
        <ele>981.622169</ele>
        <time>2026-03-22T12:30:25.397Z</time>
      </trkpt>
      <trkpt lat="43.00299" lon="0.14413">
        <ele>978.285326</ele>
        <time>2026-03-22T12:30:27.408Z</time>
      </trkpt>
      <trkpt lat="43.0031" lon="0.14409">
        <ele>974.302805</ele>
        <time>2026-03-22T12:30:34.384Z</time>
      </trkpt>
      <trkpt lat="43.00319" lon="0.14412">
        <ele>970.65751</ele>
        <time>2026-03-22T12:30:38.387Z</time>
      </trkpt>
      <trkpt lat="43.00319" lon="0.14399">
        <ele>967.272802</ele>
        <time>2026-03-22T12:30:42.391Z</time>
      </trkpt>
      <trkpt lat="43.00314" lon="0.14388">
        <ele>963.970188</ele>
        <time>2026-03-22T12:30:46.378Z</time>
      </trkpt>
      <trkpt lat="43.00311" lon="0.14374">
        <ele>959.987112</ele>
        <time>2026-03-22T12:30:51.364Z</time>
      </trkpt>
      <trkpt lat="43.0031" lon="0.14362">
        <ele>956.581032</ele>
        <time>2026-03-22T12:30:55.398Z</time>
      </trkpt>
      <trkpt lat="43.0031" lon="0.14349">
        <ele>953.227071</ele>
        <time>2026-03-22T12:30:58.385Z</time>
      </trkpt>
      <trkpt lat="43.00305" lon="0.14337">
        <ele>949.454799</ele>
        <time>2026-03-22T12:31:01.400Z</time>
      </trkpt>
      <trkpt lat="43.00298" lon="0.14326">
        <ele>945.481573</ele>
        <time>2026-03-22T12:31:04.363Z</time>
      </trkpt>
      <trkpt lat="43.00294" lon="0.14313">
        <ele>941.893942</ele>
        <time>2026-03-22T12:31:08.384Z</time>
      </trkpt>
      <trkpt lat="43.00302" lon="0.14302">
        <ele>938.01039</ele>
        <time>2026-03-22T12:31:13.403Z</time>
      </trkpt>
      <trkpt lat="43.00314" lon="0.14298">
        <ele>933.384788</ele>
        <time>2026-03-22T12:31:17.401Z</time>
      </trkpt>
      <trkpt lat="43.00323" lon="0.14297">
        <ele>930.010872</ele>
        <time>2026-03-22T12:31:20.366Z</time>
      </trkpt>
      <trkpt lat="43.00332" lon="0.14298">
        <ele>926.705006</ele>
        <time>2026-03-22T12:31:24.380Z</time>
      </trkpt>
      <trkpt lat="43.00341" lon="0.143">
        <ele>923.149508</ele>
        <time>2026-03-22T12:31:27.392Z</time>
      </trkpt>
      <trkpt lat="43.00351" lon="0.14299">
        <ele>920.948357</ele>
        <time>2026-03-22T12:31:30.424Z</time>
      </trkpt>
      <trkpt lat="43.00361" lon="0.14301">
        <ele>918.885037</ele>
        <time>2026-03-22T12:31:33.391Z</time>
      </trkpt>
      <trkpt lat="43.00369" lon="0.14312">
        <ele>916.597596</ele>
        <time>2026-03-22T12:31:37.411Z</time>
      </trkpt>
      <trkpt lat="43.0038" lon="0.14315">
        <ele>914.269993</ele>
        <time>2026-03-22T12:31:43.379Z</time>
      </trkpt>
      <trkpt lat="43.0039" lon="0.14318">
        <ele>912.08657</ele>
        <time>2026-03-22T12:31:48.393Z</time>
      </trkpt>
      <trkpt lat="43.00396" lon="0.14328">
        <ele>910.172881</ele>
        <time>2026-03-22T12:31:51.365Z</time>
      </trkpt>
      <trkpt lat="43.00406" lon="0.14332">
        <ele>908.093359</ele>
        <time>2026-03-22T12:31:55.393Z</time>
      </trkpt>
      <trkpt lat="43.00416" lon="0.14329">
        <ele>905.903174</ele>
        <time>2026-03-22T12:31:58.398Z</time>
      </trkpt>
      <trkpt lat="43.00426" lon="0.1433">
        <ele>903.839021</ele>
        <time>2026-03-22T12:32:02.392Z</time>
      </trkpt>
      <trkpt lat="43.00435" lon="0.14334">
        <ele>901.905448</ele>
        <time>2026-03-22T12:32:06.411Z</time>
      </trkpt>
      <trkpt lat="43.00466" lon="0.14367">
        <ele>893.766673</ele>
        <time>2026-03-22T12:32:32.399Z</time>
      </trkpt>
      <trkpt lat="43.00475" lon="0.14359">
        <ele>891.507006</ele>
        <time>2026-03-22T12:32:38.366Z</time>
      </trkpt>
      <trkpt lat="43.00484" lon="0.14363">
        <ele>889.603775</ele>
        <time>2026-03-22T12:32:40.398Z</time>
      </trkpt>
      <trkpt lat="43.00494" lon="0.14365">
        <ele>887.594768</ele>
        <time>2026-03-22T12:32:42.408Z</time>
      </trkpt>
      <trkpt lat="43.00505" lon="0.14369">
        <ele>885.251808</ele>
        <time>2026-03-22T12:32:45.373Z</time>
      </trkpt>
      <trkpt lat="43.00513" lon="0.14378">
        <ele>883.809738</ele>
        <time>2026-03-22T12:32:48.369Z</time>
      </trkpt>
      <trkpt lat="43.00522" lon="0.14389">
        <ele>881.919571</ele>
        <time>2026-03-22T12:32:51.379Z</time>
      </trkpt>
      <trkpt lat="43.00531" lon="0.14387">
        <ele>880.469857</ele>
        <time>2026-03-22T12:32:55.387Z</time>
      </trkpt>
      <trkpt lat="43.00543" lon="0.14392">
        <ele>878.615671</ele>
        <time>2026-03-22T12:32:59.407Z</time>
      </trkpt>
      <trkpt lat="43.0055" lon="0.144">
        <ele>877.229759</ele>
        <time>2026-03-22T12:33:01.390Z</time>
      </trkpt>
      <trkpt lat="43.00558" lon="0.14407">
        <ele>875.790445</ele>
        <time>2026-03-22T12:33:03.407Z</time>
      </trkpt>
      <trkpt lat="43.00566" lon="0.14415">
        <ele>874.31307</ele>
        <time>2026-03-22T12:33:05.403Z</time>
      </trkpt>
      <trkpt lat="43.00576" lon="0.14419">
        <ele>872.706033</ele>
        <time>2026-03-22T12:33:07.404Z</time>
      </trkpt>
      <trkpt lat="43.00588" lon="0.14426">
        <ele>870.810934</ele>
        <time>2026-03-22T12:33:09.390Z</time>
      </trkpt>
      <trkpt lat="43.00603" lon="0.14436">
        <ele>868.219125</ele>
        <time>2026-03-22T12:33:11.378Z</time>
      </trkpt>
      <trkpt lat="43.00612" lon="0.14441">
        <ele>866.77864</ele>
        <time>2026-03-22T12:33:12.383Z</time>
      </trkpt>
      <trkpt lat="43.00621" lon="0.14446">
        <ele>865.23273</ele>
        <time>2026-03-22T12:33:13.395Z</time>
      </trkpt>
      <trkpt lat="43.00631" lon="0.1445">
        <ele>863.635476</ele>
        <time>2026-03-22T12:33:14.389Z</time>
      </trkpt>
      <trkpt lat="43.00641" lon="0.14454">
        <ele>862.149422</ele>
        <time>2026-03-22T12:33:15.393Z</time>
      </trkpt>
      <trkpt lat="43.0065" lon="0.14456">
        <ele>860.695476</ele>
        <time>2026-03-22T12:33:16.391Z</time>
      </trkpt>
      <trkpt lat="43.00659" lon="0.14458">
        <ele>859.284894</ele>
        <time>2026-03-22T12:33:17.385Z</time>
      </trkpt>
      <trkpt lat="43.00677" lon="0.14461">
        <ele>856.896295</ele>
        <time>2026-03-22T12:33:19.391Z</time>
      </trkpt>
      <trkpt lat="43.00694" lon="0.14465">
        <ele>854.728069</ele>
        <time>2026-03-22T12:33:21.389Z</time>
      </trkpt>
      <trkpt lat="43.00703" lon="0.1447">
        <ele>853.539879</ele>
        <time>2026-03-22T12:33:22.381Z</time>
      </trkpt>
      <trkpt lat="43.00711" lon="0.14476">
        <ele>852.282302</ele>
        <time>2026-03-22T12:33:23.382Z</time>
      </trkpt>
      <trkpt lat="43.0072" lon="0.14483">
        <ele>850.996498</ele>
        <time>2026-03-22T12:33:24.392Z</time>
      </trkpt>
      <trkpt lat="43.00728" lon="0.14494">
        <ele>849.546291</ele>
        <time>2026-03-22T12:33:25.431Z</time>
      </trkpt>
      <trkpt lat="43.00737" lon="0.14503">
        <ele>848.107373</ele>
        <time>2026-03-22T12:33:26.402Z</time>
      </trkpt>
      <trkpt lat="43.00746" lon="0.14512">
        <ele>846.710162</ele>
        <time>2026-03-22T12:33:27.395Z</time>
      </trkpt>
      <trkpt lat="43.00754" lon="0.14521">
        <ele>845.441452</ele>
        <time>2026-03-22T12:33:28.381Z</time>
      </trkpt>
      <trkpt lat="43.00767" lon="0.14536">
        <ele>843.196358</ele>
        <time>2026-03-22T12:33:30.388Z</time>
      </trkpt>
      <trkpt lat="43.00778" lon="0.14547">
        <ele>841.542428</ele>
        <time>2026-03-22T12:33:32.393Z</time>
      </trkpt>
      <trkpt lat="43.0079" lon="0.14558">
        <ele>839.67415</ele>
        <time>2026-03-22T12:33:34.391Z</time>
      </trkpt>
      <trkpt lat="43.00802" lon="0.1457">
        <ele>837.721522</ele>
        <time>2026-03-22T12:33:36.379Z</time>
      </trkpt>
      <trkpt lat="43.00817" lon="0.14583">
        <ele>835.519411</ele>
        <time>2026-03-22T12:33:38.396Z</time>
      </trkpt>
      <trkpt lat="43.00833" lon="0.14596">
        <ele>833.432395</ele>
        <time>2026-03-22T12:33:40.380Z</time>
      </trkpt>
      <trkpt lat="43.00841" lon="0.14602">
        <ele>832.396722</ele>
        <time>2026-03-22T12:33:41.393Z</time>
      </trkpt>
      <trkpt lat="43.00849" lon="0.14608">
        <ele>831.368854</ele>
        <time>2026-03-22T12:33:42.393Z</time>
      </trkpt>
      <trkpt lat="43.00856" lon="0.14614">
        <ele>830.328065</ele>
        <time>2026-03-22T12:33:43.382Z</time>
      </trkpt>
      <trkpt lat="43.00869" lon="0.14627">
        <ele>828.575939</ele>
        <time>2026-03-22T12:33:45.379Z</time>
      </trkpt>
      <trkpt lat="43.00879" lon="0.14639">
        <ele>827.00968</ele>
        <time>2026-03-22T12:33:47.384Z</time>
      </trkpt>
      <trkpt lat="43.00891" lon="0.14648">
        <ele>825.438029</ele>
        <time>2026-03-22T12:33:49.392Z</time>
      </trkpt>
      <trkpt lat="43.00903" lon="0.14661">
        <ele>823.733306</ele>
        <time>2026-03-22T12:33:51.402Z</time>
      </trkpt>
      <trkpt lat="43.00916" lon="0.14673">
        <ele>821.950365</ele>
        <time>2026-03-22T12:33:53.394Z</time>
      </trkpt>
      <trkpt lat="43.00929" lon="0.14683">
        <ele>820.266907</ele>
        <time>2026-03-22T12:33:55.389Z</time>
      </trkpt>
      <trkpt lat="43.00941" lon="0.14698">
        <ele>818.425501</ele>
        <time>2026-03-22T12:33:57.385Z</time>
      </trkpt>
      <trkpt lat="43.00951" lon="0.14715">
        <ele>816.58033</ele>
        <time>2026-03-22T12:33:59.393Z</time>
      </trkpt>
      <trkpt lat="43.00959" lon="0.1473">
        <ele>815.010433</ele>
        <time>2026-03-22T12:34:01.392Z</time>
      </trkpt>
      <trkpt lat="43.00966" lon="0.14741">
        <ele>814.231568</ele>
        <time>2026-03-22T12:34:03.401Z</time>
      </trkpt>
      <trkpt lat="43.00973" lon="0.14751">
        <ele>813.458619</ele>
        <time>2026-03-22T12:34:05.377Z</time>
      </trkpt>
      <trkpt lat="43.00982" lon="0.14763">
        <ele>812.493322</ele>
        <time>2026-03-22T12:34:07.396Z</time>
      </trkpt>
      <trkpt lat="43.00994" lon="0.14775">
        <ele>811.3944</ele>
        <time>2026-03-22T12:34:09.412Z</time>
      </trkpt>
      <trkpt lat="43.01005" lon="0.14786">
        <ele>810.348595</ele>
        <time>2026-03-22T12:34:11.390Z</time>
      </trkpt>
      <trkpt lat="43.01015" lon="0.14793">
        <ele>809.518158</ele>
        <time>2026-03-22T12:34:13.393Z</time>
      </trkpt>
      <trkpt lat="43.01024" lon="0.14802">
        <ele>808.640991</ele>
        <time>2026-03-22T12:34:16.390Z</time>
      </trkpt>
      <trkpt lat="43.01033" lon="0.14812">
        <ele>807.722763</ele>
        <time>2026-03-22T12:34:19.395Z</time>
      </trkpt>
      <trkpt lat="43.01042" lon="0.14826">
        <ele>806.734939</ele>
        <time>2026-03-22T12:34:21.389Z</time>
      </trkpt>
      <trkpt lat="43.01048" lon="0.14837">
        <ele>805.95314</ele>
        <time>2026-03-22T12:34:22.381Z</time>
      </trkpt>
      <trkpt lat="43.01055" lon="0.14847">
        <ele>805.192586</ele>
        <time>2026-03-22T12:34:23.397Z</time>
      </trkpt>
      <trkpt lat="43.01062" lon="0.14858">
        <ele>804.368585</ele>
        <time>2026-03-22T12:34:24.399Z</time>
      </trkpt>
      <trkpt lat="43.01069" lon="0.1487">
        <ele>803.51026</ele>
        <time>2026-03-22T12:34:25.395Z</time>
      </trkpt>
      <trkpt lat="43.01077" lon="0.14881">
        <ele>802.667016</ele>
        <time>2026-03-22T12:34:26.380Z</time>
      </trkpt>
      <trkpt lat="43.01084" lon="0.14891">
        <ele>801.890783</ele>
        <time>2026-03-22T12:34:27.384Z</time>
      </trkpt>
      <trkpt lat="43.01091" lon="0.14902">
        <ele>801.359981</ele>
        <time>2026-03-22T12:34:28.392Z</time>
      </trkpt>
      <trkpt lat="43.01098" lon="0.14912">
        <ele>801.359981</ele>
        <time>2026-03-22T12:34:29.382Z</time>
      </trkpt>
      <trkpt lat="43.01104" lon="0.14923">
        <ele>801.359981</ele>
        <time>2026-03-22T12:34:30.384Z</time>
      </trkpt>
      <trkpt lat="43.01111" lon="0.14933">
        <ele>801.359981</ele>
        <time>2026-03-22T12:34:31.400Z</time>
      </trkpt>
      <trkpt lat="43.01119" lon="0.14943">
        <ele>801.359981</ele>
        <time>2026-03-22T12:34:32.403Z</time>
      </trkpt>
      <trkpt lat="43.01125" lon="0.14953">
        <ele>801.359981</ele>
        <time>2026-03-22T12:34:33.400Z</time>
      </trkpt>
      <trkpt lat="43.01132" lon="0.14964">
        <ele>801.359981</ele>
        <time>2026-03-22T12:34:34.404Z</time>
      </trkpt>
      <trkpt lat="43.01138" lon="0.14974">
        <ele>801.359981</ele>
        <time>2026-03-22T12:34:35.398Z</time>
      </trkpt>
      <trkpt lat="43.01146" lon="0.14984">
        <ele>801.359981</ele>
        <time>2026-03-22T12:34:36.399Z</time>
      </trkpt>
      <trkpt lat="43.01153" lon="0.14993">
        <ele>801.359981</ele>
        <time>2026-03-22T12:34:37.394Z</time>
      </trkpt>
      <trkpt lat="43.01159" lon="0.15002">
        <ele>801.359981</ele>
        <time>2026-03-22T12:34:38.400Z</time>
      </trkpt>
      <trkpt lat="43.01171" lon="0.15018">
        <ele>801.359981</ele>
        <time>2026-03-22T12:34:40.397Z</time>
      </trkpt>
      <trkpt lat="43.01185" lon="0.15032">
        <ele>801.359981</ele>
        <time>2026-03-22T12:34:42.415Z</time>
      </trkpt>
      <trkpt lat="43.01197" lon="0.15044">
        <ele>801.359981</ele>
        <time>2026-03-22T12:34:44.391Z</time>
      </trkpt>
      <trkpt lat="43.01206" lon="0.15063">
        <ele>801.359981</ele>
        <time>2026-03-22T12:34:46.389Z</time>
      </trkpt>
      <trkpt lat="43.01213" lon="0.15086">
        <ele>801.359981</ele>
        <time>2026-03-22T12:34:48.402Z</time>
      </trkpt>
      <trkpt lat="43.01216" lon="0.15097">
        <ele>801.359981</ele>
        <time>2026-03-22T12:34:49.420Z</time>
      </trkpt>
      <trkpt lat="43.01221" lon="0.15109">
        <ele>801.359981</ele>
        <time>2026-03-22T12:34:50.391Z</time>
      </trkpt>
      <trkpt lat="43.01226" lon="0.15121">
        <ele>801.359981</ele>
        <time>2026-03-22T12:34:51.389Z</time>
      </trkpt>
      <trkpt lat="43.0123" lon="0.15142">
        <ele>801.359981</ele>
        <time>2026-03-22T12:34:53.382Z</time>
      </trkpt>
      <trkpt lat="43.01232" lon="0.15157">
        <ele>801.359981</ele>
        <time>2026-03-22T12:34:55.413Z</time>
      </trkpt>
    </trkseg>
  </trk>
</gpx>